<?xml version='1.0' encoding='UTF-8'?><gpx version="1.1" creator="JPX - https://github.com/jenetics/jpx" xmlns="http://www.topografix.com/GPX/1/1"><trk><trkseg><trkpt lat="44.42038380154408" lon="10.794634770272435"><ele>796.0</ele><time>2026-04-12T09:42:44.999Z</time></trkpt><trkpt lat="44.420373967664716" lon="10.794724167275708"><ele>796.0</ele><time>2026-04-12T09:42:45.999Z</time></trkpt><trkpt lat="44.42035146202173" lon="10.794854287990981"><ele>796.0</ele><time>2026-04-12T09:42:46.999Z</time></trkpt><trkpt lat="44.42033223535402" lon="10.795016063196087"><ele>796.0</ele><time>2026-04-12T09:42:47.999Z</time></trkpt><trkpt lat="44.420274868499774" lon="10.795194980260774"><ele>796.0</ele><time>2026-04-12T09:42:48.999Z</time></trkpt><trkpt lat="44.42024450010311" lon="10.795426789207195"><ele>795.6666666666666</ele><time>2026-04-12T09:42:49.999Z</time></trkpt><trkpt lat="44.42021030211173" lon="10.795676288130757"><ele>795.3333333333333</ele><time>2026-04-12T09:42:50.999Z</time></trkpt><trkpt lat="44.420176804857626" lon="10.795908141071179"><ele>795.0</ele><time>2026-04-12T09:42:51.999Z</time></trkpt><trkpt lat="44.420147420142214" lon="10.796096030787934"><ele>795.0</ele><time>2026-04-12T09:42:52.999Z</time></trkpt><trkpt lat="44.42010791399233" lon="10.796245138232138"><ele>795.0</ele><time>2026-04-12T09:42:53.999Z</time></trkpt><trkpt lat="44.420057383515136" lon="10.796361422692147"><ele>795.0</ele><time>2026-04-12T09:42:54.999Z</time></trkpt><trkpt lat="44.419978775925216" lon="10.796469604966415"><ele>795.0</ele><time>2026-04-12T09:42:55.999Z</time></trkpt><trkpt lat="44.41986444224595" lon="10.796517987148109"><ele>795.0</ele><time>2026-04-12T09:42:56.999Z</time></trkpt><trkpt lat="44.419714138390596" lon="10.796598065281826"><ele>795.6666666666667</ele><time>2026-04-12T09:42:57.999Z</time></trkpt><trkpt lat="44.41956184911558" lon="10.796688227336208"><ele>796.3333333333334</ele><time>2026-04-12T09:42:58.999Z</time></trkpt><trkpt lat="44.41943479542445" lon="10.796808041805967"><ele>797.0</ele><time>2026-04-12T09:42:59.999Z</time></trkpt><trkpt lat="44.41933193650826" lon="10.796930317832539"><ele>797.0</ele><time>2026-04-12T09:43:00.999Z</time></trkpt><trkpt lat="44.41924789727148" lon="10.79707122382759"><ele>797.0</ele><time>2026-04-12T09:43:01.999Z</time></trkpt><trkpt lat="44.419187083077595" lon="10.797220290286894"><ele>797.0</ele><time>2026-04-12T09:43:02.999Z</time></trkpt><trkpt lat="44.419156988939754" lon="10.79735863592881"><ele>797.0</ele><time>2026-04-12T09:43:03.999Z</time></trkpt><trkpt lat="44.41914735485164" lon="10.797508244753834"><ele>797.5</ele><time>2026-04-12T09:43:04.999Z</time></trkpt><trkpt lat="44.41915905562535" lon="10.79767594731094"><ele>798.0</ele><time>2026-04-12T09:43:05.999Z</time></trkpt><trkpt lat="44.419208407816896" lon="10.797847989404849"><ele>798.5</ele><time>2026-04-12T09:43:06.999Z</time></trkpt><trkpt lat="44.419288155340084" lon="10.7980386607543"><ele>799.0</ele><time>2026-04-12T09:43:07.999Z</time></trkpt><trkpt lat="44.41935243373966" lon="10.798189552101936"><ele>799.0</ele><time>2026-04-12T09:43:08.999Z</time></trkpt><trkpt lat="44.419390352210115" lon="10.798341144274891"><ele>799.0</ele><time>2026-04-12T09:43:09.999Z</time></trkpt><trkpt lat="44.41935896022322" lon="10.798495154770928"><ele>799.0</ele><time>2026-04-12T09:43:10.999Z</time></trkpt><trkpt lat="44.4193147373624" lon="10.798651628589065"><ele>799.0</ele><time>2026-04-12T09:43:11.999Z</time></trkpt><trkpt lat="44.419236182939805" lon="10.798821786409764"><ele>800.0</ele><time>2026-04-12T09:43:12.999Z</time></trkpt><trkpt lat="44.41913970782281" lon="10.79903530485097"><ele>801.0</ele><time>2026-04-12T09:43:13.998Z</time></trkpt><trkpt lat="44.41903450016293" lon="10.799267338190159"><ele>802.0</ele><time>2026-04-12T09:43:14.998Z</time></trkpt><trkpt lat="44.418939493553836" lon="10.799510474682688"><ele>802.6666666666666</ele><time>2026-04-12T09:43:15.998Z</time></trkpt><trkpt lat="44.418848658247384" lon="10.79970767702778"><ele>803.3333333333333</ele><time>2026-04-12T09:43:16.998Z</time></trkpt><trkpt lat="44.4187595904203" lon="10.799886526719854"><ele>804.0</ele><time>2026-04-12T09:43:17.998Z</time></trkpt><trkpt lat="44.418631511752906" lon="10.80004875031515"><ele>805.6666666666667</ele><time>2026-04-12T09:43:18.998Z</time></trkpt><trkpt lat="44.4184861844753" lon="10.800196233522968"><ele>807.3333333333334</ele><time>2026-04-12T09:43:19.998Z</time></trkpt><trkpt lat="44.418348192374495" lon="10.800298376097759"><ele>809.0</ele><time>2026-04-12T09:43:20.998Z</time></trkpt><trkpt lat="44.41821677444085" lon="10.800384149415153"><ele>809.0</ele><time>2026-04-12T09:43:21.998Z</time></trkpt><trkpt lat="44.41810405593801" lon="10.8004581441561"><ele>809.0</ele><time>2026-04-12T09:43:22.998Z</time></trkpt><trkpt lat="44.418005832775755" lon="10.800520679113845"><ele>809.0</ele><time>2026-04-12T09:43:23.998Z</time></trkpt><trkpt lat="44.417916416812965" lon="10.800558922863466"><ele>809.0</ele><time>2026-04-12T09:43:24.998Z</time></trkpt><trkpt lat="44.417842473672216" lon="10.800588877634617"><ele>809.0</ele><time>2026-04-12T09:43:25.998Z</time></trkpt><trkpt lat="44.41773723006496" lon="10.800619439276783"><ele>808.0</ele><time>2026-04-12T09:43:27.998Z</time></trkpt><trkpt lat="44.417666378716625" lon="10.800625573844044"><ele>807.0</ele><time>2026-04-12T09:43:30.999Z</time></trkpt><trkpt lat="44.417571393502016" lon="10.800717984036744"><ele>806.0</ele><time>2026-04-12T09:43:41.999Z</time></trkpt><trkpt lat="44.41749175748753" lon="10.800830545599814"><ele>805.0</ele><time>2026-04-12T09:43:42.999Z</time></trkpt><trkpt lat="44.417411877647545" lon="10.800968798295164"><ele>804.0</ele><time>2026-04-12T09:43:43.999Z</time></trkpt><trkpt lat="44.41734423988481" lon="10.801080887228094"><ele>804.0</ele><time>2026-04-12T09:43:44.999Z</time></trkpt><trkpt lat="44.4172822529848" lon="10.801189350598207"><ele>804.0</ele><time>2026-04-12T09:43:45.999Z</time></trkpt><trkpt lat="44.41724123853334" lon="10.801302041783963"><ele>804.0</ele><time>2026-04-12T09:43:46.999Z</time></trkpt><trkpt lat="44.41718029409936" lon="10.801414509847662"><ele>804.0</ele><time>2026-04-12T09:43:47.999Z</time></trkpt><trkpt lat="44.417127372922195" lon="10.801512737171592"><ele>804.0</ele><time>2026-04-12T09:43:48.999Z</time></trkpt><trkpt lat="44.41705885837913" lon="10.801593462866935"><ele>801.6666666666666</ele><time>2026-04-12T09:43:49.999Z</time></trkpt><trkpt lat="44.417019855308176" lon="10.8016697728726"><ele>799.3333333333333</ele><time>2026-04-12T09:43:50.999Z</time></trkpt><trkpt lat="44.41696546495575" lon="10.801791506828714"><ele>797.0</ele><time>2026-04-12T09:43:51.999Z</time></trkpt><trkpt lat="44.4169112751673" lon="10.801864669924361"><ele>794.6666666666666</ele><time>2026-04-12T09:43:52.999Z</time></trkpt><trkpt lat="44.41687001307485" lon="10.801948380345925"><ele>792.3333333333333</ele><time>2026-04-12T09:43:53.999Z</time></trkpt><trkpt lat="44.4168057231046" lon="10.80202194274581"><ele>790.0</ele><time>2026-04-12T09:43:54.999Z</time></trkpt><trkpt lat="44.41671481931788" lon="10.802027347574708"><ele>789.6</ele><time>2026-04-12T09:43:55.999Z</time></trkpt><trkpt lat="44.41662121719163" lon="10.802056094291322"><ele>789.2</ele><time>2026-04-12T09:43:56.999Z</time></trkpt><trkpt lat="44.41652155348338" lon="10.802065010832354"><ele>788.8</ele><time>2026-04-12T09:43:57.999Z</time></trkpt><trkpt lat="44.41642724757381" lon="10.802080463802785"><ele>788.4</ele><time>2026-04-12T09:43:58.999Z</time></trkpt><trkpt lat="44.41633815996423" lon="10.802096416780122"><ele>788.0</ele><time>2026-04-12T09:44:00Z</time></trkpt><trkpt lat="44.41624572952261" lon="10.802166769614281"><ele>786.0000000000001</ele><time>2026-04-12T09:44:01Z</time></trkpt><trkpt lat="44.416148161220995" lon="10.802203061455563"><ele>784.0</ele><time>2026-04-12T09:44:02Z</time></trkpt><trkpt lat="44.41605611797206" lon="10.802253848274143"><ele>782.0</ele><time>2026-04-12T09:44:03Z</time></trkpt><trkpt lat="44.415991153959304" lon="10.802317301320532"><ele>780.0</ele><time>2026-04-12T09:44:04Z</time></trkpt><trkpt lat="44.41591992766643" lon="10.802350571034385"><ele>778.0000000000001</ele><time>2026-04-12T09:44:05Z</time></trkpt><trkpt lat="44.41584840466191" lon="10.80238299582968"><ele>776.0</ele><time>2026-04-12T09:44:06Z</time></trkpt><trkpt lat="44.41578762454529" lon="10.80242861466277"><ele>776.0000000000001</ele><time>2026-04-12T09:44:07Z</time></trkpt><trkpt lat="44.415719806793334" lon="10.802501626548494"><ele>776.0</ele><time>2026-04-12T09:44:08Z</time></trkpt><trkpt lat="44.41565481906625" lon="10.802587956293415"><ele>776.0</ele><time>2026-04-12T09:44:09Z</time></trkpt><trkpt lat="44.41559944810904" lon="10.80267327763748"><ele>776.0</ele><time>2026-04-12T09:44:10Z</time></trkpt><trkpt lat="44.41554781135119" lon="10.802756151901988"><ele>776.0000000000001</ele><time>2026-04-12T09:44:11Z</time></trkpt><trkpt lat="44.41549488537046" lon="10.80283499473996"><ele>776.0</ele><time>2026-04-12T09:44:12Z</time></trkpt><trkpt lat="44.4154503760485" lon="10.802904462784081"><ele>773.0000000000001</ele><time>2026-04-12T09:44:13Z</time></trkpt><trkpt lat="44.41540601514803" lon="10.802985746425238"><ele>770.0</ele><time>2026-04-12T09:44:14Z</time></trkpt><trkpt lat="44.415378243638195" lon="10.803072974695837"><ele>767.0</ele><time>2026-04-12T09:44:15Z</time></trkpt><trkpt lat="44.41533542918881" lon="10.803151117456297"><ele>764.0</ele><time>2026-04-12T09:44:16Z</time></trkpt><trkpt lat="44.415301154450376" lon="10.803311055265405"><ele>761.0</ele><time>2026-04-12T09:44:18Z</time></trkpt><trkpt lat="44.41526527265844" lon="10.80346412386763"><ele>758.0</ele><time>2026-04-12T09:44:20Z</time></trkpt><trkpt lat="44.41526608299495" lon="10.803554940467242"><ele>758.0</ele><time>2026-04-12T09:44:21Z</time></trkpt><trkpt lat="44.41523531631226" lon="10.803660907690789"><ele>758.0</ele><time>2026-04-12T09:44:22Z</time></trkpt><trkpt lat="44.415213938143374" lon="10.803758412881406"><ele>758.0</ele><time>2026-04-12T09:44:23Z</time></trkpt><trkpt lat="44.415151038981456" lon="10.803889678202435"><ele>758.0</ele><time>2026-04-12T09:44:25Z</time></trkpt><trkpt lat="44.415076895322876" lon="10.80400964375876"><ele>758.0</ele><time>2026-04-12T09:44:27Z</time></trkpt><trkpt lat="44.41502161401449" lon="10.804133488647226"><ele>758.0</ele><time>2026-04-12T09:44:29Z</time></trkpt><trkpt lat="44.4149579750132" lon="10.804167826345644"><ele>758.0</ele><time>2026-04-12T09:44:32Z</time></trkpt><trkpt lat="44.41486465506328" lon="10.804107860388187"><ele>758.0</ele><time>2026-04-12T09:44:34Z</time></trkpt><trkpt lat="44.414773500614366" lon="10.8041843844049"><ele>758.0</ele><time>2026-04-12T09:44:36Z</time></trkpt><trkpt lat="44.41466187785244" lon="10.80424065647708"><ele>758.0</ele><time>2026-04-12T09:44:38Z</time></trkpt><trkpt lat="44.41460378149803" lon="10.804291589710287"><ele>753.4</ele><time>2026-04-12T09:44:39Z</time></trkpt><trkpt lat="44.41451159161862" lon="10.804354880286342"><ele>748.8</ele><time>2026-04-12T09:44:41Z</time></trkpt><trkpt lat="44.41443084528746" lon="10.804375854846441"><ele>744.2</ele><time>2026-04-12T09:44:43Z</time></trkpt><trkpt lat="44.414325500930616" lon="10.804425175946175"><ele>739.6</ele><time>2026-04-12T09:44:45Z</time></trkpt><trkpt lat="44.414257362219985" lon="10.804446236065678"><ele>735.0</ele><time>2026-04-12T09:44:47Z</time></trkpt><trkpt lat="44.41417452667115" lon="10.804466825317881"><ele>735.0</ele><time>2026-04-12T09:44:49Z</time></trkpt><trkpt lat="44.41408153184158" lon="10.804496860144726"><ele>735.0</ele><time>2026-04-12T09:44:51Z</time></trkpt><trkpt lat="44.41398872738898" lon="10.80453384229954"><ele>735.0</ele><time>2026-04-12T09:44:54Z</time></trkpt><trkpt lat="44.413926240111586" lon="10.8045588908023"><ele>735.0</ele><time>2026-04-12T09:44:55Z</time></trkpt><trkpt lat="44.41384974725876" lon="10.804587911968262"><ele>735.0</ele><time>2026-04-12T09:44:56Z</time></trkpt><trkpt lat="44.41378244599811" lon="10.804584900587713"><ele>735.0</ele><time>2026-04-12T09:44:59Z</time></trkpt><trkpt lat="44.413689542823384" lon="10.804615497355888"><ele>731.8333333333334</ele><time>2026-04-12T09:45:01Z</time></trkpt><trkpt lat="44.41362523452761" lon="10.804644495658787"><ele>728.6666666666666</ele><time>2026-04-12T09:45:02Z</time></trkpt><trkpt lat="44.41354725086779" lon="10.8046784330168"><ele>725.5</ele><time>2026-04-12T09:45:04Z</time></trkpt><trkpt lat="44.41346652350399" lon="10.804705087980974"><ele>722.3333333333333</ele><time>2026-04-12T09:45:06Z</time></trkpt><trkpt lat="44.41340161021372" lon="10.8047413890705"><ele>719.1666666666666</ele><time>2026-04-12T09:45:08Z</time></trkpt><trkpt lat="44.41332386324028" lon="10.804784435845875"><ele>716.0</ele><time>2026-04-12T09:45:10Z</time></trkpt><trkpt lat="44.41322807162814" lon="10.804792655307894"><ele>716.0</ele><time>2026-04-12T09:45:12Z</time></trkpt><trkpt lat="44.413121617927146" lon="10.804807185546265"><ele>716.0</ele><time>2026-04-12T09:45:14Z</time></trkpt><trkpt lat="44.413023216041665" lon="10.80480607839729"><ele>716.0</ele><time>2026-04-12T09:45:16Z</time></trkpt><trkpt lat="44.412906892459674" lon="10.804798922937811"><ele>716.0</ele><time>2026-04-12T09:45:18Z</time></trkpt><trkpt lat="44.41282273734313" lon="10.804804587221742"><ele>716.0</ele><time>2026-04-12T09:45:19.999Z</time></trkpt><trkpt lat="44.412729796474345" lon="10.804764891166736"><ele>714.0</ele><time>2026-04-12T09:45:21.999Z</time></trkpt><trkpt lat="44.41263942869726" lon="10.804734196022824"><ele>712.0</ele><time>2026-04-12T09:45:23.999Z</time></trkpt><trkpt lat="44.41253145594883" lon="10.804776941960448"><ele>710.0</ele><time>2026-04-12T09:45:25.999Z</time></trkpt><trkpt lat="44.41243079644429" lon="10.80480110359735"><ele>708.0</ele><time>2026-04-12T09:45:27.999Z</time></trkpt><trkpt lat="44.412325244368894" lon="10.804874119371323"><ele>706.0</ele><time>2026-04-12T09:45:29.999Z</time></trkpt><trkpt lat="44.41220284361913" lon="10.804874588276626"><ele>704.0</ele><time>2026-04-12T09:45:31.999Z</time></trkpt><trkpt lat="44.412095853208385" lon="10.804774969147605"><ele>702.0</ele><time>2026-04-12T09:45:33.999Z</time></trkpt><trkpt lat="44.41204701792984" lon="10.80469788925803"><ele>700.0</ele><time>2026-04-12T09:45:34.999Z</time></trkpt><trkpt lat="44.411939318416685" lon="10.804846190631041"><ele>698.0</ele><time>2026-04-12T09:45:35.999Z</time></trkpt><trkpt lat="44.411846650033404" lon="10.804846371590052"><ele>696.0</ele><time>2026-04-12T09:45:36.999Z</time></trkpt><trkpt lat="44.41173882727904" lon="10.804842986182402"><ele>696.0</ele><time>2026-04-12T09:45:37.999Z</time></trkpt><trkpt lat="44.41167192407955" lon="10.804854713829286"><ele>696.0</ele><time>2026-04-12T09:45:38.999Z</time></trkpt><trkpt lat="44.4115986989707" lon="10.804846131751392"><ele>696.0</ele><time>2026-04-12T09:45:40.999Z</time></trkpt><trkpt lat="44.41157892571062" lon="10.804755474106852"><ele>696.0</ele><time>2026-04-12T09:45:42.999Z</time></trkpt><trkpt lat="44.411610582888386" lon="10.804622332895399"><ele>696.0</ele><time>2026-04-12T09:45:44.999Z</time></trkpt><trkpt lat="44.41154765688875" lon="10.804527809796209"><ele>696.0</ele><time>2026-04-12T09:45:46.999Z</time></trkpt><trkpt lat="44.411431239073636" lon="10.804469557799152"><ele>696.0</ele><time>2026-04-12T09:45:48.999Z</time></trkpt><trkpt lat="44.411327002525056" lon="10.804413705994454"><ele>696.0</ele><time>2026-04-12T09:45:49.999Z</time></trkpt><trkpt lat="44.41123228305631" lon="10.8043615403828"><ele>696.0</ele><time>2026-04-12T09:45:50.999Z</time></trkpt><trkpt lat="44.4111151967352" lon="10.80431157745458"><ele>696.0</ele><time>2026-04-12T09:45:51.999Z</time></trkpt><trkpt lat="44.410977114077035" lon="10.80423908957077"><ele>694.5999999999999</ele><time>2026-04-12T09:45:52.999Z</time></trkpt><trkpt lat="44.410854619862526" lon="10.804166166742993"><ele>693.2</ele><time>2026-04-12T09:45:53.999Z</time></trkpt><trkpt lat="44.410747182323206" lon="10.804112296695717"><ele>691.8</ele><time>2026-04-12T09:45:54.999Z</time></trkpt><trkpt lat="44.41065909738198" lon="10.804062548470762"><ele>690.4000000000001</ele><time>2026-04-12T09:45:55.999Z</time></trkpt><trkpt lat="44.410589853732255" lon="10.804025559953507"><ele>689.0</ele><time>2026-04-12T09:45:56.999Z</time></trkpt><trkpt lat="44.41051011654812" lon="10.803992864034205"><ele>688.0</ele><time>2026-04-12T09:45:57.999Z</time></trkpt><trkpt lat="44.41041701038347" lon="10.803971716100937"><ele>687.0</ele><time>2026-04-12T09:45:58.999Z</time></trkpt><trkpt lat="44.41032676112865" lon="10.803954449609208"><ele>686.0</ele><time>2026-04-12T09:45:59.999Z</time></trkpt><trkpt lat="44.41023691491574" lon="10.803935030441158"><ele>685.0</ele><time>2026-04-12T09:46:00.999Z</time></trkpt><trkpt lat="44.410142049110206" lon="10.803911712515223"><ele>684.0</ele><time>2026-04-12T09:46:01.999Z</time></trkpt><trkpt lat="44.41006267614002" lon="10.803864890123123"><ele>684.0</ele><time>2026-04-12T09:46:02.999Z</time></trkpt><trkpt lat="44.40998915965047" lon="10.803832699268426"><ele>684.0</ele><time>2026-04-12T09:46:03.999Z</time></trkpt><trkpt lat="44.40991525205038" lon="10.803798970539088"><ele>684.0</ele><time>2026-04-12T09:46:05Z</time></trkpt><trkpt lat="44.40984583328062" lon="10.803776154126014"><ele>684.0</ele><time>2026-04-12T09:46:06Z</time></trkpt><trkpt lat="44.40977943842949" lon="10.803782298264013"><ele>684.0</ele><time>2026-04-12T09:46:08Z</time></trkpt><trkpt lat="44.409705844103435" lon="10.80382202125607"><ele>684.0</ele><time>2026-04-12T09:46:26Z</time></trkpt><trkpt lat="44.409584971291984" lon="10.803852133345405"><ele>683.3333333333334</ele><time>2026-04-12T09:46:28Z</time></trkpt><trkpt lat="44.40951151678378" lon="10.803861521409615"><ele>682.6666666666666</ele><time>2026-04-12T09:46:29Z</time></trkpt><trkpt lat="44.4094261419487" lon="10.803830529127016"><ele>682.0</ele><time>2026-04-12T09:46:31Z</time></trkpt><trkpt lat="44.40935274263231" lon="10.803803927747644"><ele>681.3333333333333</ele><time>2026-04-12T09:46:32Z</time></trkpt><trkpt lat="44.409243573542845" lon="10.803773421563958"><ele>680.6666666666666</ele><time>2026-04-12T09:46:33Z</time></trkpt><trkpt lat="44.40917003787812" lon="10.803738984234547"><ele>680.0</ele><time>2026-04-12T09:46:34Z</time></trkpt><trkpt lat="44.40905940953201" lon="10.803613207346487"><ele>680.0</ele><time>2026-04-12T09:46:36Z</time></trkpt><trkpt lat="44.40900271306309" lon="10.803521453507223"><ele>680.0</ele><time>2026-04-12T09:46:37Z</time></trkpt><trkpt lat="44.40893776567832" lon="10.803414178029097"><ele>680.0</ele><time>2026-04-12T09:46:38Z</time></trkpt><trkpt lat="44.40889569325819" lon="10.80334371850113"><ele>680.0</ele><time>2026-04-12T09:46:39Z</time></trkpt><trkpt lat="44.40880294703841" lon="10.803277753380106"><ele>680.0</ele><time>2026-04-12T09:46:41Z</time></trkpt><trkpt lat="44.40873052628625" lon="10.803237942803815"><ele>680.0</ele><time>2026-04-12T09:46:42Z</time></trkpt><trkpt lat="44.408658532463676" lon="10.803202254905878"><ele>681.8</ele><time>2026-04-12T09:46:43Z</time></trkpt><trkpt lat="44.408537038200784" lon="10.803222985769656"><ele>683.6</ele><time>2026-04-12T09:46:45Z</time></trkpt><trkpt lat="44.40846107078417" lon="10.803269521628026"><ele>685.4000000000001</ele><time>2026-04-12T09:46:46Z</time></trkpt><trkpt lat="44.408382658264735" lon="10.803337470066749"><ele>687.2</ele><time>2026-04-12T09:46:47Z</time></trkpt><trkpt lat="44.40830328393667" lon="10.803398159772284"><ele>689.0</ele><time>2026-04-12T09:46:48Z</time></trkpt><trkpt lat="44.408239707218584" lon="10.803426439315025"><ele>688.4000000000001</ele><time>2026-04-12T09:46:49Z</time></trkpt><trkpt lat="44.40818529971013" lon="10.803516926324473"><ele>687.8</ele><time>2026-04-12T09:46:51Z</time></trkpt><trkpt lat="44.408180000632825" lon="10.803670113044634"><ele>687.2</ele><time>2026-04-12T09:46:53Z</time></trkpt><trkpt lat="44.40813441168301" lon="10.80376487877728"><ele>686.5999999999999</ele><time>2026-04-12T09:46:55Z</time></trkpt><trkpt lat="44.40799669810843" lon="10.803803101646373"><ele>686.0</ele><time>2026-04-12T09:46:57Z</time></trkpt><trkpt lat="44.407904545507584" lon="10.80386769143591"><ele>686.0</ele><time>2026-04-12T09:46:58Z</time></trkpt><trkpt lat="44.407791548748975" lon="10.803940210525301"><ele>686.0</ele><time>2026-04-12T09:46:59Z</time></trkpt><trkpt lat="44.40773148331792" lon="10.803971472836455"><ele>686.0</ele><time>2026-04-12T09:47:00Z</time></trkpt><trkpt lat="44.40764949638767" lon="10.803982561909358"><ele>686.0</ele><time>2026-04-12T09:47:01Z</time></trkpt><trkpt lat="44.40757117703444" lon="10.803985967261285"><ele>686.0</ele><time>2026-04-12T09:47:02Z</time></trkpt><trkpt lat="44.40747900917657" lon="10.803970383623826"><ele>686.0</ele><time>2026-04-12T09:47:03Z</time></trkpt><trkpt lat="44.40740183269938" lon="10.80394300790658"><ele>686.0</ele><time>2026-04-12T09:47:04Z</time></trkpt><trkpt lat="44.40733229473351" lon="10.803940348241838"><ele>686.0</ele><time>2026-04-12T09:47:05Z</time></trkpt><trkpt lat="44.40726264019821" lon="10.803954270969099"><ele>686.0</ele><time>2026-04-12T09:47:06Z</time></trkpt><trkpt lat="44.40717940725149" lon="10.803888271885842"><ele>686.0</ele><time>2026-04-12T09:47:08Z</time></trkpt><trkpt lat="44.407147290871606" lon="10.803767056878803"><ele>686.0</ele><time>2026-04-12T09:47:11Z</time></trkpt><trkpt lat="44.40708452015379" lon="10.803795931921464"><ele>686.0</ele><time>2026-04-12T09:47:13Z</time></trkpt><trkpt lat="44.40702022849154" lon="10.803798770726846"><ele>687.1666666666666</ele><time>2026-04-12T09:47:14Z</time></trkpt><trkpt lat="44.406950644450355" lon="10.803868389779282"><ele>688.3333333333333</ele><time>2026-04-12T09:47:16Z</time></trkpt><trkpt lat="44.40686737280696" lon="10.803932080117267"><ele>689.5</ele><time>2026-04-12T09:47:18Z</time></trkpt><trkpt lat="44.406758637357015" lon="10.803996844913692"><ele>690.6666666666666</ele><time>2026-04-12T09:47:20Z</time></trkpt><trkpt lat="44.40670941522192" lon="10.804064062870774"><ele>691.8333333333334</ele><time>2026-04-12T09:47:20.999Z</time></trkpt><trkpt lat="44.40671862910986" lon="10.804161281979953"><ele>693.0</ele><time>2026-04-12T09:47:21.999Z</time></trkpt><trkpt lat="44.40669846999417" lon="10.804301133365612"><ele>693.8</ele><time>2026-04-12T09:47:23.999Z</time></trkpt><trkpt lat="44.40660388770768" lon="10.80442832083073"><ele>694.5999999999999</ele><time>2026-04-12T09:47:25.999Z</time></trkpt><trkpt lat="44.40651357761778" lon="10.804570354597738"><ele>695.4000000000001</ele><time>2026-04-12T09:47:27.999Z</time></trkpt><trkpt lat="44.406458261925245" lon="10.804649375822548"><ele>696.2</ele><time>2026-04-12T09:47:28.999Z</time></trkpt><trkpt lat="44.40638478586306" lon="10.804707534794172"><ele>697.0</ele><time>2026-04-12T09:47:29.999Z</time></trkpt><trkpt lat="44.40630169985448" lon="10.8047722876469"><ele>699.0</ele><time>2026-04-12T09:47:30.999Z</time></trkpt><trkpt lat="44.40617527393139" lon="10.80481097233522"><ele>701.0</ele><time>2026-04-12T09:47:32.999Z</time></trkpt><trkpt lat="44.4061089304145" lon="10.80476709940895"><ele>703.0</ele><time>2026-04-12T09:47:34.999Z</time></trkpt><trkpt lat="44.40604129644312" lon="10.804729652698374"><ele>705.0</ele><time>2026-04-12T09:47:35.999Z</time></trkpt><trkpt lat="44.40596281964148" lon="10.80467729458168"><ele>707.0</ele><time>2026-04-12T09:47:36.999Z</time></trkpt><trkpt lat="44.40590197592047" lon="10.804642162810381"><ele>709.0</ele><time>2026-04-12T09:47:37.999Z</time></trkpt><trkpt lat="44.405841404134584" lon="10.804601259614754"><ele>709.0</ele><time>2026-04-12T09:47:38.999Z</time></trkpt><trkpt lat="44.40579157042123" lon="10.804545256407849"><ele>709.0</ele><time>2026-04-12T09:47:39.999Z</time></trkpt><trkpt lat="44.40570982688056" lon="10.804382279895815"><ele>709.0</ele><time>2026-04-12T09:47:41.999Z</time></trkpt><trkpt lat="44.405637168218824" lon="10.804364031689179"><ele>709.0</ele><time>2026-04-12T09:47:42.999Z</time></trkpt><trkpt lat="44.40555909867887" lon="10.804379900011087"><ele>709.0</ele><time>2026-04-12T09:47:43.999Z</time></trkpt><trkpt lat="44.40546383530849" lon="10.804409924813637"><ele>709.8000000000001</ele><time>2026-04-12T09:47:44.999Z</time></trkpt><trkpt lat="44.40536797399651" lon="10.804369104532565"><ele>710.6</ele><time>2026-04-12T09:47:45.999Z</time></trkpt><trkpt lat="44.40529936572459" lon="10.804321697576055"><ele>711.4</ele><time>2026-04-12T09:47:46.999Z</time></trkpt><trkpt lat="44.40523124896492" lon="10.804323854728834"><ele>712.2</ele><time>2026-04-12T09:47:47.999Z</time></trkpt><trkpt lat="44.40512692653635" lon="10.804360481706622"><ele>713.0</ele><time>2026-04-12T09:47:48.999Z</time></trkpt><trkpt lat="44.40502571714392" lon="10.804454477602329"><ele>713.5</ele><time>2026-04-12T09:47:50.999Z</time></trkpt><trkpt lat="44.40498077699202" lon="10.80452468913262"><ele>714.0</ele><time>2026-04-12T09:47:51.999Z</time></trkpt><trkpt lat="44.40491259165605" lon="10.80454228138007"><ele>714.5</ele><time>2026-04-12T09:47:52.999Z</time></trkpt><trkpt lat="44.40482016389574" lon="10.804561156969497"><ele>715.0</ele><time>2026-04-12T09:47:53.999Z</time></trkpt><trkpt lat="44.40475042002277" lon="10.804572354269926"><ele>715.5</ele><time>2026-04-12T09:47:54.999Z</time></trkpt><trkpt lat="44.40468271876353" lon="10.804607483356124"><ele>716.0</ele><time>2026-04-12T09:47:55.999Z</time></trkpt><trkpt lat="44.40458697723641" lon="10.804708767691833"><ele>714.4</ele><time>2026-04-12T09:47:57.999Z</time></trkpt><trkpt lat="44.404474184155696" lon="10.804746040527686"><ele>712.8</ele><time>2026-04-12T09:47:59.999Z</time></trkpt><trkpt lat="44.40435150920946" lon="10.804804739857046"><ele>711.1999999999999</ele><time>2026-04-12T09:48:01.999Z</time></trkpt><trkpt lat="44.40427609090384" lon="10.804805825582163"><ele>709.5999999999999</ele><time>2026-04-12T09:48:02.999Z</time></trkpt><trkpt lat="44.404165297621866" lon="10.80480518868174"><ele>708.0</ele><time>2026-04-12T09:48:03.999Z</time></trkpt><trkpt lat="44.404029267441544" lon="10.804773088221149"><ele>708.0</ele><time>2026-04-12T09:48:04.999Z</time></trkpt><trkpt lat="44.40388141917179" lon="10.80471367845436"><ele>708.0</ele><time>2026-04-12T09:48:05.999Z</time></trkpt><trkpt lat="44.40373841341081" lon="10.80469398859798"><ele>708.0</ele><time>2026-04-12T09:48:06.999Z</time></trkpt><trkpt lat="44.403625888097835" lon="10.804645553765518"><ele>708.0</ele><time>2026-04-12T09:48:07.999Z</time></trkpt><trkpt lat="44.40352350822206" lon="10.804649314730115"><ele>707.25</ele><time>2026-04-12T09:48:08.999Z</time></trkpt><trkpt lat="44.403426780144144" lon="10.804637226873778"><ele>706.5</ele><time>2026-04-12T09:48:09.999Z</time></trkpt><trkpt lat="44.403303666381646" lon="10.804689316063644"><ele>705.75</ele><time>2026-04-12T09:48:11Z</time></trkpt><trkpt lat="44.403157440640435" lon="10.80473817400087"><ele>705.0</ele><time>2026-04-12T09:48:12Z</time></trkpt><trkpt lat="44.4030166762734" lon="10.804797443221528"><ele>705.4</ele><time>2026-04-12T09:48:13Z</time></trkpt><trkpt lat="44.402894780491316" lon="10.80484876821263"><ele>705.8</ele><time>2026-04-12T09:48:14Z</time></trkpt><trkpt lat="44.40281256313781" lon="10.80501211206133"><ele>706.2</ele><time>2026-04-12T09:48:15Z</time></trkpt><trkpt lat="44.402736370137376" lon="10.805087016578671"><ele>706.6</ele><time>2026-04-12T09:48:16Z</time></trkpt><trkpt lat="44.40268277595131" lon="10.805139704334673"><ele>707.0</ele><time>2026-04-12T09:48:17Z</time></trkpt><trkpt lat="44.402752965790896" lon="10.805426425249124"><ele>708.4000000000001</ele><time>2026-04-12T09:48:19Z</time></trkpt><trkpt lat="44.402755384512375" lon="10.805557854133085"><ele>709.8000000000001</ele><time>2026-04-12T09:48:20Z</time></trkpt><trkpt lat="44.402714725441" lon="10.805684996564523"><ele>711.2</ele><time>2026-04-12T09:48:21Z</time></trkpt><trkpt lat="44.402641956416474" lon="10.805790707306775"><ele>712.6</ele><time>2026-04-12T09:48:22Z</time></trkpt><trkpt lat="44.40254664798793" lon="10.805872806120295"><ele>714.0</ele><time>2026-04-12T09:48:23Z</time></trkpt><trkpt lat="44.40242553118534" lon="10.805981555570074"><ele>715.75</ele><time>2026-04-12T09:48:24Z</time></trkpt><trkpt lat="44.402288954333464" lon="10.806097735892914"><ele>717.5</ele><time>2026-04-12T09:48:25Z</time></trkpt><trkpt lat="44.40215385056914" lon="10.806215506861868"><ele>719.25</ele><time>2026-04-12T09:48:26Z</time></trkpt><trkpt lat="44.40208326187093" lon="10.806305788505435"><ele>721.0</ele><time>2026-04-12T09:48:27Z</time></trkpt><trkpt lat="44.402024236794226" lon="10.806349322957773"><ele>721.3333333333334</ele><time>2026-04-12T09:48:28Z</time></trkpt><trkpt lat="44.401954965066025" lon="10.806377553501141"><ele>721.6666666666667</ele><time>2026-04-12T09:48:30Z</time></trkpt><trkpt lat="44.40201569784258" lon="10.806527798302564"><ele>722.0</ele><time>2026-04-12T09:48:31Z</time></trkpt><trkpt lat="44.40204821371776" lon="10.806627017842452"><ele>722.3333333333334</ele><time>2026-04-12T09:48:32Z</time></trkpt><trkpt lat="44.4020827873335" lon="10.806733426585202"><ele>722.6666666666666</ele><time>2026-04-12T09:48:33Z</time></trkpt><trkpt lat="44.402119269662" lon="10.806841759559303"><ele>723.0</ele><time>2026-04-12T09:48:34Z</time></trkpt><trkpt lat="44.4021657778366" lon="10.806969206755719"><ele>723.8</ele><time>2026-04-12T09:48:35Z</time></trkpt><trkpt lat="44.40219327521015" lon="10.807070113829987"><ele>724.5999999999999</ele><time>2026-04-12T09:48:36Z</time></trkpt><trkpt lat="44.40220412287202" lon="10.807165368540051"><ele>725.4000000000001</ele><time>2026-04-12T09:48:37Z</time></trkpt><trkpt lat="44.40222993807847" lon="10.807258882616638"><ele>726.2</ele><time>2026-04-12T09:48:38Z</time></trkpt><trkpt lat="44.402236483715434" lon="10.807351597710507"><ele>727.0</ele><time>2026-04-12T09:48:40Z</time></trkpt><trkpt lat="44.402426378729594" lon="10.80733643389066"><ele>727.0</ele><time>2026-04-12T09:48:42Z</time></trkpt><trkpt lat="44.40250789368805" lon="10.807372181145354"><ele>727.0</ele><time>2026-04-12T09:48:44Z</time></trkpt><trkpt lat="44.40257806656155" lon="10.807398740119918"><ele>727.0</ele><time>2026-04-12T09:48:46Z</time></trkpt><trkpt lat="44.40268273678077" lon="10.807462552696608"><ele>727.0</ele><time>2026-04-12T09:48:48Z</time></trkpt><trkpt lat="44.40276288631597" lon="10.807591820004689"><ele>727.0</ele><time>2026-04-12T09:48:50Z</time></trkpt><trkpt lat="44.402808793741656" lon="10.807654090213811"><ele>726.5</ele><time>2026-04-12T09:48:51Z</time></trkpt><trkpt lat="44.40285623500879" lon="10.8077234450022"><ele>726.0</ele><time>2026-04-12T09:48:52Z</time></trkpt><trkpt lat="44.40290638715938" lon="10.807799850222397"><ele>725.5</ele><time>2026-04-12T09:48:53Z</time></trkpt><trkpt lat="44.4029493206182" lon="10.80787229221131"><ele>725.0</ele><time>2026-04-12T09:48:54Z</time></trkpt><trkpt lat="44.4030042291626" lon="10.807978599260306"><ele>724.5</ele><time>2026-04-12T09:48:55Z</time></trkpt><trkpt lat="44.403055070912934" lon="10.808090079820257"><ele>724.0</ele><time>2026-04-12T09:48:56Z</time></trkpt><trkpt lat="44.40308723799966" lon="10.808189864568899"><ele>723.6</ele><time>2026-04-12T09:48:57Z</time></trkpt><trkpt lat="44.40311399370937" lon="10.808347572232433"><ele>723.2</ele><time>2026-04-12T09:48:59Z</time></trkpt><trkpt lat="44.403107127489555" lon="10.808444535653642"><ele>722.8000000000001</ele><time>2026-04-12T09:49:00Z</time></trkpt><trkpt lat="44.403077545535076" lon="10.808539132950965"><ele>722.4000000000001</ele><time>2026-04-12T09:49:01Z</time></trkpt><trkpt lat="44.402993467111" lon="10.80865163033994"><ele>722.0</ele><time>2026-04-12T09:49:03Z</time></trkpt><trkpt lat="44.40293066463732" lon="10.808717113447837"><ele>722.0</ele><time>2026-04-12T09:49:04Z</time></trkpt><trkpt lat="44.4028843077957" lon="10.808799937504293"><ele>722.0</ele><time>2026-04-12T09:49:05Z</time></trkpt><trkpt lat="44.40286028411591" lon="10.808920673041145"><ele>722.0</ele><time>2026-04-12T09:49:08Z</time></trkpt><trkpt lat="44.402856151323206" lon="10.80901365803383"><ele>722.0</ele><time>2026-04-12T09:49:09Z</time></trkpt><trkpt lat="44.402877417566806" lon="10.809116822988916"><ele>722.0</ele><time>2026-04-12T09:49:10Z</time></trkpt><trkpt lat="44.4029366926091" lon="10.809264185223762"><ele>722.0</ele><time>2026-04-12T09:49:11Z</time></trkpt><trkpt lat="44.402994929199544" lon="10.809360931589145"><ele>719.1666666666666</ele><time>2026-04-12T09:49:12Z</time></trkpt><trkpt lat="44.403034977818294" lon="10.809457505034567"><ele>716.3333333333333</ele><time>2026-04-12T09:49:13Z</time></trkpt><trkpt lat="44.403055483428346" lon="10.809543043483725"><ele>713.5</ele><time>2026-04-12T09:49:14Z</time></trkpt><trkpt lat="44.40304491875872" lon="10.80969839072613"><ele>710.6666666666666</ele><time>2026-04-12T09:49:16Z</time></trkpt><trkpt lat="44.403032228981125" lon="10.809798559165841"><ele>707.8333333333334</ele><time>2026-04-12T09:49:17Z</time></trkpt><trkpt lat="44.40302921526784" lon="10.80990018916861"><ele>705.0</ele><time>2026-04-12T09:49:18Z</time></trkpt><trkpt lat="44.40301593022024" lon="10.809992566394612"><ele>708.6</ele><time>2026-04-12T09:49:19Z</time></trkpt><trkpt lat="44.402992561592576" lon="10.810098680706867"><ele>712.2</ele><time>2026-04-12T09:49:21Z</time></trkpt><trkpt lat="44.402976069887366" lon="10.810280227817898"><ele>715.8</ele><time>2026-04-12T09:49:22.999Z</time></trkpt><trkpt lat="44.40296435553644" lon="10.81046245598674"><ele>719.4</ele><time>2026-04-12T09:49:24.999Z</time></trkpt><trkpt lat="44.40296456594194" lon="10.810561299862467"><ele>723.0</ele><time>2026-04-12T09:49:25.999Z</time></trkpt><trkpt lat="44.402924403656904" lon="10.810672810296657"><ele>723.0</ele><time>2026-04-12T09:49:27.999Z</time></trkpt><trkpt lat="44.40287118124709" lon="10.810791598704009"><ele>723.0</ele><time>2026-04-12T09:49:29.999Z</time></trkpt><trkpt lat="44.402832110432506" lon="10.810943690271277"><ele>723.0</ele><time>2026-04-12T09:49:31.999Z</time></trkpt><trkpt lat="44.40279109231457" lon="10.811062789485835"><ele>723.0</ele><time>2026-04-12T09:49:33.999Z</time></trkpt><trkpt lat="44.402783363387" lon="10.811170359390392"><ele>723.0</ele><time>2026-04-12T09:49:35.999Z</time></trkpt><trkpt lat="44.40274631211196" lon="10.811287695089314"><ele>722.5999999999999</ele><time>2026-04-12T09:49:37.999Z</time></trkpt><trkpt lat="44.40270003758737" lon="10.81136127853594"><ele>722.1999999999999</ele><time>2026-04-12T09:49:38.999Z</time></trkpt><trkpt lat="44.40262483851069" lon="10.81149001197944"><ele>721.8</ele><time>2026-04-12T09:49:39.999Z</time></trkpt><trkpt lat="44.402559278338586" lon="10.811610639063199"><ele>721.4</ele><time>2026-04-12T09:49:40.999Z</time></trkpt><trkpt lat="44.402511525159944" lon="10.811694199335268"><ele>721.0</ele><time>2026-04-12T09:49:41.999Z</time></trkpt><trkpt lat="44.40242267233505" lon="10.811862152371601"><ele>721.5</ele><time>2026-04-12T09:49:43.999Z</time></trkpt><trkpt lat="44.402383695455434" lon="10.811935736495759"><ele>722.0</ele><time>2026-04-12T09:49:44.999Z</time></trkpt><trkpt lat="44.40233683533031" lon="10.812014325024544"><ele>722.5</ele><time>2026-04-12T09:49:46.999Z</time></trkpt><trkpt lat="44.402244374080745" lon="10.812040376278409"><ele>723.0</ele><time>2026-04-12T09:49:48.999Z</time></trkpt><trkpt lat="44.40217396797049" lon="10.812103641250168"><ele>723.5</ele><time>2026-04-12T09:49:50.999Z</time></trkpt><trkpt lat="44.40212688090671" lon="10.812196427155428"><ele>724.0</ele><time>2026-04-12T09:49:51.999Z</time></trkpt><trkpt lat="44.402046415085486" lon="10.812322001090692"><ele>724.0</ele><time>2026-04-12T09:49:52.999Z</time></trkpt><trkpt lat="44.401980780980885" lon="10.812369248189873"><ele>724.0</ele><time>2026-04-12T09:49:53.999Z</time></trkpt><trkpt lat="44.40185059631847" lon="10.812375662873633"><ele>724.0</ele><time>2026-04-12T09:49:55.999Z</time></trkpt><trkpt lat="44.40176329164408" lon="10.812369078225133"><ele>724.0</ele><time>2026-04-12T09:49:56.999Z</time></trkpt><trkpt lat="44.401638435089" lon="10.812332078596315"><ele>724.0</ele><time>2026-04-12T09:49:57.999Z</time></trkpt><trkpt lat="44.40153827644293" lon="10.812266685743465"><ele>724.0</ele><time>2026-04-12T09:49:58.999Z</time></trkpt><trkpt lat="44.401464750866495" lon="10.812233726027554"><ele>724.0</ele><time>2026-04-12T09:49:59.999Z</time></trkpt><trkpt lat="44.40133077202732" lon="10.812208234109857"><ele>724.0</ele><time>2026-04-12T09:50:01.999Z</time></trkpt><trkpt lat="44.401264893174556" lon="10.812172406842459"><ele>724.0</ele><time>2026-04-12T09:50:02.999Z</time></trkpt><trkpt lat="44.40118608950131" lon="10.81213984168839"><ele>724.0</ele><time>2026-04-12T09:50:03.999Z</time></trkpt><trkpt lat="44.4011098228186" lon="10.812091376465354"><ele>724.0</ele><time>2026-04-12T09:50:04.999Z</time></trkpt><trkpt lat="44.401018244507064" lon="10.812055411057264"><ele>723.8333333333334</ele><time>2026-04-12T09:50:06.999Z</time></trkpt><trkpt lat="44.4009375519045" lon="10.812055520695175"><ele>723.6666666666667</ele><time>2026-04-12T09:50:09.999Z</time></trkpt><trkpt lat="44.40085904610703" lon="10.812076732479309"><ele>723.5</ele><time>2026-04-12T09:50:11.999Z</time></trkpt><trkpt lat="44.400781673919575" lon="10.812085513895902"><ele>723.3333333333334</ele><time>2026-04-12T09:50:13.999Z</time></trkpt><trkpt lat="44.400686529859904" lon="10.812069318257729"><ele>723.1666666666666</ele><time>2026-04-12T09:50:15.999Z</time></trkpt><trkpt lat="44.40061415650975" lon="10.81208592933016"><ele>723.0</ele><time>2026-04-12T09:50:17Z</time></trkpt><trkpt lat="44.40048960589879" lon="10.812126815124655"><ele>724.8</ele><time>2026-04-12T09:50:19Z</time></trkpt><trkpt lat="44.40040846029798" lon="10.812134839753034"><ele>726.5999999999999</ele><time>2026-04-12T09:50:20Z</time></trkpt><trkpt lat="44.40034581680809" lon="10.812114473455019"><ele>728.4000000000001</ele><time>2026-04-12T09:50:22Z</time></trkpt><trkpt lat="44.400317043187144" lon="10.812210501305191"><ele>730.2</ele><time>2026-04-12T09:50:25Z</time></trkpt><trkpt lat="44.40024304397257" lon="10.812385973017093"><ele>732.0</ele><time>2026-04-12T09:50:28Z</time></trkpt><trkpt lat="44.400233331224165" lon="10.812547781287252"><ele>732.0</ele><time>2026-04-12T09:50:29Z</time></trkpt><trkpt lat="44.400230922128976" lon="10.812653717292392"><ele>732.0</ele><time>2026-04-12T09:50:30Z</time></trkpt><trkpt lat="44.40019965496569" lon="10.8127492328742"><ele>732.0</ele><time>2026-04-12T09:50:31Z</time></trkpt><trkpt lat="44.400157687707186" lon="10.81285892803015"><ele>732.0</ele><time>2026-04-12T09:50:32Z</time></trkpt><trkpt lat="44.40010070345447" lon="10.812970142394494"><ele>732.0</ele><time>2026-04-12T09:50:33Z</time></trkpt><trkpt lat="44.40000100357546" lon="10.813026168301093"><ele>732.0</ele><time>2026-04-12T09:50:35Z</time></trkpt><trkpt lat="44.400072608815805" lon="10.812932024786086"><ele>731.1666666666666</ele><time>2026-04-12T09:50:56Z</time></trkpt><trkpt lat="44.4000340514488" lon="10.813029084361192"><ele>730.3333333333334</ele><time>2026-04-12T09:51:02Z</time></trkpt><trkpt lat="44.39994886701517" lon="10.813039873265147"><ele>729.5</ele><time>2026-04-12T09:51:04Z</time></trkpt><trkpt lat="44.39990107804092" lon="10.813133081885008"><ele>728.6666666666667</ele><time>2026-04-12T09:51:06Z</time></trkpt><trkpt lat="44.39985630444175" lon="10.813250394142134"><ele>727.8333333333334</ele><time>2026-04-12T09:51:09Z</time></trkpt><trkpt lat="44.399817631822096" lon="10.813340639773747"><ele>727.0</ele><time>2026-04-12T09:51:10Z</time></trkpt><trkpt lat="44.39976370369242" lon="10.813411873865624"><ele>727.0</ele><time>2026-04-12T09:51:12Z</time></trkpt><trkpt lat="44.39986341549205" lon="10.813442032461891"><ele>727.0</ele><time>2026-04-12T09:51:15Z</time></trkpt><trkpt lat="44.3999549711677" lon="10.813451901325639"><ele>727.0</ele><time>2026-04-12T09:51:16Z</time></trkpt><trkpt lat="44.40008471696302" lon="10.813516564046715"><ele>727.0</ele><time>2026-04-12T09:51:17Z</time></trkpt><trkpt lat="44.40019128676034" lon="10.813638071827837"><ele>725.8333333333334</ele><time>2026-04-12T09:51:18Z</time></trkpt><trkpt lat="44.40029746714632" lon="10.813692150306604"><ele>724.6666666666667</ele><time>2026-04-12T09:51:20Z</time></trkpt><trkpt lat="44.40035406837475" lon="10.813754702732318"><ele>723.5</ele><time>2026-04-12T09:51:21Z</time></trkpt><trkpt lat="44.40041845195208" lon="10.813794337198363"><ele>722.3333333333334</ele><time>2026-04-12T09:51:22Z</time></trkpt><trkpt lat="44.400516295821866" lon="10.813849625724584"><ele>721.1666666666666</ele><time>2026-04-12T09:51:23Z</time></trkpt><trkpt lat="44.40059516643947" lon="10.813892567529694"><ele>720.0</ele><time>2026-04-12T09:51:24Z</time></trkpt><trkpt lat="44.400682924933186" lon="10.813940349986456"><ele>719.0</ele><time>2026-04-12T09:51:25Z</time></trkpt><trkpt lat="44.40077792170787" lon="10.813992074257218"><ele>718.0</ele><time>2026-04-12T09:51:26Z</time></trkpt><trkpt lat="44.4009810527576" lon="10.813760439991743"><ele>717.0</ele><time>2026-04-12T09:51:28Z</time></trkpt><trkpt lat="44.401075482588936" lon="10.813734886538688"><ele>717.0</ele><time>2026-04-12T09:51:28.999Z</time></trkpt><trkpt lat="44.401147171517756" lon="10.813725747649537"><ele>717.0</ele><time>2026-04-12T09:51:29.999Z</time></trkpt><trkpt lat="44.40123040757661" lon="10.81363497205287"><ele>717.0</ele><time>2026-04-12T09:51:31.999Z</time></trkpt><trkpt lat="44.401295960086976" lon="10.813572759032418"><ele>717.0</ele><time>2026-04-12T09:51:33.999Z</time></trkpt><trkpt lat="44.40132802599802" lon="10.81366633748362"><ele>717.0</ele><time>2026-04-12T09:51:38.999Z</time></trkpt><trkpt lat="44.401209342846485" lon="10.813736383879986"><ele>717.0</ele><time>2026-04-12T09:51:40.999Z</time></trkpt><trkpt lat="44.401105912452095" lon="10.813745601639209"><ele>717.0</ele><time>2026-04-12T09:51:41.999Z</time></trkpt><trkpt lat="44.40099971230475" lon="10.813763168850713"><ele>717.0</ele><time>2026-04-12T09:51:42.999Z</time></trkpt><trkpt lat="44.40091941857527" lon="10.813782174864604"><ele>717.0</ele><time>2026-04-12T09:51:43.999Z</time></trkpt><trkpt lat="44.40080450440108" lon="10.81379876485927"><ele>717.0</ele><time>2026-04-12T09:51:45.999Z</time></trkpt><trkpt lat="44.400691202003735" lon="10.813786172532483"><ele>717.0</ele><time>2026-04-12T09:51:46.999Z</time></trkpt><trkpt lat="44.40057710288301" lon="10.813783778597093"><ele>717.0</ele><time>2026-04-12T09:51:47.999Z</time></trkpt><trkpt lat="44.40049203852563" lon="10.8137854003976"><ele>717.0</ele><time>2026-04-12T09:51:48.999Z</time></trkpt><trkpt lat="44.40040925237213" lon="10.813757113235281"><ele>717.0</ele><time>2026-04-12T09:51:49.999Z</time></trkpt><trkpt lat="44.40031615551953" lon="10.81372158237833"><ele>717.0</ele><time>2026-04-12T09:51:50.999Z</time></trkpt><trkpt lat="44.40024580016605" lon="10.81362567366318"><ele>717.75</ele><time>2026-04-12T09:51:51.999Z</time></trkpt><trkpt lat="44.40015020564251" lon="10.813555344503554"><ele>718.5</ele><time>2026-04-12T09:51:52.999Z</time></trkpt><trkpt lat="44.40003107453369" lon="10.813468015873525"><ele>719.25</ele><time>2026-04-12T09:51:53.999Z</time></trkpt><trkpt lat="44.39991741103446" lon="10.813401847260714"><ele>720.0</ele><time>2026-04-12T09:51:54.999Z</time></trkpt><trkpt lat="44.39980732880781" lon="10.81338368385386"><ele>721.25</ele><time>2026-04-12T09:51:55.999Z</time></trkpt><trkpt lat="44.39970180731327" lon="10.81339332103828"><ele>722.5</ele><time>2026-04-12T09:51:56.999Z</time></trkpt><trkpt lat="44.39955864871765" lon="10.813447222539205"><ele>723.75</ele><time>2026-04-12T09:51:57.999Z</time></trkpt><trkpt lat="44.39938344256767" lon="10.813518970143297"><ele>725.0</ele><time>2026-04-12T09:51:58.999Z</time></trkpt><trkpt lat="44.39926086422106" lon="10.813541075009407"><ele>725.0</ele><time>2026-04-12T09:51:59.999Z</time></trkpt><trkpt lat="44.39916625292129" lon="10.813574320930023"><ele>725.0</ele><time>2026-04-12T09:52:00.999Z</time></trkpt><trkpt lat="44.398976333740684" lon="10.81364649062182"><ele>725.0</ele><time>2026-04-12T09:52:01.999Z</time></trkpt><trkpt lat="44.398841229514474" lon="10.813722903710298"><ele>725.0</ele><time>2026-04-12T09:52:02.999Z</time></trkpt><trkpt lat="44.39871369720574" lon="10.81377000947995"><ele>726.5</ele><time>2026-04-12T09:52:03.999Z</time></trkpt><trkpt lat="44.398581643641194" lon="10.813827912169852"><ele>728.0</ele><time>2026-04-12T09:52:04.999Z</time></trkpt><trkpt lat="44.39846367450031" lon="10.813888147952763"><ele>729.5</ele><time>2026-04-12T09:52:05.999Z</time></trkpt><trkpt lat="44.39835221771855" lon="10.813952973384353"><ele>731.0</ele><time>2026-04-12T09:52:06.999Z</time></trkpt><trkpt lat="44.39824703189287" lon="10.81401318166412"><ele>731.0</ele><time>2026-04-12T09:52:07.999Z</time></trkpt><trkpt lat="44.398146912951454" lon="10.814068156768105"><ele>731.0</ele><time>2026-04-12T09:52:08.999Z</time></trkpt><trkpt lat="44.39804975744566" lon="10.814117972862162"><ele>731.0</ele><time>2026-04-12T09:52:09.999Z</time></trkpt><trkpt lat="44.397964224085015" lon="10.814159595127304"><ele>731.0</ele><time>2026-04-12T09:52:10.999Z</time></trkpt><trkpt lat="44.397891902123476" lon="10.8141986646497"><ele>731.0</ele><time>2026-04-12T09:52:11.999Z</time></trkpt><trkpt lat="44.39782408907006" lon="10.814200202025587"><ele>731.0</ele><time>2026-04-12T09:52:12.999Z</time></trkpt><trkpt lat="44.39773242069902" lon="10.814229605986599"><ele>731.0</ele><time>2026-04-12T09:52:14.999Z</time></trkpt><trkpt lat="44.39776518256251" lon="10.814129985980584"><ele>731.0</ele><time>2026-04-12T09:52:34Z</time></trkpt><trkpt lat="44.3978232712077" lon="10.814037484945496"><ele>731.0</ele><time>2026-04-12T09:52:35Z</time></trkpt><trkpt lat="44.39790454895888" lon="10.813927248165141"><ele>731.0</ele><time>2026-04-12T09:52:36Z</time></trkpt><trkpt lat="44.39801284391623" lon="10.81376701528356"><ele>731.0</ele><time>2026-04-12T09:52:37Z</time></trkpt><trkpt lat="44.39813763413484" lon="10.813585046712754"><ele>735.3333333333333</ele><time>2026-04-12T09:52:38Z</time></trkpt><trkpt lat="44.39827382545356" lon="10.813396874005482"><ele>739.6666666666666</ele><time>2026-04-12T09:52:39Z</time></trkpt><trkpt lat="44.39841401079273" lon="10.813191154839336"><ele>744.0</ele><time>2026-04-12T09:52:40Z</time></trkpt><trkpt lat="44.39853813285751" lon="10.813020276488482"><ele>744.0</ele><time>2026-04-12T09:52:41Z</time></trkpt><trkpt lat="44.3986299157995" lon="10.812884229656591"><ele>744.0</ele><time>2026-04-12T09:52:42Z</time></trkpt><trkpt lat="44.39871860304342" lon="10.812749492853602"><ele>744.0</ele><time>2026-04-12T09:52:43Z</time></trkpt><trkpt lat="44.39877354282365" lon="10.812612013446634"><ele>744.0</ele><time>2026-04-12T09:52:44Z</time></trkpt><trkpt lat="44.39877903555334" lon="10.812471219260642"><ele>745.25</ele><time>2026-04-12T09:52:45Z</time></trkpt><trkpt lat="44.39875629218259" lon="10.812313975802768"><ele>746.5</ele><time>2026-04-12T09:52:46Z</time></trkpt><trkpt lat="44.39870475100985" lon="10.812131085878947"><ele>747.75</ele><time>2026-04-12T09:52:47Z</time></trkpt><trkpt lat="44.39861990480171" lon="10.8119430157952"><ele>749.0</ele><time>2026-04-12T09:52:48Z</time></trkpt><trkpt lat="44.398525012677794" lon="10.811763308785448"><ele>750.0</ele><time>2026-04-12T09:52:49Z</time></trkpt><trkpt lat="44.39840455725077" lon="10.811551825381178"><ele>751.0</ele><time>2026-04-12T09:52:50Z</time></trkpt><trkpt lat="44.398271330321805" lon="10.811364477037232"><ele>752.0</ele><time>2026-04-12T09:52:51Z</time></trkpt><trkpt lat="44.39814793148039" lon="10.811193233611975"><ele>752.0</ele><time>2026-04-12T09:52:52Z</time></trkpt><trkpt lat="44.398031154568564" lon="10.811048816417411"><ele>752.0</ele><time>2026-04-12T09:52:53Z</time></trkpt><trkpt lat="44.39789770731071" lon="10.810931907218878"><ele>752.0</ele><time>2026-04-12T09:52:54Z</time></trkpt><trkpt lat="44.39775273690605" lon="10.81085117868618"><ele>752.5</ele><time>2026-04-12T09:52:55Z</time></trkpt><trkpt lat="44.39762723670395" lon="10.810753597770672"><ele>753.0</ele><time>2026-04-12T09:52:56Z</time></trkpt><trkpt lat="44.39750471613046" lon="10.81067509769755"><ele>753.5</ele><time>2026-04-12T09:52:57Z</time></trkpt><trkpt lat="44.397424101210866" lon="10.810573018930581"><ele>754.0</ele><time>2026-04-12T09:52:58Z</time></trkpt><trkpt lat="44.39736546491055" lon="10.81043892170711"><ele>754.0</ele><time>2026-04-12T09:52:59Z</time></trkpt><trkpt lat="44.39731416803478" lon="10.810293727587615"><ele>754.0</ele><time>2026-04-12T09:53:00Z</time></trkpt><trkpt lat="44.397256374598676" lon="10.810180844977461"><ele>754.0</ele><time>2026-04-12T09:53:01Z</time></trkpt><trkpt lat="44.39722850349385" lon="10.81007312918373"><ele>754.0</ele><time>2026-04-12T09:53:02Z</time></trkpt><trkpt lat="44.3972250819038" lon="10.809974329843875"><ele>754.0</ele><time>2026-04-12T09:53:03Z</time></trkpt><trkpt lat="44.39709991814689" lon="10.809893879391218"><ele>754.4000000000001</ele><time>2026-04-12T09:53:06Z</time></trkpt><trkpt lat="44.39703237801431" lon="10.809936926603719"><ele>754.8</ele><time>2026-04-12T09:53:07Z</time></trkpt><trkpt lat="44.39694179023085" lon="10.80999656362467"><ele>755.2</ele><time>2026-04-12T09:53:08Z</time></trkpt><trkpt lat="44.396824502138585" lon="10.810069965453225"><ele>755.5999999999999</ele><time>2026-04-12T09:53:09Z</time></trkpt><trkpt lat="44.39669084165532" lon="10.810146828402571"><ele>756.0</ele><time>2026-04-12T09:53:10Z</time></trkpt><trkpt lat="44.39654289795365" lon="10.81020544472952"><ele>756.0</ele><time>2026-04-12T09:53:11Z</time></trkpt><trkpt lat="44.39642759520414" lon="10.81026931474422"><ele>756.0</ele><time>2026-04-12T09:53:12Z</time></trkpt><trkpt lat="44.39629331578923" lon="10.810299011783636"><ele>756.0</ele><time>2026-04-12T09:53:13Z</time></trkpt><trkpt lat="44.39617871755683" lon="10.810344439955406"><ele>756.0</ele><time>2026-04-12T09:53:14Z</time></trkpt><trkpt lat="44.39606775035463" lon="10.810423874855337"><ele>757.25</ele><time>2026-04-12T09:53:15Z</time></trkpt><trkpt lat="44.39595341647139" lon="10.810492259002363"><ele>758.5</ele><time>2026-04-12T09:53:16Z</time></trkpt><trkpt lat="44.39584701545596" lon="10.810563226594573"><ele>759.75</ele><time>2026-04-12T09:53:17Z</time></trkpt><trkpt lat="44.39575219249884" lon="10.810662827006844"><ele>761.0</ele><time>2026-04-12T09:53:18Z</time></trkpt><trkpt lat="44.39566172488921" lon="10.81074423193354"><ele>761.0</ele><time>2026-04-12T09:53:19Z</time></trkpt><trkpt lat="44.395600902982004" lon="10.810839685261724"><ele>761.0</ele><time>2026-04-12T09:53:20Z</time></trkpt><trkpt lat="44.39554680277444" lon="10.810887905920968"><ele>761.0</ele><time>2026-04-12T09:53:21Z</time></trkpt><trkpt lat="44.39546536295396" lon="10.810924323909559"><ele>761.0</ele><time>2026-04-12T09:53:22Z</time></trkpt><trkpt lat="44.395370294310304" lon="10.81097803825935"><ele>761.0</ele><time>2026-04-12T09:53:23Z</time></trkpt><trkpt lat="44.3952626287419" lon="10.811069614991153"><ele>761.5</ele><time>2026-04-12T09:53:24Z</time></trkpt><trkpt lat="44.39514822758199" lon="10.811135841747651"><ele>762.0</ele><time>2026-04-12T09:53:25Z</time></trkpt><trkpt lat="44.39504026398526" lon="10.81121591630408"><ele>762.5</ele><time>2026-04-12T09:53:26Z</time></trkpt><trkpt lat="44.394919695231934" lon="10.811268162585964"><ele>763.0</ele><time>2026-04-12T09:53:27Z</time></trkpt><trkpt lat="44.394823448698084" lon="10.81128846576138"><ele>763.0</ele><time>2026-04-12T09:53:29Z</time></trkpt><trkpt lat="44.39472170071421" lon="10.81132110191263"><ele>763.0</ele><time>2026-04-12T09:53:30Z</time></trkpt><trkpt lat="44.39462828961209" lon="10.811353560999313"><ele>763.0</ele><time>2026-04-12T09:53:31Z</time></trkpt><trkpt lat="44.39453968075899" lon="10.81138498688651"><ele>763.0</ele><time>2026-04-12T09:53:32Z</time></trkpt><trkpt lat="44.39444106930043" lon="10.811404619638859"><ele>763.0</ele><time>2026-04-12T09:53:32.999Z</time></trkpt><trkpt lat="44.39433985339044" lon="10.81141791851905"><ele>764.0</ele><time>2026-04-12T09:53:33.999Z</time></trkpt><trkpt lat="44.39425084907171" lon="10.811429612899886"><ele>765.0</ele><time>2026-04-12T09:53:34.999Z</time></trkpt><trkpt lat="44.3941562424601" lon="10.811442043368775"><ele>766.0</ele><time>2026-04-12T09:53:35.999Z</time></trkpt><trkpt lat="44.3940670234254" lon="10.81145747883999"><ele>767.0</ele><time>2026-04-12T09:53:36.999Z</time></trkpt><trkpt lat="44.39396666104817" lon="10.81147640014829"><ele>768.0</ele><time>2026-04-12T09:53:37.999Z</time></trkpt><trkpt lat="44.3938796755947" lon="10.81148157204234"><ele>767.5999999999999</ele><time>2026-04-12T09:53:38.999Z</time></trkpt><trkpt lat="44.3938002770186" lon="10.811479832415268"><ele>767.1999999999999</ele><time>2026-04-12T09:53:39.999Z</time></trkpt><trkpt lat="44.39372189810216" lon="10.811473767887058"><ele>766.8</ele><time>2026-04-12T09:53:40.999Z</time></trkpt><trkpt lat="44.39362585381022" lon="10.811463708879888"><ele>766.4</ele><time>2026-04-12T09:53:41.999Z</time></trkpt><trkpt lat="44.393492958869594" lon="10.811445904480632"><ele>766.0</ele><time>2026-04-12T09:53:42.999Z</time></trkpt><trkpt lat="44.39339488991231" lon="10.811423681774025"><ele>766.0</ele><time>2026-04-12T09:53:43.999Z</time></trkpt><trkpt lat="44.39332234839535" lon="10.811408186454145"><ele>766.0</ele><time>2026-04-12T09:53:44.999Z</time></trkpt><trkpt lat="44.39319066873756" lon="10.811401951011394"><ele>766.0</ele><time>2026-04-12T09:53:46.999Z</time></trkpt><trkpt lat="44.39310531862451" lon="10.811416599900209"><ele>766.0</ele><time>2026-04-12T09:53:47.999Z</time></trkpt><trkpt lat="44.392999497440144" lon="10.811447118432277"><ele>766.0</ele><time>2026-04-12T09:53:48.999Z</time></trkpt><trkpt lat="44.392873145308336" lon="10.811486398501152"><ele>766.4</ele><time>2026-04-12T09:53:49.999Z</time></trkpt><trkpt lat="44.39275207685306" lon="10.811522342135907"><ele>766.8</ele><time>2026-04-12T09:53:50.999Z</time></trkpt><trkpt lat="44.39265321887999" lon="10.811551490863998"><ele>767.1999999999999</ele><time>2026-04-12T09:53:51.999Z</time></trkpt><trkpt lat="44.39255826892693" lon="10.811579646965898"><ele>767.5999999999999</ele><time>2026-04-12T09:53:52.999Z</time></trkpt><trkpt lat="44.3924628053072" lon="10.811608995374486"><ele>768.0</ele><time>2026-04-12T09:53:53.999Z</time></trkpt><trkpt lat="44.392389358188595" lon="10.811654347435399"><ele>768.0</ele><time>2026-04-12T09:53:54.999Z</time></trkpt><trkpt lat="44.3922806723487" lon="10.811664988590726"><ele>768.0</ele><time>2026-04-12T09:53:56.999Z</time></trkpt><trkpt lat="44.392197400126896" lon="10.811691420161091"><ele>768.0</ele><time>2026-04-12T09:53:57.999Z</time></trkpt><trkpt lat="44.39208959083618" lon="10.811749204458472"><ele>768.0</ele><time>2026-04-12T09:53:58.999Z</time></trkpt><trkpt lat="44.391941643421326" lon="10.811774254976054"><ele>768.75</ele><time>2026-04-12T09:53:59.999Z</time></trkpt><trkpt lat="44.39179503017428" lon="10.811821730232833"><ele>769.5</ele><time>2026-04-12T09:54:00.999Z</time></trkpt><trkpt lat="44.39167414997624" lon="10.811860040687742"><ele>770.25</ele><time>2026-04-12T09:54:01.999Z</time></trkpt><trkpt lat="44.391578436526586" lon="10.811909746353749"><ele>771.0</ele><time>2026-04-12T09:54:02.999Z</time></trkpt><trkpt lat="44.39148127201929" lon="10.811917885788402"><ele>770.0</ele><time>2026-04-12T09:54:03.999Z</time></trkpt><trkpt lat="44.39139285928917" lon="10.811943318991245"><ele>769.0</ele><time>2026-04-12T09:54:04.999Z</time></trkpt><trkpt lat="44.39130946292739" lon="10.81196516958163"><ele>768.0</ele><time>2026-04-12T09:54:05.999Z</time></trkpt><trkpt lat="44.39123256909528" lon="10.81198521257883"><ele>767.0</ele><time>2026-04-12T09:54:06.999Z</time></trkpt><trkpt lat="44.39114734217383" lon="10.81200742766198"><ele>766.0</ele><time>2026-04-12T09:54:07.999Z</time></trkpt><trkpt lat="44.39108156016215" lon="10.812024258843504"><ele>765.0</ele><time>2026-04-12T09:54:08.999Z</time></trkpt><trkpt lat="44.3910183409528" lon="10.81204023795489"><ele>765.0</ele><time>2026-04-12T09:54:09.999Z</time></trkpt><trkpt lat="44.39093043258615" lon="10.812062457435248"><ele>765.0</ele><time>2026-04-12T09:54:10.999Z</time></trkpt><trkpt lat="44.390830333359524" lon="10.812089366647692"><ele>765.0</ele><time>2026-04-12T09:54:11.999Z</time></trkpt><trkpt lat="44.39075588975435" lon="10.812109812413144"><ele>765.0</ele><time>2026-04-12T09:54:12.999Z</time></trkpt><trkpt lat="44.390682962587604" lon="10.812132111149849"><ele>765.0</ele><time>2026-04-12T09:54:13.999Z</time></trkpt><trkpt lat="44.39061110204807" lon="10.812160865911874"><ele>765.0</ele><time>2026-04-12T09:54:14.999Z</time></trkpt><trkpt lat="44.39053462607221" lon="10.812186585889158"><ele>765.2</ele><time>2026-04-12T09:54:15.999Z</time></trkpt><trkpt lat="44.39045752057827" lon="10.812224610600135"><ele>765.4</ele><time>2026-04-12T09:54:16.999Z</time></trkpt><trkpt lat="44.390376827811956" lon="10.812263023641757"><ele>765.5999999999999</ele><time>2026-04-12T09:54:17.999Z</time></trkpt><trkpt lat="44.39026485043783" lon="10.812300737225874"><ele>765.8</ele><time>2026-04-12T09:54:18.999Z</time></trkpt><trkpt lat="44.39017556612525" lon="10.812343036521678"><ele>766.0</ele><time>2026-04-12T09:54:19.999Z</time></trkpt><trkpt lat="44.39010585579085" lon="10.812382314197245"><ele>766.0</ele><time>2026-04-12T09:54:20.999Z</time></trkpt><trkpt lat="44.390045003463904" lon="10.812415952394176"><ele>766.0</ele><time>2026-04-12T09:54:21.999Z</time></trkpt><trkpt lat="44.389951192146796" lon="10.812452610058745"><ele>766.0</ele><time>2026-04-12T09:54:23.999Z</time></trkpt><trkpt lat="44.38986268678991" lon="10.812405974800544"><ele>766.0</ele><time>2026-04-12T09:54:25.999Z</time></trkpt><trkpt lat="44.38978142700062" lon="10.812371314380387"><ele>766.0</ele><time>2026-04-12T09:54:26.999Z</time></trkpt><trkpt lat="44.38968167559539" lon="10.81232307499965"><ele>766.0</ele><time>2026-04-12T09:54:29Z</time></trkpt><trkpt lat="44.38954728605508" lon="10.81239564875643"><ele>766.0</ele><time>2026-04-12T09:54:42Z</time></trkpt><trkpt lat="44.389467742592345" lon="10.812476297285228"><ele>766.0</ele><time>2026-04-12T09:54:43Z</time></trkpt><trkpt lat="44.389387296023955" lon="10.81257430787629"><ele>766.0</ele><time>2026-04-12T09:54:44Z</time></trkpt><trkpt lat="44.38930439587847" lon="10.812678781774881"><ele>766.0</ele><time>2026-04-12T09:54:45Z</time></trkpt><trkpt lat="44.38920386639246" lon="10.812793358328243"><ele>766.0</ele><time>2026-04-12T09:54:46Z</time></trkpt><trkpt lat="44.389065518453286" lon="10.812943109355407"><ele>766.0</ele><time>2026-04-12T09:54:47Z</time></trkpt><trkpt lat="44.38890538791386" lon="10.813103940449938"><ele>766.0</ele><time>2026-04-12T09:54:48Z</time></trkpt><trkpt lat="44.388733873009116" lon="10.813271962054149"><ele>766.0</ele><time>2026-04-12T09:54:49Z</time></trkpt><trkpt lat="44.38855693346137" lon="10.813444611343488"><ele>764.6666666666667</ele><time>2026-04-12T09:54:50Z</time></trkpt><trkpt lat="44.38838913281807" lon="10.813597021378946"><ele>763.3333333333334</ele><time>2026-04-12T09:54:51Z</time></trkpt><trkpt lat="44.388218418527586" lon="10.813750434297322"><ele>762.0</ele><time>2026-04-12T09:54:52Z</time></trkpt><trkpt lat="44.38806360099434" lon="10.813893506891976"><ele>763.0</ele><time>2026-04-12T09:54:53Z</time></trkpt><trkpt lat="44.387941976804086" lon="10.814007384576804"><ele>764.0</ele><time>2026-04-12T09:54:54Z</time></trkpt><trkpt lat="44.387798572370386" lon="10.814135103366185"><ele>765.0</ele><time>2026-04-12T09:54:55Z</time></trkpt><trkpt lat="44.38764433654743" lon="10.814272495089579"><ele>766.0</ele><time>2026-04-12T09:54:56Z</time></trkpt><trkpt lat="44.3874973553045" lon="10.814404364927466"><ele>767.0</ele><time>2026-04-12T09:54:57Z</time></trkpt><trkpt lat="44.387388944199365" lon="10.814506098259507"><ele>768.0</ele><time>2026-04-12T09:54:58Z</time></trkpt><trkpt lat="44.3872574380786" lon="10.81463121526004"><ele>766.8</ele><time>2026-04-12T09:54:59Z</time></trkpt><trkpt lat="44.38714428023546" lon="10.814742948654951"><ele>765.5999999999999</ele><time>2026-04-12T09:55:00Z</time></trkpt><trkpt lat="44.387045028721346" lon="10.81483682559872"><ele>764.4000000000001</ele><time>2026-04-12T09:55:01Z</time></trkpt><trkpt lat="44.386959594069715" lon="10.814915576508206"><ele>763.2</ele><time>2026-04-12T09:55:02Z</time></trkpt><trkpt lat="44.38689295973907" lon="10.814967330269411"><ele>762.0</ele><time>2026-04-12T09:55:03Z</time></trkpt><trkpt lat="44.38674307110443" lon="10.814949832955714"><ele>762.0</ele><time>2026-04-12T09:55:05Z</time></trkpt><trkpt lat="44.38664318592865" lon="10.814943188650533"><ele>762.0</ele><time>2026-04-12T09:55:06Z</time></trkpt><trkpt lat="44.38653195485598" lon="10.8149291262276"><ele>762.0</ele><time>2026-04-12T09:55:07Z</time></trkpt><trkpt lat="44.38643229144286" lon="10.814920488318242"><ele>762.0</ele><time>2026-04-12T09:55:08Z</time></trkpt><trkpt lat="44.38631942930133" lon="10.814910304111521"><ele>762.0</ele><time>2026-04-12T09:55:09Z</time></trkpt><trkpt lat="44.38621000599284" lon="10.814896034367836"><ele>761.6</ele><time>2026-04-12T09:55:10Z</time></trkpt><trkpt lat="44.38610788837663" lon="10.814859509933596"><ele>761.2</ele><time>2026-04-12T09:55:11Z</time></trkpt><trkpt lat="44.3860240221596" lon="10.814816548254376"><ele>760.8</ele><time>2026-04-12T09:55:12Z</time></trkpt><trkpt lat="44.38595297837491" lon="10.814782272523066"><ele>760.4</ele><time>2026-04-12T09:55:13Z</time></trkpt><trkpt lat="44.385870406917725" lon="10.814731088007102"><ele>760.0</ele><time>2026-04-12T09:55:14Z</time></trkpt><trkpt lat="44.385793057423584" lon="10.814649645750814"><ele>760.0</ele><time>2026-04-12T09:55:15Z</time></trkpt><trkpt lat="44.38570811503218" lon="10.814547356934954"><ele>760.0</ele><time>2026-04-12T09:55:16Z</time></trkpt><trkpt lat="44.3856507045629" lon="10.814443284633374"><ele>760.0</ele><time>2026-04-12T09:55:17Z</time></trkpt><trkpt lat="44.38559006456489" lon="10.814313700079449"><ele>760.0</ele><time>2026-04-12T09:55:18Z</time></trkpt><trkpt lat="44.38553967871106" lon="10.814195406365986"><ele>760.0</ele><time>2026-04-12T09:55:19Z</time></trkpt><trkpt lat="44.38549455230556" lon="10.814083330233164"><ele>759.1666666666667</ele><time>2026-04-12T09:55:20Z</time></trkpt><trkpt lat="44.385450462501794" lon="10.81400050687403"><ele>758.3333333333334</ele><time>2026-04-12T09:55:21Z</time></trkpt><trkpt lat="44.385410042514714" lon="10.81386683206604"><ele>757.5</ele><time>2026-04-12T09:55:22Z</time></trkpt><trkpt lat="44.385359855162314" lon="10.813766700260858"><ele>756.6666666666666</ele><time>2026-04-12T09:55:23Z</time></trkpt><trkpt lat="44.38531124013283" lon="10.813686132150583"><ele>755.8333333333333</ele><time>2026-04-12T09:55:24Z</time></trkpt><trkpt lat="44.38526537765082" lon="10.813622565353315"><ele>755.0</ele><time>2026-04-12T09:55:25Z</time></trkpt><trkpt lat="44.385134639083944" lon="10.813488141631066"><ele>755.0</ele><time>2026-04-12T09:55:26Z</time></trkpt><trkpt lat="44.38506097490108" lon="10.813425458537443"><ele>755.0</ele><time>2026-04-12T09:55:27Z</time></trkpt><trkpt lat="44.38498333329948" lon="10.813365457586213"><ele>755.0</ele><time>2026-04-12T09:55:28Z</time></trkpt><trkpt lat="44.38490646149128" lon="10.813310106717587"><ele>755.0</ele><time>2026-04-12T09:55:29Z</time></trkpt><trkpt lat="44.38482535173797" lon="10.813253878507874"><ele>755.0</ele><time>2026-04-12T09:55:30Z</time></trkpt><trkpt lat="44.38474012255198" lon="10.813195492960599"><ele>755.0</ele><time>2026-04-12T09:55:31Z</time></trkpt><trkpt lat="44.38466538014611" lon="10.81314522912855"><ele>755.6666666666666</ele><time>2026-04-12T09:55:32Z</time></trkpt><trkpt lat="44.38458677765051" lon="10.813092458135689"><ele>756.3333333333333</ele><time>2026-04-12T09:55:33Z</time></trkpt><trkpt lat="44.3845071481164" lon="10.81304177961845"><ele>757.0</ele><time>2026-04-12T09:55:34Z</time></trkpt><trkpt lat="44.38443669643164" lon="10.812999777115166"><ele>757.6666666666666</ele><time>2026-04-12T09:55:35Z</time></trkpt><trkpt lat="44.38434605099042" lon="10.812970812253221"><ele>758.3333333333334</ele><time>2026-04-12T09:55:36Z</time></trkpt><trkpt lat="44.384272344991984" lon="10.812904420811924"><ele>759.0</ele><time>2026-04-12T09:55:37Z</time></trkpt><trkpt lat="44.38419103216401" lon="10.812857517745694"><ele>759.0</ele><time>2026-04-12T09:55:37.999Z</time></trkpt><trkpt lat="44.38411915020673" lon="10.812815426918887"><ele>759.0</ele><time>2026-04-12T09:55:38.999Z</time></trkpt><trkpt lat="44.38405184444594" lon="10.812774633776277"><ele>759.0</ele><time>2026-04-12T09:55:39.999Z</time></trkpt><trkpt lat="44.38391876927982" lon="10.81268900211699"><ele>759.0</ele><time>2026-04-12T09:55:41.999Z</time></trkpt><trkpt lat="44.383841644952895" lon="10.812632767707935"><ele>759.0</ele><time>2026-04-12T09:55:42.999Z</time></trkpt><trkpt lat="44.38374924526321" lon="10.812560310390209"><ele>760.0</ele><time>2026-04-12T09:55:43.999Z</time></trkpt><trkpt lat="44.38365696836561" lon="10.81248402993396"><ele>761.0</ele><time>2026-04-12T09:55:44.999Z</time></trkpt><trkpt lat="44.38358056413196" lon="10.812418852432414"><ele>762.0</ele><time>2026-04-12T09:55:45.999Z</time></trkpt><trkpt lat="44.383498383631824" lon="10.812362832341835"><ele>763.0</ele><time>2026-04-12T09:55:46.999Z</time></trkpt><trkpt lat="44.383447253086054" lon="10.812287253029034"><ele>764.0</ele><time>2026-04-12T09:55:47.999Z</time></trkpt><trkpt lat="44.38335891128667" lon="10.812204821921695"><ele>764.0</ele><time>2026-04-12T09:55:48.999Z</time></trkpt><trkpt lat="44.38324662868251" lon="10.812109972887722"><ele>764.0</ele><time>2026-04-12T09:55:49.999Z</time></trkpt><trkpt lat="44.38315263997986" lon="10.812057058377354"><ele>764.0</ele><time>2026-04-12T09:55:50.999Z</time></trkpt><trkpt lat="44.38304010821336" lon="10.811981814111325"><ele>764.0</ele><time>2026-04-12T09:55:51.999Z</time></trkpt><trkpt lat="44.38293806414665" lon="10.811870343747481"><ele>760.6</ele><time>2026-04-12T09:55:52.999Z</time></trkpt><trkpt lat="44.38284113075828" lon="10.811811666085687"><ele>757.2</ele><time>2026-04-12T09:55:53.999Z</time></trkpt><trkpt lat="44.382754653018864" lon="10.811708256877402"><ele>753.8000000000001</ele><time>2026-04-12T09:55:54.999Z</time></trkpt><trkpt lat="44.382660434203736" lon="10.811633902599063"><ele>750.4000000000001</ele><time>2026-04-12T09:55:55.999Z</time></trkpt><trkpt lat="44.382559019823695" lon="10.811601223154216"><ele>747.0</ele><time>2026-04-12T09:55:56.999Z</time></trkpt><trkpt lat="44.382476592891216" lon="10.811556071760561"><ele>747.0</ele><time>2026-04-12T09:55:57.999Z</time></trkpt><trkpt lat="44.38237479168495" lon="10.811550519553714"><ele>747.0</ele><time>2026-04-12T09:55:58.999Z</time></trkpt><trkpt lat="44.38229731423433" lon="10.811555508037342"><ele>747.0</ele><time>2026-04-12T09:55:59.999Z</time></trkpt><trkpt lat="44.38220317375777" lon="10.811577322459504"><ele>747.0</ele><time>2026-04-12T09:56:00.999Z</time></trkpt><trkpt lat="44.3821395358158" lon="10.811598245006353"><ele>747.0</ele><time>2026-04-12T09:56:01.999Z</time></trkpt><trkpt lat="44.382023816565216" lon="10.811649627596692"><ele>745.2</ele><time>2026-04-12T09:56:02.999Z</time></trkpt><trkpt lat="44.381936679622434" lon="10.811665793059383"><ele>743.4000000000001</ele><time>2026-04-12T09:56:03.999Z</time></trkpt><trkpt lat="44.381854253351364" lon="10.811650920929303"><ele>741.5999999999999</ele><time>2026-04-12T09:56:04.999Z</time></trkpt><trkpt lat="44.38179036571397" lon="10.811556897863133"><ele>739.8</ele><time>2026-04-12T09:56:05.999Z</time></trkpt><trkpt lat="44.3816763301818" lon="10.811511783155595"><ele>738.0</ele><time>2026-04-12T09:56:06.999Z</time></trkpt><trkpt lat="44.381554278362565" lon="10.811432046430822"><ele>738.0</ele><time>2026-04-12T09:56:07.999Z</time></trkpt><trkpt lat="44.38145575767597" lon="10.81137353027492"><ele>738.0</ele><time>2026-04-12T09:56:08.999Z</time></trkpt><trkpt lat="44.381363463887055" lon="10.811289845384263"><ele>738.0</ele><time>2026-04-12T09:56:09.999Z</time></trkpt><trkpt lat="44.381256930428826" lon="10.811242083290113"><ele>738.0</ele><time>2026-04-12T09:56:10.999Z</time></trkpt><trkpt lat="44.38116121713353" lon="10.811186495966938"><ele>738.0</ele><time>2026-04-12T09:56:11.999Z</time></trkpt><trkpt lat="44.38107620780842" lon="10.811160057763828"><ele>736.25</ele><time>2026-04-12T09:56:12.999Z</time></trkpt><trkpt lat="44.38099102458037" lon="10.811172127976691"><ele>734.5</ele><time>2026-04-12T09:56:13.999Z</time></trkpt><trkpt lat="44.38086670430764" lon="10.811173864418361"><ele>732.75</ele><time>2026-04-12T09:56:14.999Z</time></trkpt><trkpt lat="44.38072037091841" lon="10.811173352488382"><ele>731.0</ele><time>2026-04-12T09:56:15.999Z</time></trkpt><trkpt lat="44.38059711370387" lon="10.811170397113726"><ele>729.25</ele><time>2026-04-12T09:56:16.999Z</time></trkpt><trkpt lat="44.38047827917162" lon="10.81114165473443"><ele>727.5</ele><time>2026-04-12T09:56:17.999Z</time></trkpt><trkpt lat="44.380352026802804" lon="10.811130668628781"><ele>725.75</ele><time>2026-04-12T09:56:18.999Z</time></trkpt><trkpt lat="44.380236628284166" lon="10.811136722632003"><ele>724.0</ele><time>2026-04-12T09:56:19.999Z</time></trkpt><trkpt lat="44.38013732144638" lon="10.811115413016624"><ele>724.0</ele><time>2026-04-12T09:56:20.999Z</time></trkpt><trkpt lat="44.38002921835371" lon="10.811094090522221"><ele>724.0</ele><time>2026-04-12T09:56:21.999Z</time></trkpt><trkpt lat="44.37993427878843" lon="10.81106763317683"><ele>724.0</ele><time>2026-04-12T09:56:22.999Z</time></trkpt><trkpt lat="44.37983176840505" lon="10.811041608009935"><ele>724.0</ele><time>2026-04-12T09:56:23.999Z</time></trkpt><trkpt lat="44.37971992008198" lon="10.81101310843528"><ele>724.0</ele><time>2026-04-12T09:56:24.999Z</time></trkpt><trkpt lat="44.37960602479621" lon="10.810982147711085"><ele>724.75</ele><time>2026-04-12T09:56:25.999Z</time></trkpt><trkpt lat="44.37947995403319" lon="10.810919075719212"><ele>725.5</ele><time>2026-04-12T09:56:26.999Z</time></trkpt><trkpt lat="44.37937758942381" lon="10.81087758253699"><ele>726.25</ele><time>2026-04-12T09:56:27.999Z</time></trkpt><trkpt lat="44.3792826559307" lon="10.810833821618246"><ele>727.0</ele><time>2026-04-12T09:56:28.999Z</time></trkpt><trkpt lat="44.37917142149779" lon="10.810779855363258"><ele>727.0</ele><time>2026-04-12T09:56:29.999Z</time></trkpt><trkpt lat="44.37906699302505" lon="10.810729895817333"><ele>727.0</ele><time>2026-04-12T09:56:30.999Z</time></trkpt><trkpt lat="44.3789655442724" lon="10.810702521131859"><ele>727.0</ele><time>2026-04-12T09:56:31.999Z</time></trkpt><trkpt lat="44.378858071776854" lon="10.810731873749974"><ele>727.0</ele><time>2026-04-12T09:56:32.999Z</time></trkpt><trkpt lat="44.378746019836456" lon="10.810680398879636"><ele>727.0</ele><time>2026-04-12T09:56:33.999Z</time></trkpt><trkpt lat="44.37863233920312" lon="10.810562403280956"><ele>727.25</ele><time>2026-04-12T09:56:35Z</time></trkpt><trkpt lat="44.37850747833909" lon="10.810446224819932"><ele>727.5</ele><time>2026-04-12T09:56:36Z</time></trkpt><trkpt lat="44.37838016518724" lon="10.81033465898495"><ele>727.75</ele><time>2026-04-12T09:56:37Z</time></trkpt><trkpt lat="44.37829730868799" lon="10.810187127517262"><ele>728.0</ele><time>2026-04-12T09:56:38Z</time></trkpt><trkpt lat="44.378203672726485" lon="10.810073564321756"><ele>728.0</ele><time>2026-04-12T09:56:39Z</time></trkpt><trkpt lat="44.37811824104482" lon="10.809940377128202"><ele>728.0</ele><time>2026-04-12T09:56:40Z</time></trkpt><trkpt lat="44.378041774609066" lon="10.809826455221568"><ele>728.0</ele><time>2026-04-12T09:56:41Z</time></trkpt><trkpt lat="44.37795507161173" lon="10.809724180971097"><ele>728.0</ele><time>2026-04-12T09:56:42Z</time></trkpt><trkpt lat="44.37785247706108" lon="10.809645358060598"><ele>729.0</ele><time>2026-04-12T09:56:43Z</time></trkpt><trkpt lat="44.377736892876705" lon="10.80956734121392"><ele>730.0</ele><time>2026-04-12T09:56:44Z</time></trkpt><trkpt lat="44.37762253996373" lon="10.809498824006395"><ele>731.0</ele><time>2026-04-12T09:56:45Z</time></trkpt><trkpt lat="44.377511835997495" lon="10.809452985292761"><ele>732.0</ele><time>2026-04-12T09:56:46Z</time></trkpt><trkpt lat="44.377414265353345" lon="10.809411806571653"><ele>732.0</ele><time>2026-04-12T09:56:47Z</time></trkpt><trkpt lat="44.37732694868533" lon="10.809371357679838"><ele>732.0</ele><time>2026-04-12T09:56:48Z</time></trkpt><trkpt lat="44.3772203386972" lon="10.809314424705232"><ele>732.0</ele><time>2026-04-12T09:56:49Z</time></trkpt><trkpt lat="44.377127785702335" lon="10.809250858573144"><ele>732.0</ele><time>2026-04-12T09:56:50Z</time></trkpt><trkpt lat="44.37705662221463" lon="10.809189028093517"><ele>732.0</ele><time>2026-04-12T09:56:51Z</time></trkpt><trkpt lat="44.376953979325435" lon="10.809100941645603"><ele>731.4000000000001</ele><time>2026-04-12T09:56:53Z</time></trkpt><trkpt lat="44.37687980437366" lon="10.809224413606923"><ele>730.8000000000001</ele><time>2026-04-12T09:56:55Z</time></trkpt><trkpt lat="44.376872653093976" lon="10.809315485489092"><ele>730.2</ele><time>2026-04-12T09:56:56Z</time></trkpt><trkpt lat="44.37686688927944" lon="10.809445456896267"><ele>729.6</ele><time>2026-04-12T09:56:57Z</time></trkpt><trkpt lat="44.37687138909693" lon="10.809626286077997"><ele>729.0</ele><time>2026-04-12T09:56:58Z</time></trkpt><trkpt lat="44.37687795600998" lon="10.809755860401209"><ele>729.0</ele><time>2026-04-12T09:56:59Z</time></trkpt><trkpt lat="44.37687716951459" lon="10.809848827107068"><ele>729.0</ele><time>2026-04-12T09:57:00Z</time></trkpt><trkpt lat="44.37686865703627" lon="10.809981126229847"><ele>729.0</ele><time>2026-04-12T09:57:01Z</time></trkpt><trkpt lat="44.37685579785094" lon="10.81014188406994"><ele>729.0</ele><time>2026-04-12T09:57:02Z</time></trkpt><trkpt lat="44.37684462408222" lon="10.8102309716127"><ele>729.0</ele><time>2026-04-12T09:57:03Z</time></trkpt><trkpt lat="44.376840178433234" lon="10.81033146240388"><ele>729.0</ele><time>2026-04-12T09:57:04Z</time></trkpt><trkpt lat="44.37683868324783" lon="10.810474067380751"><ele>727.8333333333334</ele><time>2026-04-12T09:57:06Z</time></trkpt><trkpt lat="44.37687214076908" lon="10.810574697121396"><ele>726.6666666666666</ele><time>2026-04-12T09:57:08Z</time></trkpt><trkpt lat="44.3769075265967" lon="10.810650516572823"><ele>725.5</ele><time>2026-04-12T09:57:09Z</time></trkpt><trkpt lat="44.37691680760277" lon="10.810743355771791"><ele>724.3333333333333</ele><time>2026-04-12T09:57:10Z</time></trkpt><trkpt lat="44.37687353216647" lon="10.810877100347861"><ele>723.1666666666666</ele><time>2026-04-12T09:57:11Z</time></trkpt><trkpt lat="44.37682177669657" lon="10.811011958953467"><ele>722.0</ele><time>2026-04-12T09:57:12Z</time></trkpt><trkpt lat="44.37678679961914" lon="10.811148663088222"><ele>721.0</ele><time>2026-04-12T09:57:13Z</time></trkpt><trkpt lat="44.376754501409025" lon="10.811264725078665"><ele>720.0</ele><time>2026-04-12T09:57:14Z</time></trkpt><trkpt lat="44.37672073300065" lon="10.811415176141352"><ele>719.0</ele><time>2026-04-12T09:57:15Z</time></trkpt><trkpt lat="44.37668695089281" lon="10.811549135895552"><ele>718.0</ele><time>2026-04-12T09:57:16Z</time></trkpt><trkpt lat="44.37665039290331" lon="10.81167283436612"><ele>717.0</ele><time>2026-04-12T09:57:17Z</time></trkpt><trkpt lat="44.37660683294957" lon="10.811808881309153"><ele>715.5</ele><time>2026-04-12T09:57:18Z</time></trkpt><trkpt lat="44.376567191615095" lon="10.8119223483641"><ele>714.0</ele><time>2026-04-12T09:57:19Z</time></trkpt><trkpt lat="44.37653303598692" lon="10.812025523624694"><ele>712.5</ele><time>2026-04-12T09:57:20Z</time></trkpt><trkpt lat="44.376497692342056" lon="10.81212545071461"><ele>711.0</ele><time>2026-04-12T09:57:21Z</time></trkpt><trkpt lat="44.37645511473257" lon="10.812197587329656"><ele>709.5</ele><time>2026-04-12T09:57:22Z</time></trkpt><trkpt lat="44.37640569644256" lon="10.81229348414342"><ele>708.0</ele><time>2026-04-12T09:57:23Z</time></trkpt><trkpt lat="44.37636796837612" lon="10.812374914997696"><ele>707.5999999999999</ele><time>2026-04-12T09:57:24Z</time></trkpt><trkpt lat="44.37633903814769" lon="10.812472742897317"><ele>707.1999999999999</ele><time>2026-04-12T09:57:25Z</time></trkpt><trkpt lat="44.376325727263136" lon="10.812563288055834"><ele>706.8</ele><time>2026-04-12T09:57:26Z</time></trkpt><trkpt lat="44.37631640095234" lon="10.812675926997299"><ele>706.4</ele><time>2026-04-12T09:57:27Z</time></trkpt><trkpt lat="44.376292459566564" lon="10.812864125850119"><ele>706.0</ele><time>2026-04-12T09:57:29Z</time></trkpt><trkpt lat="44.37626069883546" lon="10.813021856001098"><ele>705.1999999999999</ele><time>2026-04-12T09:57:31Z</time></trkpt><trkpt lat="44.37620886976235" lon="10.813171685073506"><ele>704.4</ele><time>2026-04-12T09:57:33Z</time></trkpt><trkpt lat="44.376096008983964" lon="10.813286267522482"><ele>703.6</ele><time>2026-04-12T09:57:35Z</time></trkpt><trkpt lat="44.37601856642156" lon="10.813333896211878"><ele>702.8</ele><time>2026-04-12T09:57:36Z</time></trkpt><trkpt lat="44.37595528334053" lon="10.813376790293383"><ele>702.0</ele><time>2026-04-12T09:57:37Z</time></trkpt><trkpt lat="44.37587893069038" lon="10.81344878813889"><ele>702.0</ele><time>2026-04-12T09:57:38Z</time></trkpt><trkpt lat="44.37581095797887" lon="10.813513786182131"><ele>702.0</ele><time>2026-04-12T09:57:39Z</time></trkpt><trkpt lat="44.375717311385124" lon="10.813557973309338"><ele>702.0</ele><time>2026-04-12T09:57:39.999Z</time></trkpt><trkpt lat="44.37559369932013" lon="10.813674161079902"><ele>702.0</ele><time>2026-04-12T09:57:41.999Z</time></trkpt><trkpt lat="44.375523308676975" lon="10.813719754252155"><ele>702.0</ele><time>2026-04-12T09:57:42.999Z</time></trkpt><trkpt lat="44.375418052896116" lon="10.813751005989358"><ele>701.4000000000001</ele><time>2026-04-12T09:57:44.999Z</time></trkpt><trkpt lat="44.375300019712896" lon="10.81373099280362"><ele>700.8000000000001</ele><time>2026-04-12T09:57:46.999Z</time></trkpt><trkpt lat="44.3752220127136" lon="10.813685783327319"><ele>700.2</ele><time>2026-04-12T09:57:47.999Z</time></trkpt><trkpt lat="44.37515910155102" lon="10.813638261448144"><ele>699.6</ele><time>2026-04-12T09:57:48.999Z</time></trkpt><trkpt lat="44.37502934658869" lon="10.813591054777842"><ele>699.0</ele><time>2026-04-12T09:57:50.999Z</time></trkpt><trkpt lat="44.374966506958266" lon="10.813582679381616"><ele>699.0</ele><time>2026-04-12T09:57:51.999Z</time></trkpt><trkpt lat="44.37489669047934" lon="10.813584207788937"><ele>699.0</ele><time>2026-04-12T09:57:52.999Z</time></trkpt><trkpt lat="44.37483108523644" lon="10.813639522800392"><ele>699.0</ele><time>2026-04-12T09:57:53.999Z</time></trkpt><trkpt lat="44.37476511523392" lon="10.813707233361047"><ele>699.0</ele><time>2026-04-12T09:57:54.999Z</time></trkpt><trkpt lat="44.374659923367346" lon="10.81381344403515"><ele>699.0</ele><time>2026-04-12T09:57:56.999Z</time></trkpt><trkpt lat="44.37457096903048" lon="10.81389263360307"><ele>700.0</ele><time>2026-04-12T09:57:59.999Z</time></trkpt><trkpt lat="44.374467783890154" lon="10.81395136738158"><ele>701.0</ele><time>2026-04-12T09:58:01.999Z</time></trkpt><trkpt lat="44.374392776459885" lon="10.813981049795961"><ele>702.0</ele><time>2026-04-12T09:58:02.999Z</time></trkpt><trkpt lat="44.374234644264966" lon="10.814020238363874"><ele>703.0</ele><time>2026-04-12T09:58:04.999Z</time></trkpt><trkpt lat="44.37412885115719" lon="10.814048879207368"><ele>703.0</ele><time>2026-04-12T09:58:05.999Z</time></trkpt><trkpt lat="44.37404351376417" lon="10.81404891158632"><ele>703.0</ele><time>2026-04-12T09:58:06.999Z</time></trkpt><trkpt lat="44.37395808060912" lon="10.814049119208223"><ele>703.0</ele><time>2026-04-12T09:58:07.999Z</time></trkpt><trkpt lat="44.37384731727631" lon="10.8140602307899"><ele>703.0</ele><time>2026-04-12T09:58:08.999Z</time></trkpt><trkpt lat="44.37372767299178" lon="10.81407819369821"><ele>703.0</ele><time>2026-04-12T09:58:10.999Z</time></trkpt><trkpt lat="44.373648884334024" lon="10.81411755754075"><ele>705.5</ele><time>2026-04-12T09:58:11.999Z</time></trkpt><trkpt lat="44.37356405428787" lon="10.814143734649047"><ele>708.0</ele><time>2026-04-12T09:58:12.999Z</time></trkpt><trkpt lat="44.37342533688607" lon="10.814169894430753"><ele>710.5</ele><time>2026-04-12T09:58:13.999Z</time></trkpt><trkpt lat="44.37331153310263" lon="10.814192107286189"><ele>713.0</ele><time>2026-04-12T09:58:14.999Z</time></trkpt><trkpt lat="44.373186503215045" lon="10.814222090497633"><ele>713.0</ele><time>2026-04-12T09:58:15.999Z</time></trkpt><trkpt lat="44.373071493071926" lon="10.814241932880352"><ele>713.0</ele><time>2026-04-12T09:58:16.999Z</time></trkpt><trkpt lat="44.37295486579719" lon="10.814250927796017"><ele>713.0</ele><time>2026-04-12T09:58:17.999Z</time></trkpt><trkpt lat="44.372829242182675" lon="10.814270917002334"><ele>713.0</ele><time>2026-04-12T09:58:18.999Z</time></trkpt><trkpt lat="44.372706696771125" lon="10.814334997450997"><ele>714.5999999999999</ele><time>2026-04-12T09:58:19.999Z</time></trkpt><trkpt lat="44.37256735739961" lon="10.814325236197098"><ele>716.1999999999999</ele><time>2026-04-12T09:58:20.999Z</time></trkpt><trkpt lat="44.372453840469404" lon="10.814316976289584"><ele>717.8</ele><time>2026-04-12T09:58:21.999Z</time></trkpt><trkpt lat="44.37236542992289" lon="10.814298883181468"><ele>719.4</ele><time>2026-04-12T09:58:22.999Z</time></trkpt><trkpt lat="44.37227661719244" lon="10.814300496509116"><ele>721.0</ele><time>2026-04-12T09:58:23.999Z</time></trkpt><trkpt lat="44.37218862576054" lon="10.81430149467241"><ele>722.8</ele><time>2026-04-12T09:58:24.999Z</time></trkpt><trkpt lat="44.37208947669066" lon="10.814309976186385"><ele>724.5999999999999</ele><time>2026-04-12T09:58:25.999Z</time></trkpt><trkpt lat="44.371993602789765" lon="10.81431701809765"><ele>726.4</ele><time>2026-04-12T09:58:26.999Z</time></trkpt><trkpt lat="44.37191166293898" lon="10.814293342371313"><ele>728.2</ele><time>2026-04-12T09:58:27.999Z</time></trkpt><trkpt lat="44.371824458763754" lon="10.814303850795433"><ele>730.0</ele><time>2026-04-12T09:58:28.999Z</time></trkpt><trkpt lat="44.37173286294916" lon="10.814355478740907"><ele>730.4</ele><time>2026-04-12T09:58:29.999Z</time></trkpt><trkpt lat="44.371632775430335" lon="10.814388067144334"><ele>730.8</ele><time>2026-04-12T09:58:30.999Z</time></trkpt><trkpt lat="44.371539389058164" lon="10.814431614072562"><ele>731.2</ele><time>2026-04-12T09:58:31.999Z</time></trkpt><trkpt lat="44.3714406505747" lon="10.81446930484133"><ele>731.6</ele><time>2026-04-12T09:58:32.999Z</time></trkpt><trkpt lat="44.37133934923338" lon="10.814503567046183"><ele>732.0</ele><time>2026-04-12T09:58:33.999Z</time></trkpt><trkpt lat="44.37122954075592" lon="10.814516792762197"><ele>732.25</ele><time>2026-04-12T09:58:34.999Z</time></trkpt><trkpt lat="44.371123307030125" lon="10.814573319640127"><ele>732.5</ele><time>2026-04-12T09:58:35.999Z</time></trkpt><trkpt lat="44.37100311141624" lon="10.814600353174418"><ele>732.75</ele><time>2026-04-12T09:58:36.999Z</time></trkpt><trkpt lat="44.370891710472534" lon="10.814612841685559"><ele>733.0</ele><time>2026-04-12T09:58:37.999Z</time></trkpt><trkpt lat="44.370794776543896" lon="10.814670208284188"><ele>733.0</ele><time>2026-04-12T09:58:38.999Z</time></trkpt><trkpt lat="44.37069151664314" lon="10.814683144911546"><ele>733.0</ele><time>2026-04-12T09:58:39.999Z</time></trkpt><trkpt lat="44.37058876725839" lon="10.81471250330107"><ele>733.0</ele><time>2026-04-12T09:58:41Z</time></trkpt><trkpt lat="44.37049700915384" lon="10.814760265782121"><ele>733.0</ele><time>2026-04-12T09:58:42Z</time></trkpt><trkpt lat="44.370390096995784" lon="10.814759848630938"><ele>733.0</ele><time>2026-04-12T09:58:43Z</time></trkpt><trkpt lat="44.37028317429493" lon="10.814802380485359"><ele>732.25</ele><time>2026-04-12T09:58:44Z</time></trkpt><trkpt lat="44.370173323470596" lon="10.814790454425165"><ele>731.5</ele><time>2026-04-12T09:58:45Z</time></trkpt><trkpt lat="44.3700647802929" lon="10.814800858697836"><ele>730.75</ele><time>2026-04-12T09:58:46Z</time></trkpt><trkpt lat="44.36994774899756" lon="10.814811629580221"><ele>730.0</ele><time>2026-04-12T09:58:47Z</time></trkpt><trkpt lat="44.36982743352679" lon="10.814820028799883"><ele>730.0</ele><time>2026-04-12T09:58:48Z</time></trkpt><trkpt lat="44.36972758989066" lon="10.814826998884051"><ele>730.0</ele><time>2026-04-12T09:58:49Z</time></trkpt><trkpt lat="44.369619072586545" lon="10.81483457447595"><ele>730.0</ele><time>2026-04-12T09:58:50Z</time></trkpt><trkpt lat="44.369509398256234" lon="10.814842230841347"><ele>730.0</ele><time>2026-04-12T09:58:51Z</time></trkpt><trkpt lat="44.36938824373466" lon="10.814850688637646"><ele>730.0</ele><time>2026-04-12T09:58:52Z</time></trkpt><trkpt lat="44.36928909853555" lon="10.814880844933386"><ele>730.8</ele><time>2026-04-12T09:58:53Z</time></trkpt><trkpt lat="44.3691769615658" lon="10.814866542734107"><ele>731.6</ele><time>2026-04-12T09:58:54Z</time></trkpt><trkpt lat="44.369075248491775" lon="10.814875092487691"><ele>732.4000000000001</ele><time>2026-04-12T09:58:55Z</time></trkpt><trkpt lat="44.36897217560025" lon="10.81488375654419"><ele>733.2</ele><time>2026-04-12T09:58:56Z</time></trkpt><trkpt lat="44.368858574818894" lon="10.814893305548686"><ele>734.0</ele><time>2026-04-12T09:58:57Z</time></trkpt><trkpt lat="44.36875931303424" lon="10.81490164925164"><ele>735.0</ele><time>2026-04-12T09:58:58Z</time></trkpt><trkpt lat="44.36865264766012" lon="10.814910615283756"><ele>736.0</ele><time>2026-04-12T09:58:59Z</time></trkpt><trkpt lat="44.3685770135623" lon="10.814916972901276"><ele>737.0</ele><time>2026-04-12T09:59:00Z</time></trkpt><trkpt lat="44.36849489742242" lon="10.814924294707884"><ele>738.0</ele><time>2026-04-12T09:59:01Z</time></trkpt><trkpt lat="44.36843184837736" lon="10.814930053788705"><ele>739.0</ele><time>2026-04-12T09:59:02Z</time></trkpt><trkpt lat="44.36836130491646" lon="10.81493449048431"><ele>740.0</ele><time>2026-04-12T09:59:03Z</time></trkpt><trkpt lat="44.36828756933885" lon="10.814919641032558"><ele>740.0</ele><time>2026-04-12T09:59:05Z</time></trkpt><trkpt lat="44.36819903076218" lon="10.814942022981326"><ele>740.0</ele><time>2026-04-12T09:59:07Z</time></trkpt><trkpt lat="44.36811768157515" lon="10.814945799083501"><ele>740.0</ele><time>2026-04-12T09:59:08Z</time></trkpt><trkpt lat="44.36800949453251" lon="10.814950820946546"><ele>740.0</ele><time>2026-04-12T09:59:09Z</time></trkpt><trkpt lat="44.36785372897546" lon="10.814863704869554"><ele>740.0</ele><time>2026-04-12T09:59:10Z</time></trkpt><trkpt lat="44.367727482659525" lon="10.814925763745078"><ele>741.2</ele><time>2026-04-12T09:59:11Z</time></trkpt><trkpt lat="44.36759426819232" lon="10.815020054733155"><ele>742.4</ele><time>2026-04-12T09:59:12Z</time></trkpt><trkpt lat="44.36747782455254" lon="10.815096758772624"><ele>743.5999999999999</ele><time>2026-04-12T09:59:13Z</time></trkpt><trkpt lat="44.36740214379323" lon="10.815139548044447"><ele>744.8</ele><time>2026-04-12T09:59:14Z</time></trkpt><trkpt lat="44.36733529016422" lon="10.815176438275328"><ele>746.0</ele><time>2026-04-12T09:59:15Z</time></trkpt><trkpt lat="44.367225757549974" lon="10.815203092320951"><ele>747.3333333333333</ele><time>2026-04-12T09:59:17Z</time></trkpt><trkpt lat="44.36716543765727" lon="10.815238466328108"><ele>748.6666666666666</ele><time>2026-04-12T09:59:18Z</time></trkpt><trkpt lat="44.36710371490819" lon="10.815271589449866"><ele>750.0</ele><time>2026-04-12T09:59:19Z</time></trkpt><trkpt lat="44.36703778707884" lon="10.815278379644468"><ele>751.3333333333334</ele><time>2026-04-12T09:59:20Z</time></trkpt><trkpt lat="44.366949050934075" lon="10.815286219512815"><ele>752.6666666666667</ele><time>2026-04-12T09:59:21Z</time></trkpt><trkpt lat="44.36686067052751" lon="10.815308556340904"><ele>754.0</ele><time>2026-04-12T09:59:22Z</time></trkpt><trkpt lat="44.36675222819363" lon="10.815338431778336"><ele>754.0</ele><time>2026-04-12T09:59:23Z</time></trkpt><trkpt lat="44.36667827247615" lon="10.8153581421441"><ele>754.0</ele><time>2026-04-12T09:59:24Z</time></trkpt><trkpt lat="44.36661385677975" lon="10.815387150725154"><ele>754.0</ele><time>2026-04-12T09:59:25Z</time></trkpt><trkpt lat="44.36651754932259" lon="10.815503654397398"><ele>754.0</ele><time>2026-04-12T09:59:27Z</time></trkpt><trkpt lat="44.36644743343019" lon="10.81565154974093"><ele>754.0</ele><time>2026-04-12T09:59:29Z</time></trkpt><trkpt lat="44.366408320356285" lon="10.81572440232214"><ele>754.0</ele><time>2026-04-12T09:59:30Z</time></trkpt><trkpt lat="44.366368817963505" lon="10.815802590559962"><ele>754.0</ele><time>2026-04-12T09:59:31Z</time></trkpt><trkpt lat="44.3663308648237" lon="10.815880357228055"><ele>754.0</ele><time>2026-04-12T09:59:32Z</time></trkpt><trkpt lat="44.36630549723884" lon="10.816003823870583"><ele>754.0</ele><time>2026-04-12T09:59:34Z</time></trkpt><trkpt lat="44.36633542484661" lon="10.816121974511026"><ele>754.0</ele><time>2026-04-12T09:59:36Z</time></trkpt><trkpt lat="44.366361852092275" lon="10.81625620207234"><ele>754.0</ele><time>2026-04-12T09:59:38Z</time></trkpt><trkpt lat="44.366335036237345" lon="10.816345998709476"><ele>754.2</ele><time>2026-04-12T09:59:40Z</time></trkpt><trkpt lat="44.36627152929449" lon="10.816445652506124"><ele>754.4000000000001</ele><time>2026-04-12T09:59:41.999Z</time></trkpt><trkpt lat="44.366188373835406" lon="10.816583418195098"><ele>754.6</ele><time>2026-04-12T09:59:43.999Z</time></trkpt><trkpt lat="44.36614237961946" lon="10.81666682221862"><ele>754.8</ele><time>2026-04-12T09:59:44.999Z</time></trkpt><trkpt lat="44.36606087624526" lon="10.816811844757572"><ele>755.0</ele><time>2026-04-12T09:59:45.999Z</time></trkpt><trkpt lat="44.36599300573166" lon="10.816925060240989"><ele>755.0</ele><time>2026-04-12T09:59:46.999Z</time></trkpt><trkpt lat="44.36592793564668" lon="10.81704096152388"><ele>755.0</ele><time>2026-04-12T09:59:47.999Z</time></trkpt><trkpt lat="44.365912117266745" lon="10.81714348895573"><ele>755.0</ele><time>2026-04-12T09:59:49.999Z</time></trkpt><trkpt lat="44.36588087317744" lon="10.81724682527211"><ele>755.0</ele><time>2026-04-12T09:59:50.999Z</time></trkpt><trkpt lat="44.36581406287379" lon="10.81736241251612"><ele>755.0</ele><time>2026-04-12T09:59:51.999Z</time></trkpt><trkpt lat="44.36572254734422" lon="10.817468961050533"><ele>755.0</ele><time>2026-04-12T09:59:52.999Z</time></trkpt><trkpt lat="44.365581927660145" lon="10.817608369508049"><ele>755.0</ele><time>2026-04-12T09:59:53.999Z</time></trkpt><trkpt lat="44.36544468127454" lon="10.81773327626924"><ele>755.0</ele><time>2026-04-12T09:59:54.999Z</time></trkpt><trkpt lat="44.36533334691805" lon="10.817846018198916"><ele>754.2</ele><time>2026-04-12T09:59:55.999Z</time></trkpt><trkpt lat="44.36525722089494" lon="10.81795389660527"><ele>753.4</ele><time>2026-04-12T09:59:56.999Z</time></trkpt><trkpt lat="44.36519061172343" lon="10.818098222866325"><ele>752.5999999999999</ele><time>2026-04-12T09:59:57.999Z</time></trkpt><trkpt lat="44.36514346188721" lon="10.8182206601287"><ele>751.8</ele><time>2026-04-12T09:59:58.999Z</time></trkpt><trkpt lat="44.365098260736175" lon="10.81830328730701"><ele>751.0</ele><time>2026-04-12T09:59:59.999Z</time></trkpt><trkpt lat="44.36504560611923" lon="10.818404745848465"><ele>750.8</ele><time>2026-04-12T10:00:00.999Z</time></trkpt><trkpt lat="44.365005573361636" lon="10.818529937560442"><ele>750.5999999999999</ele><time>2026-04-12T10:00:01.999Z</time></trkpt><trkpt lat="44.36498248348813" lon="10.818668391414954"><ele>750.4</ele><time>2026-04-12T10:00:02.999Z</time></trkpt><trkpt lat="44.36498235051093" lon="10.81878815477549"><ele>750.2</ele><time>2026-04-12T10:00:03.999Z</time></trkpt><trkpt lat="44.364972980062326" lon="10.818940094457654"><ele>750.0</ele><time>2026-04-12T10:00:05.999Z</time></trkpt><trkpt lat="44.3649085070187" lon="10.8189690855676"><ele>750.0</ele><time>2026-04-12T10:00:07.999Z</time></trkpt><trkpt lat="44.364761866674066" lon="10.818876678163308"><ele>750.0</ele><time>2026-04-12T10:00:09.999Z</time></trkpt><trkpt lat="44.36465514790363" lon="10.818794239217555"><ele>750.0</ele><time>2026-04-12T10:00:10.999Z</time></trkpt><trkpt lat="44.36452351592095" lon="10.818711427874012"><ele>750.0</ele><time>2026-04-12T10:00:11.999Z</time></trkpt><trkpt lat="44.364371777743706" lon="10.81863861252508"><ele>748.0</ele><time>2026-04-12T10:00:12.999Z</time></trkpt><trkpt lat="44.3641957143406" lon="10.818593102725709"><ele>746.0</ele><time>2026-04-12T10:00:13.999Z</time></trkpt><trkpt lat="44.36399689906029" lon="10.81855216565607"><ele>744.0</ele><time>2026-04-12T10:00:14.999Z</time></trkpt><trkpt lat="44.363779317326355" lon="10.818494483492364"><ele>743.3333333333334</ele><time>2026-04-12T10:00:15.999Z</time></trkpt><trkpt lat="44.363567676571456" lon="10.818436309225268"><ele>742.6666666666667</ele><time>2026-04-12T10:00:16.999Z</time></trkpt><trkpt lat="44.36339123165957" lon="10.818384538166788"><ele>742.0</ele><time>2026-04-12T10:00:17.999Z</time></trkpt><trkpt lat="44.36322683841443" lon="10.818330865468532"><ele>742.0</ele><time>2026-04-12T10:00:18.999Z</time></trkpt><trkpt lat="44.36306671782482" lon="10.81827701750181"><ele>742.0</ele><time>2026-04-12T10:00:19.999Z</time></trkpt><trkpt lat="44.36292515707251" lon="10.818226568022652"><ele>742.0</ele><time>2026-04-12T10:00:20.999Z</time></trkpt><trkpt lat="44.36279437670479" lon="10.818174458633983"><ele>742.0</ele><time>2026-04-12T10:00:21.999Z</time></trkpt><trkpt lat="44.36266764704518" lon="10.81809941275693"><ele>741.75</ele><time>2026-04-12T10:00:22.999Z</time></trkpt><trkpt lat="44.362531597822446" lon="10.818068093565078"><ele>741.5</ele><time>2026-04-12T10:00:23.999Z</time></trkpt><trkpt lat="44.36240306336603" lon="10.818006647285648"><ele>741.25</ele><time>2026-04-12T10:00:24.999Z</time></trkpt><trkpt lat="44.362288854552084" lon="10.817962348356073"><ele>741.0</ele><time>2026-04-12T10:00:25.999Z</time></trkpt><trkpt lat="44.362170787232955" lon="10.81791664860038"><ele>740.8</ele><time>2026-04-12T10:00:26.999Z</time></trkpt><trkpt lat="44.362058638119386" lon="10.817884102540509"><ele>740.5999999999999</ele><time>2026-04-12T10:00:27.999Z</time></trkpt><trkpt lat="44.36195568339938" lon="10.817840072792537"><ele>740.4</ele><time>2026-04-12T10:00:28.999Z</time></trkpt><trkpt lat="44.361861080690794" lon="10.81778920871755"><ele>740.2</ele><time>2026-04-12T10:00:29.999Z</time></trkpt><trkpt lat="44.361766173657955" lon="10.81777069038882"><ele>740.0</ele><time>2026-04-12T10:00:30.999Z</time></trkpt><trkpt lat="44.361675988589724" lon="10.817700799431947"><ele>740.0</ele><time>2026-04-12T10:00:31.999Z</time></trkpt><trkpt lat="44.3615705334881" lon="10.817653770040645"><ele>740.0</ele><time>2026-04-12T10:00:32.999Z</time></trkpt><trkpt lat="44.36146147680242" lon="10.817646381870636"><ele>740.0</ele><time>2026-04-12T10:00:33.999Z</time></trkpt><trkpt lat="44.36135715370179" lon="10.81760717333955"><ele>740.0</ele><time>2026-04-12T10:00:34.999Z</time></trkpt><trkpt lat="44.36124959279349" lon="10.817607116764162"><ele>740.0</ele><time>2026-04-12T10:00:35.999Z</time></trkpt><trkpt lat="44.361139978172105" lon="10.81760689433571"><ele>739.2</ele><time>2026-04-12T10:00:36.999Z</time></trkpt><trkpt lat="44.36103582636452" lon="10.81763963601473"><ele>738.4</ele><time>2026-04-12T10:00:37.999Z</time></trkpt><trkpt lat="44.360924019350435" lon="10.817658841070037"><ele>737.5999999999999</ele><time>2026-04-12T10:00:38.999Z</time></trkpt><trkpt lat="44.36082060412799" lon="10.817691393530474"><ele>736.8</ele><time>2026-04-12T10:00:39.999Z</time></trkpt><trkpt lat="44.36072222696002" lon="10.81772249709075"><ele>736.0</ele><time>2026-04-12T10:00:40.999Z</time></trkpt><trkpt lat="44.36061346263197" lon="10.817741634894395"><ele>734.1999999999999</ele><time>2026-04-12T10:00:41.999Z</time></trkpt><trkpt lat="44.3605206835523" lon="10.817754208179833"><ele>732.4</ele><time>2026-04-12T10:00:42.999Z</time></trkpt><trkpt lat="44.36042444764507" lon="10.817769386181956"><ele>730.6</ele><time>2026-04-12T10:00:43.999Z</time></trkpt><trkpt lat="44.36033193615195" lon="10.817791432149646"><ele>728.8</ele><time>2026-04-12T10:00:44.999Z</time></trkpt><trkpt lat="44.3602372142197" lon="10.817805927553763"><ele>727.0</ele><time>2026-04-12T10:00:46Z</time></trkpt><trkpt lat="44.36014862233198" lon="10.817781995345246"><ele>727.0</ele><time>2026-04-12T10:00:47Z</time></trkpt><trkpt lat="44.36006302424851" lon="10.817763191319228"><ele>727.0</ele><time>2026-04-12T10:00:48Z</time></trkpt><trkpt lat="44.35999379175304" lon="10.817724828082303"><ele>727.0</ele><time>2026-04-12T10:00:49Z</time></trkpt><trkpt lat="44.35992017903568" lon="10.817667836690312"><ele>727.0</ele><time>2026-04-12T10:00:50Z</time></trkpt><trkpt lat="44.35986277401111" lon="10.817603929759454"><ele>727.0</ele><time>2026-04-12T10:00:51Z</time></trkpt><trkpt lat="44.35977338780687" lon="10.817515102668583"><ele>727.0</ele><time>2026-04-12T10:00:53Z</time></trkpt><trkpt lat="44.35966244118466" lon="10.81759337944958"><ele>727.0</ele><time>2026-04-12T10:00:56Z</time></trkpt><trkpt lat="44.359706508393195" lon="10.817721702108281"><ele>727.0</ele><time>2026-04-12T10:00:57Z</time></trkpt><trkpt lat="44.35973479708566" lon="10.81783083220667"><ele>727.0</ele><time>2026-04-12T10:00:58Z</time></trkpt><trkpt lat="44.359758941057756" lon="10.817941848412243"><ele>727.0</ele><time>2026-04-12T10:00:59Z</time></trkpt><trkpt lat="44.35977002597649" lon="10.81808824964393"><ele>727.0</ele><time>2026-04-12T10:01:01Z</time></trkpt><trkpt lat="44.35974736769511" lon="10.818255860733055"><ele>727.0</ele><time>2026-04-12T10:01:03Z</time></trkpt><trkpt lat="44.35974881701527" lon="10.818357570594815"><ele>727.0</ele><time>2026-04-12T10:01:04Z</time></trkpt><trkpt lat="44.359654998730754" lon="10.818390463412882"><ele>727.0</ele><time>2026-04-12T10:01:05Z</time></trkpt><trkpt lat="44.35955558226941" lon="10.818488295714385"><ele>727.0</ele><time>2026-04-12T10:01:07Z</time></trkpt><trkpt lat="44.35950896920621" lon="10.818556259821078"><ele>727.0</ele><time>2026-04-12T10:01:08Z</time></trkpt><trkpt lat="44.35946105730553" lon="10.818644370676692"><ele>727.0</ele><time>2026-04-12T10:01:09Z</time></trkpt><trkpt lat="44.35941888483388" lon="10.818729529775647"><ele>724.8</ele><time>2026-04-12T10:01:10Z</time></trkpt><trkpt lat="44.35938259688215" lon="10.818802806263893"><ele>722.6</ele><time>2026-04-12T10:01:11Z</time></trkpt><trkpt lat="44.3593052059283" lon="10.81894199789152"><ele>720.4</ele><time>2026-04-12T10:01:13Z</time></trkpt><trkpt lat="44.35925890048032" lon="10.819012739641458"><ele>718.1999999999999</ele><time>2026-04-12T10:01:14Z</time></trkpt><trkpt lat="44.359173266408725" lon="10.819143069608092"><ele>716.0</ele><time>2026-04-12T10:01:16Z</time></trkpt><trkpt lat="44.35911679542987" lon="10.819197293797284"><ele>716.0</ele><time>2026-04-12T10:01:17Z</time></trkpt><trkpt lat="44.359055771255576" lon="10.819234064520664"><ele>716.0</ele><time>2026-04-12T10:01:18Z</time></trkpt><trkpt lat="44.35899002174998" lon="10.819251837874582"><ele>716.0</ele><time>2026-04-12T10:01:19Z</time></trkpt><trkpt lat="44.358920985580795" lon="10.819259095195095"><ele>716.0</ele><time>2026-04-12T10:01:20Z</time></trkpt><trkpt lat="44.35879679757604" lon="10.819278916550978"><ele>716.0</ele><time>2026-04-12T10:01:22Z</time></trkpt><trkpt lat="44.35869514208382" lon="10.819298050294446"><ele>716.0</ele><time>2026-04-12T10:01:24Z</time></trkpt><trkpt lat="44.35859046963124" lon="10.819298408445917"><ele>713.4</ele><time>2026-04-12T10:01:26Z</time></trkpt><trkpt lat="44.35848630496466" lon="10.819323247197127"><ele>710.8</ele><time>2026-04-12T10:01:28Z</time></trkpt><trkpt lat="44.358441919199" lon="10.819200250011875"><ele>708.1999999999999</ele><time>2026-04-12T10:01:29Z</time></trkpt><trkpt lat="44.3583701981668" lon="10.819159854599851"><ele>705.5999999999999</ele><time>2026-04-12T10:01:30Z</time></trkpt><trkpt lat="44.35828644016068" lon="10.819112402531603"><ele>703.0</ele><time>2026-04-12T10:01:32Z</time></trkpt><trkpt lat="44.358202034793614" lon="10.819082585324901"><ele>703.0</ele><time>2026-04-12T10:01:34Z</time></trkpt><trkpt lat="44.3581086504558" lon="10.819047508279237"><ele>703.0</ele><time>2026-04-12T10:01:36Z</time></trkpt><trkpt lat="44.35801388898855" lon="10.81905903448526"><ele>703.0</ele><time>2026-04-12T10:01:38Z</time></trkpt><trkpt lat="44.35792773279816" lon="10.819086927526435"><ele>703.0</ele><time>2026-04-12T10:01:40Z</time></trkpt><trkpt lat="44.35781942256531" lon="10.819151477381716"><ele>703.0</ele><time>2026-04-12T10:01:42Z</time></trkpt><trkpt lat="44.35773493206117" lon="10.819176857366212"><ele>699.8</ele><time>2026-04-12T10:01:44Z</time></trkpt><trkpt lat="44.357664758965285" lon="10.819235871525292"><ele>696.5999999999999</ele><time>2026-04-12T10:01:46Z</time></trkpt><trkpt lat="44.357562882032035" lon="10.819264641309857"><ele>693.4000000000001</ele><time>2026-04-12T10:01:48Z</time></trkpt><trkpt lat="44.35745595224665" lon="10.819284023717023"><ele>690.2</ele><time>2026-04-12T10:01:50Z</time></trkpt><trkpt lat="44.357356055437066" lon="10.819339699583354"><ele>687.0</ele><time>2026-04-12T10:01:52Z</time></trkpt><trkpt lat="44.35725478149097" lon="10.819403034685749"><ele>684.0</ele><time>2026-04-12T10:01:54Z</time></trkpt><trkpt lat="44.357160262216304" lon="10.819456666214391"><ele>681.0</ele><time>2026-04-12T10:01:55.999Z</time></trkpt><trkpt lat="44.35705717169018" lon="10.819484836457232"><ele>678.0</ele><time>2026-04-12T10:01:57.999Z</time></trkpt><trkpt lat="44.35694595316222" lon="10.819510172071894"><ele>675.0</ele><time>2026-04-12T10:01:59.999Z</time></trkpt><trkpt lat="44.35688196856824" lon="10.819531298333414"><ele>672.0</ele><time>2026-04-12T10:02:00.999Z</time></trkpt><trkpt lat="44.3567618576932" lon="10.819563905531767"><ele>672.0</ele><time>2026-04-12T10:02:02.999Z</time></trkpt><trkpt lat="44.35668605463769" lon="10.819582845468755"><ele>672.0</ele><time>2026-04-12T10:02:04.999Z</time></trkpt><trkpt lat="44.35661327115997" lon="10.819619282750642"><ele>672.0</ele><time>2026-04-12T10:02:06.999Z</time></trkpt><trkpt lat="44.35652092730421" lon="10.819616191338918"><ele>672.0</ele><time>2026-04-12T10:02:09.999Z</time></trkpt><trkpt lat="44.356442867434616" lon="10.8196891248767"><ele>672.0</ele><time>2026-04-12T10:02:11.999Z</time></trkpt><trkpt lat="44.3563703586363" lon="10.819725879704489"><ele>672.0</ele><time>2026-04-12T10:02:13.999Z</time></trkpt><trkpt lat="44.35629190260342" lon="10.81985089087388"><ele>668.6</ele><time>2026-04-12T10:02:15.999Z</time></trkpt><trkpt lat="44.35623464183005" lon="10.81991044394971"><ele>665.2</ele><time>2026-04-12T10:02:17.999Z</time></trkpt><trkpt lat="44.35616006173106" lon="10.8199748542711"><ele>661.8</ele><time>2026-04-12T10:02:19.999Z</time></trkpt><trkpt lat="44.35606622146872" lon="10.82002716663574"><ele>658.4</ele><time>2026-04-12T10:02:21.999Z</time></trkpt><trkpt lat="44.35597437031446" lon="10.820071410670122"><ele>655.0</ele><time>2026-04-12T10:02:23.999Z</time></trkpt><trkpt lat="44.35588435025894" lon="10.820117965154324"><ele>654.5</ele><time>2026-04-12T10:02:25.999Z</time></trkpt><trkpt lat="44.355801207725186" lon="10.82015762044296"><ele>654.0</ele><time>2026-04-12T10:02:27.999Z</time></trkpt><trkpt lat="44.355725479281205" lon="10.8202106303016"><ele>653.5</ele><time>2026-04-12T10:02:29.999Z</time></trkpt><trkpt lat="44.355645590751" lon="10.820240504077537"><ele>653.0</ele><time>2026-04-12T10:02:31.999Z</time></trkpt><trkpt lat="44.355567968847495" lon="10.820278845493158"><ele>652.5</ele><time>2026-04-12T10:02:33.999Z</time></trkpt><trkpt lat="44.35548025250936" lon="10.820294781957601"><ele>652.0</ele><time>2026-04-12T10:02:35.999Z</time></trkpt><trkpt lat="44.35536490342223" lon="10.820317271607866"><ele>649.0</ele><time>2026-04-12T10:02:37.999Z</time></trkpt><trkpt lat="44.35527633303863" lon="10.820330441015672"><ele>646.0</ele><time>2026-04-12T10:02:39.999Z</time></trkpt><trkpt lat="44.35519710763275" lon="10.820328857251493"><ele>643.0</ele><time>2026-04-12T10:02:41.999Z</time></trkpt><trkpt lat="44.35514025142943" lon="10.820250077116066"><ele>640.0</ele><time>2026-04-12T10:02:43.999Z</time></trkpt><trkpt lat="44.35510874779007" lon="10.820133461483953"><ele>637.0</ele><time>2026-04-12T10:02:45.999Z</time></trkpt><trkpt lat="44.354998963191015" lon="10.820083732298565"><ele>637.0</ele><time>2026-04-12T10:02:48.999Z</time></trkpt><trkpt lat="44.35491676741741" lon="10.819978420756494"><ele>637.0</ele><time>2026-04-12T10:02:50.999Z</time></trkpt><trkpt lat="44.35487207442819" lon="10.819910936248968"><ele>637.0</ele><time>2026-04-12T10:02:52Z</time></trkpt><trkpt lat="44.354863047327385" lon="10.820003597971764"><ele>637.0</ele><time>2026-04-12T10:02:53Z</time></trkpt><trkpt lat="44.35479892231788" lon="10.820060343224304"><ele>637.0</ele><time>2026-04-12T10:02:55Z</time></trkpt><trkpt lat="44.35472550271927" lon="10.820106998139378"><ele>637.0</ele><time>2026-04-12T10:02:57Z</time></trkpt><trkpt lat="44.35464786616888" lon="10.820170244623693"><ele>632.6666666666667</ele><time>2026-04-12T10:02:59Z</time></trkpt><trkpt lat="44.35458291663188" lon="10.820247979129206"><ele>628.3333333333334</ele><time>2026-04-12T10:03:01Z</time></trkpt><trkpt lat="44.354534732668036" lon="10.820338551270881"><ele>624.0</ele><time>2026-04-12T10:03:03Z</time></trkpt><trkpt lat="44.3545143018135" lon="10.820444130551424"><ele>619.6666666666666</ele><time>2026-04-12T10:03:06Z</time></trkpt><trkpt lat="44.35446016789189" lon="10.8205352631385"><ele>615.3333333333333</ele><time>2026-04-12T10:03:09Z</time></trkpt><trkpt lat="44.35438719927984" lon="10.820589500465749"><ele>611.0</ele><time>2026-04-12T10:03:11Z</time></trkpt><trkpt lat="44.3543543647385" lon="10.820673280589995"><ele>611.0000000000001</ele><time>2026-04-12T10:03:13Z</time></trkpt><trkpt lat="44.354324872605744" lon="10.820758383615237"><ele>611.0</ele><time>2026-04-12T10:03:15Z</time></trkpt><trkpt lat="44.354264754938534" lon="10.820784697017888"><ele>611.0</ele><time>2026-04-12T10:03:17Z</time></trkpt><trkpt lat="44.35420242816635" lon="10.820716094970503"><ele>611.0</ele><time>2026-04-12T10:03:19Z</time></trkpt><trkpt lat="44.35414457649271" lon="10.820661111206158"><ele>611.0</ele><time>2026-04-12T10:03:21Z</time></trkpt><trkpt lat="44.35407210033025" lon="10.820620616790347"><ele>611.0000000000001</ele><time>2026-04-12T10:03:24Z</time></trkpt><trkpt lat="44.354007971126656" lon="10.8205468250574"><ele>611.0</ele><time>2026-04-12T10:03:27Z</time></trkpt><trkpt lat="44.353919247476846" lon="10.820535087298772"><ele>611.0</ele><time>2026-04-12T10:03:30Z</time></trkpt><trkpt lat="44.35387403974222" lon="10.820612971381033"><ele>611.0</ele><time>2026-04-12T10:03:32Z</time></trkpt><trkpt lat="44.353868578402746" lon="10.820756284610502"><ele>611.0</ele><time>2026-04-12T10:03:34Z</time></trkpt><trkpt lat="44.353785939468736" lon="10.820869925967985"><ele>611.0</ele><time>2026-04-12T10:03:36Z</time></trkpt><trkpt lat="44.35373650720471" lon="10.820944241049489"><ele>611.0</ele><time>2026-04-12T10:03:37Z</time></trkpt><trkpt lat="44.353683943130186" lon="10.821051432928286"><ele>611.8</ele><time>2026-04-12T10:03:38Z</time></trkpt><trkpt lat="44.3536204622627" lon="10.821151293564029"><ele>612.6</ele><time>2026-04-12T10:03:39Z</time></trkpt><trkpt lat="44.3535536486049" lon="10.821254437109193"><ele>613.4</ele><time>2026-04-12T10:03:40Z</time></trkpt><trkpt lat="44.353494843471985" lon="10.821350818760584"><ele>614.2</ele><time>2026-04-12T10:03:41Z</time></trkpt><trkpt lat="44.35341829031504" lon="10.821444868207768"><ele>615.0</ele><time>2026-04-12T10:03:42Z</time></trkpt><trkpt lat="44.3533643658147" lon="10.82153371739399"><ele>615.0</ele><time>2026-04-12T10:03:43Z</time></trkpt><trkpt lat="44.3533223419066" lon="10.821625543550642"><ele>615.0</ele><time>2026-04-12T10:03:44Z</time></trkpt><trkpt lat="44.3532254152976" lon="10.821785923117018"><ele>615.0</ele><time>2026-04-12T10:03:45Z</time></trkpt><trkpt lat="44.353173621151534" lon="10.821866879032292"><ele>615.0</ele><time>2026-04-12T10:03:46Z</time></trkpt><trkpt lat="44.35313259636259" lon="10.821987420108854"><ele>615.0</ele><time>2026-04-12T10:03:48Z</time></trkpt><trkpt lat="44.3530420535939" lon="10.82194543553255"><ele>618.0</ele><time>2026-04-12T10:03:50Z</time></trkpt><trkpt lat="44.35298774960393" lon="10.821862752123478"><ele>621.0</ele><time>2026-04-12T10:03:51Z</time></trkpt><trkpt lat="44.35295187083091" lon="10.821767804625692"><ele>624.0</ele><time>2026-04-12T10:03:52Z</time></trkpt><trkpt lat="44.352936346168164" lon="10.821663294005846"><ele>627.0</ele><time>2026-04-12T10:03:53Z</time></trkpt><trkpt lat="44.352888189129565" lon="10.821601800835781"><ele>630.0</ele><time>2026-04-12T10:03:53.999Z</time></trkpt><trkpt lat="44.352866028685" lon="10.821464312536852"><ele>633.0</ele><time>2026-04-12T10:03:54.999Z</time></trkpt><trkpt lat="44.35282561041068" lon="10.821350395252225"><ele>633.0</ele><time>2026-04-12T10:03:55.999Z</time></trkpt><trkpt lat="44.352780073966215" lon="10.821210560831407"><ele>633.0</ele><time>2026-04-12T10:03:56.999Z</time></trkpt><trkpt lat="44.3527263203845" lon="10.821099166348777"><ele>633.0</ele><time>2026-04-12T10:03:57.999Z</time></trkpt><trkpt lat="44.35269142424536" lon="10.82096742819521"><ele>633.0</ele><time>2026-04-12T10:03:58.999Z</time></trkpt><trkpt lat="44.35263941733574" lon="10.820862594491151"><ele>633.0</ele><time>2026-04-12T10:03:59.999Z</time></trkpt><trkpt lat="44.35259547234337" lon="10.820758203190888"><ele>633.0</ele><time>2026-04-12T10:04:00.999Z</time></trkpt><trkpt lat="44.352541749802995" lon="10.820690034267567"><ele>633.0</ele><time>2026-04-12T10:04:02.999Z</time></trkpt><trkpt lat="44.35242667035506" lon="10.820793104980432"><ele>633.0</ele><time>2026-04-12T10:04:04.999Z</time></trkpt><trkpt lat="44.352378748534676" lon="10.820871810452552"><ele>633.0</ele><time>2026-04-12T10:04:05.999Z</time></trkpt><trkpt lat="44.35229826899592" lon="10.820936680971117"><ele>633.0</ele><time>2026-04-12T10:04:06.999Z</time></trkpt><trkpt lat="44.352207372706516" lon="10.82104336492404"><ele>636.5999999999999</ele><time>2026-04-12T10:04:07.999Z</time></trkpt><trkpt lat="44.35213608923973" lon="10.821134855841118"><ele>640.1999999999999</ele><time>2026-04-12T10:04:08.999Z</time></trkpt><trkpt lat="44.35205951233758" lon="10.821259997367562"><ele>643.8</ele><time>2026-04-12T10:04:09.999Z</time></trkpt><trkpt lat="44.35201434851993" lon="10.821407049693692"><ele>647.4</ele><time>2026-04-12T10:04:10.999Z</time></trkpt><trkpt lat="44.351940070437394" lon="10.821507330902302"><ele>651.0</ele><time>2026-04-12T10:04:11.999Z</time></trkpt><trkpt lat="44.35187611906569" lon="10.821607370887453"><ele>651.0</ele><time>2026-04-12T10:04:12.999Z</time></trkpt><trkpt lat="44.3518082309268" lon="10.821700425198653"><ele>651.0</ele><time>2026-04-12T10:04:13.999Z</time></trkpt><trkpt lat="44.35173059877292" lon="10.82178687077282"><ele>651.0</ele><time>2026-04-12T10:04:14.999Z</time></trkpt><trkpt lat="44.351666440957864" lon="10.821873176855952"><ele>651.0</ele><time>2026-04-12T10:04:15.999Z</time></trkpt><trkpt lat="44.35161247909313" lon="10.821962758782751"><ele>651.0</ele><time>2026-04-12T10:04:16.999Z</time></trkpt><trkpt lat="44.35156743618513" lon="10.822039946832255"><ele>651.0</ele><time>2026-04-12T10:04:17.999Z</time></trkpt><trkpt lat="44.35152342732912" lon="10.822135908967837"><ele>651.1999999999999</ele><time>2026-04-12T10:04:18.999Z</time></trkpt><trkpt lat="44.351483741149515" lon="10.822220905880924"><ele>651.4</ele><time>2026-04-12T10:04:19.999Z</time></trkpt><trkpt lat="44.35141809254316" lon="10.822301732968155"><ele>651.6</ele><time>2026-04-12T10:04:20.999Z</time></trkpt><trkpt lat="44.35134723921971" lon="10.822395164097156"><ele>651.8</ele><time>2026-04-12T10:04:21.999Z</time></trkpt><trkpt lat="44.35127315644521" lon="10.822517053354316"><ele>652.0</ele><time>2026-04-12T10:04:22.999Z</time></trkpt><trkpt lat="44.35120162247202" lon="10.822638817653331"><ele>655.4000000000001</ele><time>2026-04-12T10:04:23.999Z</time></trkpt><trkpt lat="44.35113634988945" lon="10.822761655970183"><ele>658.8000000000001</ele><time>2026-04-12T10:04:24.999Z</time></trkpt><trkpt lat="44.351109886230304" lon="10.822901508750753"><ele>662.2</ele><time>2026-04-12T10:04:25.999Z</time></trkpt><trkpt lat="44.351069855378945" lon="10.823013952477265"><ele>665.6</ele><time>2026-04-12T10:04:26.999Z</time></trkpt><trkpt lat="44.35115137295931" lon="10.823151444418574"><ele>669.0</ele><time>2026-04-12T10:04:28.999Z</time></trkpt><trkpt lat="44.35120093787277" lon="10.823258617156716"><ele>669.0</ele><time>2026-04-12T10:04:29.999Z</time></trkpt><trkpt lat="44.35125469974023" lon="10.823390585416986"><ele>669.0</ele><time>2026-04-12T10:04:30.999Z</time></trkpt><trkpt lat="44.351305110583695" lon="10.823519347135546"><ele>669.0</ele><time>2026-04-12T10:04:31.999Z</time></trkpt><trkpt lat="44.35136306525398" lon="10.82363322611611"><ele>669.0</ele><time>2026-04-12T10:04:32.999Z</time></trkpt><trkpt lat="44.35139980269452" lon="10.823711848965683"><ele>669.0</ele><time>2026-04-12T10:04:33.999Z</time></trkpt><trkpt lat="44.35138115296531" lon="10.823869576853916"><ele>671.2</ele><time>2026-04-12T10:04:35.999Z</time></trkpt><trkpt lat="44.35129203598115" lon="10.823962446354745"><ele>673.4000000000001</ele><time>2026-04-12T10:04:37.999Z</time></trkpt><trkpt lat="44.35123015962563" lon="10.824028189722258"><ele>675.6</ele><time>2026-04-12T10:04:38.999Z</time></trkpt><trkpt lat="44.35115436379823" lon="10.824110156580097"><ele>677.8</ele><time>2026-04-12T10:04:39.999Z</time></trkpt><trkpt lat="44.35108118919191" lon="10.824194307433126"><ele>680.0</ele><time>2026-04-12T10:04:40.999Z</time></trkpt><trkpt lat="44.351014834364136" lon="10.824275185798689"><ele>680.8</ele><time>2026-04-12T10:04:41.999Z</time></trkpt><trkpt lat="44.350933373836796" lon="10.82437417671805"><ele>681.6</ele><time>2026-04-12T10:04:42.999Z</time></trkpt><trkpt lat="44.35084852167606" lon="10.824478133904805"><ele>682.4000000000001</ele><time>2026-04-12T10:04:43.999Z</time></trkpt><trkpt lat="44.350766936534406" lon="10.824590337374506"><ele>683.2</ele><time>2026-04-12T10:04:44.999Z</time></trkpt><trkpt lat="44.3506772925464" lon="10.824669862113797"><ele>684.0</ele><time>2026-04-12T10:04:45.999Z</time></trkpt><trkpt lat="44.350602438213" lon="10.8246836160809"><ele>685.2</ele><time>2026-04-12T10:04:46.999Z</time></trkpt><trkpt lat="44.35050113531349" lon="10.824722714810864"><ele>686.4000000000001</ele><time>2026-04-12T10:04:47.999Z</time></trkpt><trkpt lat="44.35039331088156" lon="10.824763156216717"><ele>687.6</ele><time>2026-04-12T10:04:48.999Z</time></trkpt><trkpt lat="44.350292987392464" lon="10.824803291256098"><ele>688.8</ele><time>2026-04-12T10:04:49.999Z</time></trkpt><trkpt lat="44.350196409424285" lon="10.824845122734912"><ele>690.0</ele><time>2026-04-12T10:04:50.999Z</time></trkpt><trkpt lat="44.35011720514834" lon="10.824883751407583"><ele>690.0</ele><time>2026-04-12T10:04:51.999Z</time></trkpt><trkpt lat="44.35003516182288" lon="10.824931041895558"><ele>690.0</ele><time>2026-04-12T10:04:52.999Z</time></trkpt><trkpt lat="44.349941001313525" lon="10.824991809929006"><ele>690.0</ele><time>2026-04-12T10:04:53.999Z</time></trkpt><trkpt lat="44.34984096354487" lon="10.825062999254593"><ele>690.0</ele><time>2026-04-12T10:04:54.999Z</time></trkpt><trkpt lat="44.34974051511932" lon="10.825134822609797"><ele>690.0</ele><time>2026-04-12T10:04:55.999Z</time></trkpt><trkpt lat="44.34961309287559" lon="10.825225932979098"><ele>693.8</ele><time>2026-04-12T10:04:56.999Z</time></trkpt><trkpt lat="44.3494990044108" lon="10.825307511054122"><ele>697.6</ele><time>2026-04-12T10:04:58Z</time></trkpt><trkpt lat="44.34940478739077" lon="10.825393064320528"><ele>701.4000000000001</ele><time>2026-04-12T10:04:59Z</time></trkpt><trkpt lat="44.34931195599578" lon="10.825422120420441"><ele>705.2</ele><time>2026-04-12T10:05:00Z</time></trkpt><trkpt lat="44.349214691320704" lon="10.825470178241654"><ele>709.0</ele><time>2026-04-12T10:05:01Z</time></trkpt><trkpt lat="44.34912834787959" lon="10.82554394796339"><ele>709.0</ele><time>2026-04-12T10:05:02Z</time></trkpt><trkpt lat="44.3490382909959" lon="10.825594364111598"><ele>709.0</ele><time>2026-04-12T10:05:03Z</time></trkpt><trkpt lat="44.34894434910486" lon="10.825691751423575"><ele>709.0</ele><time>2026-04-12T10:05:04Z</time></trkpt><trkpt lat="44.34888798782725" lon="10.825796894609335"><ele>709.0</ele><time>2026-04-12T10:05:05Z</time></trkpt><trkpt lat="44.348833583477884" lon="10.825897836187448"><ele>709.0</ele><time>2026-04-12T10:05:06Z</time></trkpt><trkpt lat="44.348761125680696" lon="10.826010596944993"><ele>712.6</ele><time>2026-04-12T10:05:07Z</time></trkpt><trkpt lat="44.348723964252464" lon="10.826151876566971"><ele>716.2</ele><time>2026-04-12T10:05:08Z</time></trkpt><trkpt lat="44.34868364554622" lon="10.826279493545108"><ele>719.8000000000001</ele><time>2026-04-12T10:05:09Z</time></trkpt><trkpt lat="44.34863125181874" lon="10.8263979703115"><ele>723.4000000000001</ele><time>2026-04-12T10:05:10Z</time></trkpt><trkpt lat="44.34861409763791" lon="10.826524419570521"><ele>727.0</ele><time>2026-04-12T10:05:11Z</time></trkpt><trkpt lat="44.34856897237609" lon="10.826640448896994"><ele>727.0</ele><time>2026-04-12T10:05:12Z</time></trkpt><trkpt lat="44.3485349413495" lon="10.8267486572918"><ele>727.0</ele><time>2026-04-12T10:05:13Z</time></trkpt><trkpt lat="44.348490879796024" lon="10.826848107946233"><ele>727.0</ele><time>2026-04-12T10:05:14Z</time></trkpt><trkpt lat="44.34838956247671" lon="10.826960277167458"><ele>727.0</ele><time>2026-04-12T10:05:16Z</time></trkpt><trkpt lat="44.34833135912413" lon="10.827022140744615"><ele>727.0</ele><time>2026-04-12T10:05:17Z</time></trkpt><trkpt lat="44.34827265408001" lon="10.827071144567537"><ele>727.0</ele><time>2026-04-12T10:05:18Z</time></trkpt><trkpt lat="44.34818146199347" lon="10.82711447520188"><ele>726.75</ele><time>2026-04-12T10:05:20Z</time></trkpt><trkpt lat="44.34808539055682" lon="10.827032872553515"><ele>726.5</ele><time>2026-04-12T10:05:22Z</time></trkpt><trkpt lat="44.347993325418514" lon="10.82700007713753"><ele>726.25</ele><time>2026-04-12T10:05:23Z</time></trkpt><trkpt lat="44.34787137370864" lon="10.826990031750727"><ele>726.0</ele><time>2026-04-12T10:05:24Z</time></trkpt><trkpt lat="44.347729688222095" lon="10.826989594395805"><ele>725.0</ele><time>2026-04-12T10:05:25Z</time></trkpt><trkpt lat="44.347591706577525" lon="10.826946723187946"><ele>724.0</ele><time>2026-04-12T10:05:26Z</time></trkpt><trkpt lat="44.347479304266535" lon="10.826910067325482"><ele>723.0</ele><time>2026-04-12T10:05:27Z</time></trkpt><trkpt lat="44.34736907917763" lon="10.826863354272723"><ele>722.0</ele><time>2026-04-12T10:05:28Z</time></trkpt><trkpt lat="44.347254435504645" lon="10.826827288280613"><ele>724.75</ele><time>2026-04-12T10:05:29Z</time></trkpt><trkpt lat="44.34714135378956" lon="10.826763651767983"><ele>727.5</ele><time>2026-04-12T10:05:30Z</time></trkpt><trkpt lat="44.3470348267086" lon="10.826694631383186"><ele>730.25</ele><time>2026-04-12T10:05:31Z</time></trkpt><trkpt lat="44.34693095736727" lon="10.826627979553102"><ele>733.0</ele><time>2026-04-12T10:05:32Z</time></trkpt><trkpt lat="44.34683144912829" lon="10.826562837426655"><ele>733.0</ele><time>2026-04-12T10:05:33Z</time></trkpt><trkpt lat="44.34673413445662" lon="10.826466972419214"><ele>733.0</ele><time>2026-04-12T10:05:34Z</time></trkpt><trkpt lat="44.34662947931518" lon="10.826392648267246"><ele>733.0</ele><time>2026-04-12T10:05:35Z</time></trkpt><trkpt lat="44.3465134429477" lon="10.826339150513823"><ele>733.0</ele><time>2026-04-12T10:05:36Z</time></trkpt><trkpt lat="44.346410281516185" lon="10.826291992037474"><ele>732.75</ele><time>2026-04-12T10:05:37Z</time></trkpt><trkpt lat="44.34629583987468" lon="10.82627005923167"><ele>732.5</ele><time>2026-04-12T10:05:38Z</time></trkpt><trkpt lat="44.3461710804524" lon="10.826279305761938"><ele>732.25</ele><time>2026-04-12T10:05:39Z</time></trkpt><trkpt lat="44.34603184942047" lon="10.826271675841483"><ele>732.0</ele><time>2026-04-12T10:05:40Z</time></trkpt><trkpt lat="44.34586943676873" lon="10.826281487222436"><ele>732.0</ele><time>2026-04-12T10:05:41Z</time></trkpt><trkpt lat="44.34569818176065" lon="10.82629217109"><ele>732.0</ele><time>2026-04-12T10:05:42Z</time></trkpt><trkpt lat="44.345546169966156" lon="10.826316032290881"><ele>732.0</ele><time>2026-04-12T10:05:43Z</time></trkpt><trkpt lat="44.34539634908161" lon="10.826326630102528"><ele>732.5</ele><time>2026-04-12T10:05:44Z</time></trkpt><trkpt lat="44.345262336330656" lon="10.826339218162483"><ele>733.0</ele><time>2026-04-12T10:05:45Z</time></trkpt><trkpt lat="44.34514222195862" lon="10.826350685441255"><ele>733.5</ele><time>2026-04-12T10:05:46Z</time></trkpt><trkpt lat="44.34503500689749" lon="10.82635925998245"><ele>734.0</ele><time>2026-04-12T10:05:47Z</time></trkpt><trkpt lat="44.34493272475446" lon="10.826331530713421"><ele>734.0</ele><time>2026-04-12T10:05:48Z</time></trkpt><trkpt lat="44.3448368182852" lon="10.826298696116947"><ele>734.0</ele><time>2026-04-12T10:05:49Z</time></trkpt><trkpt lat="44.344744596797824" lon="10.826264163928474"><ele>734.0</ele><time>2026-04-12T10:05:50Z</time></trkpt><trkpt lat="44.34464680397732" lon="10.826255554130046"><ele>734.0</ele><time>2026-04-12T10:05:51Z</time></trkpt><trkpt lat="44.34454339314896" lon="10.826205538479307"><ele>734.0</ele><time>2026-04-12T10:05:51.999Z</time></trkpt><trkpt lat="44.34444184990175" lon="10.8261800248904"><ele>733.2</ele><time>2026-04-12T10:05:52.999Z</time></trkpt><trkpt lat="44.344333558840454" lon="10.826153122872217"><ele>732.4000000000001</ele><time>2026-04-12T10:05:53.999Z</time></trkpt><trkpt lat="44.34423970782725" lon="10.826130235556905"><ele>731.6</ele><time>2026-04-12T10:05:54.999Z</time></trkpt><trkpt lat="44.344137831573136" lon="10.826106169447476"><ele>730.8</ele><time>2026-04-12T10:05:55.999Z</time></trkpt><trkpt lat="44.34403051196886" lon="10.826060711613678"><ele>730.0</ele><time>2026-04-12T10:05:56.999Z</time></trkpt><trkpt lat="44.343931196456495" lon="10.8259664132249"><ele>729.25</ele><time>2026-04-12T10:05:57.999Z</time></trkpt><trkpt lat="44.34379203696087" lon="10.825908833662135"><ele>728.5</ele><time>2026-04-12T10:05:58.999Z</time></trkpt><trkpt lat="44.34366168452943" lon="10.82582326196628"><ele>727.75</ele><time>2026-04-12T10:05:59.999Z</time></trkpt><trkpt lat="44.34352210094975" lon="10.825744244418694"><ele>727.0</ele><time>2026-04-12T10:06:00.999Z</time></trkpt><trkpt lat="44.34340616217618" lon="10.82568022504483"><ele>727.0</ele><time>2026-04-12T10:06:01.999Z</time></trkpt><trkpt lat="44.34330594849397" lon="10.825601960125242"><ele>727.0</ele><time>2026-04-12T10:06:02.999Z</time></trkpt><trkpt lat="44.34319943948399" lon="10.825555027251768"><ele>727.0</ele><time>2026-04-12T10:06:03.999Z</time></trkpt><trkpt lat="44.34309990178256" lon="10.825487397926729"><ele>727.0</ele><time>2026-04-12T10:06:04.999Z</time></trkpt><trkpt lat="44.343003378533446" lon="10.825412252936701"><ele>727.0</ele><time>2026-04-12T10:06:05.999Z</time></trkpt><trkpt lat="44.34292595895741" lon="10.825301033861466"><ele>727.4000000000001</ele><time>2026-04-12T10:06:06.999Z</time></trkpt><trkpt lat="44.34281146691379" lon="10.825232998167873"><ele>727.8000000000001</ele><time>2026-04-12T10:06:07.999Z</time></trkpt><trkpt lat="44.34271441170945" lon="10.825161786788833"><ele>728.2</ele><time>2026-04-12T10:06:08.999Z</time></trkpt><trkpt lat="44.342622877992525" lon="10.825087266354712"><ele>728.6</ele><time>2026-04-12T10:06:09.999Z</time></trkpt><trkpt lat="44.34255977058843" lon="10.825019283058174"><ele>729.0</ele><time>2026-04-12T10:06:10.999Z</time></trkpt><trkpt lat="44.34248954549722" lon="10.824937939231525"><ele>729.0</ele><time>2026-04-12T10:06:11.999Z</time></trkpt><trkpt lat="44.342425405697135" lon="10.8248465559502"><ele>729.0</ele><time>2026-04-12T10:06:12.999Z</time></trkpt><trkpt lat="44.34236375514895" lon="10.824766784275663"><ele>729.0</ele><time>2026-04-12T10:06:13.999Z</time></trkpt><trkpt lat="44.342294381287026" lon="10.824690838820382"><ele>729.0</ele><time>2026-04-12T10:06:14.999Z</time></trkpt><trkpt lat="44.34221367310783" lon="10.824616021577139"><ele>729.0</ele><time>2026-04-12T10:06:15.999Z</time></trkpt><trkpt lat="44.34211330614712" lon="10.824571523859774"><ele>730.0</ele><time>2026-04-12T10:06:16.999Z</time></trkpt><trkpt lat="44.34201038728778" lon="10.824527864005798"><ele>731.0</ele><time>2026-04-12T10:06:17.999Z</time></trkpt><trkpt lat="44.34192474027431" lon="10.824489205120218"><ele>732.0</ele><time>2026-04-12T10:06:18.999Z</time></trkpt><trkpt lat="44.34184314003712" lon="10.824451948732039"><ele>733.0</ele><time>2026-04-12T10:06:19.999Z</time></trkpt><trkpt lat="44.34177001572935" lon="10.824418509817198"><ele>734.0</ele><time>2026-04-12T10:06:20.999Z</time></trkpt><trkpt lat="44.34167259896731" lon="10.824373962248599"><ele>734.0</ele><time>2026-04-12T10:06:21.999Z</time></trkpt><trkpt lat="44.34158213124596" lon="10.824337351844978"><ele>734.0</ele><time>2026-04-12T10:06:22.999Z</time></trkpt><trkpt lat="44.34148027443745" lon="10.824306420812727"><ele>734.0</ele><time>2026-04-12T10:06:23.999Z</time></trkpt><trkpt lat="44.34141759566145" lon="10.824278815378786"><ele>734.0</ele><time>2026-04-12T10:06:24.999Z</time></trkpt><trkpt lat="44.3412890946128" lon="10.824172179042376"><ele>734.0</ele><time>2026-04-12T10:06:26.999Z</time></trkpt><trkpt lat="44.3412363799395" lon="10.824080905973753"><ele>733.0</ele><time>2026-04-12T10:06:27.999Z</time></trkpt><trkpt lat="44.34119838909444" lon="10.823976834934953"><ele>732.0</ele><time>2026-04-12T10:06:28.999Z</time></trkpt><trkpt lat="44.34115548167644" lon="10.823855042953237"><ele>731.0</ele><time>2026-04-12T10:06:29.999Z</time></trkpt><trkpt lat="44.3411304963277" lon="10.823734080515756"><ele>730.0</ele><time>2026-04-12T10:06:30.999Z</time></trkpt><trkpt lat="44.34111461730992" lon="10.823609370170365"><ele>729.0</ele><time>2026-04-12T10:06:31.999Z</time></trkpt><trkpt lat="44.34108633712736" lon="10.823487940927079"><ele>725.6</ele><time>2026-04-12T10:06:32.999Z</time></trkpt><trkpt lat="44.34108800117759" lon="10.823354690057897"><ele>722.2</ele><time>2026-04-12T10:06:33.999Z</time></trkpt><trkpt lat="44.34110881360058" lon="10.823224941377052"><ele>718.8000000000001</ele><time>2026-04-12T10:06:34.999Z</time></trkpt><trkpt lat="44.341150297187475" lon="10.823098659107579"><ele>715.4000000000001</ele><time>2026-04-12T10:06:35.999Z</time></trkpt><trkpt lat="44.34118155940855" lon="10.822965473200783"><ele>712.0</ele><time>2026-04-12T10:06:36.999Z</time></trkpt><trkpt lat="44.34117818003954" lon="10.822822058733983"><ele>712.0</ele><time>2026-04-12T10:06:37.999Z</time></trkpt><trkpt lat="44.341169231099016" lon="10.822672893353445"><ele>712.0</ele><time>2026-04-12T10:06:38.999Z</time></trkpt><trkpt lat="44.34117283713372" lon="10.82253500321379"><ele>712.0</ele><time>2026-04-12T10:06:39.999Z</time></trkpt><trkpt lat="44.34112343299854" lon="10.822422781511234"><ele>712.0</ele><time>2026-04-12T10:06:40.999Z</time></trkpt><trkpt lat="44.34106483762756" lon="10.82230025481664"><ele>712.0</ele><time>2026-04-12T10:06:41.999Z</time></trkpt><trkpt lat="44.3409955721242" lon="10.822168402733327"><ele>709.2</ele><time>2026-04-12T10:06:42.999Z</time></trkpt><trkpt lat="44.340949140033985" lon="10.822028770150972"><ele>706.4000000000001</ele><time>2026-04-12T10:06:43.999Z</time></trkpt><trkpt lat="44.34090510792603" lon="10.821880232506684"><ele>703.5999999999999</ele><time>2026-04-12T10:06:44.999Z</time></trkpt><trkpt lat="44.340856980850766" lon="10.821740360722055"><ele>700.8</ele><time>2026-04-12T10:06:45.999Z</time></trkpt><trkpt lat="44.34081689715651" lon="10.821623956542615"><ele>698.0</ele><time>2026-04-12T10:06:46.999Z</time></trkpt><trkpt lat="44.34078547218807" lon="10.821532935258226"><ele>696.75</ele><time>2026-04-12T10:06:47.999Z</time></trkpt><trkpt lat="44.34074878676307" lon="10.821421058613488"><ele>695.5</ele><time>2026-04-12T10:06:49.999Z</time></trkpt><trkpt lat="44.34058302814281" lon="10.821410767513514"><ele>694.25</ele><time>2026-04-12T10:06:56.998Z</time></trkpt><trkpt lat="44.34049793746027" lon="10.821455431246083"><ele>693.0</ele><time>2026-04-12T10:06:57.998Z</time></trkpt><trkpt lat="44.34039675994622" lon="10.821515156218675"><ele>693.0</ele><time>2026-04-12T10:06:58.998Z</time></trkpt><trkpt lat="44.34026918104077" lon="10.82158243841758"><ele>693.0</ele><time>2026-04-12T10:06:59.998Z</time></trkpt><trkpt lat="44.34013295548515" lon="10.821660638674835"><ele>693.0</ele><time>2026-04-12T10:07:00.998Z</time></trkpt><trkpt lat="44.34002420714491" lon="10.821743134565425"><ele>693.0</ele><time>2026-04-12T10:07:01.998Z</time></trkpt><trkpt lat="44.339945089602764" lon="10.82183372281475"><ele>693.2</ele><time>2026-04-12T10:07:02.998Z</time></trkpt><trkpt lat="44.33987500383406" lon="10.821936074252868"><ele>693.4</ele><time>2026-04-12T10:07:04Z</time></trkpt><trkpt lat="44.33982292385317" lon="10.822002452898086"><ele>693.6</ele><time>2026-04-12T10:07:05Z</time></trkpt><trkpt lat="44.33972404251793" lon="10.821941015016094"><ele>693.8000000000001</ele><time>2026-04-12T10:07:07Z</time></trkpt><trkpt lat="44.33963529046208" lon="10.821943504623771"><ele>694.0</ele><time>2026-04-12T10:07:08Z</time></trkpt><trkpt lat="44.33954405071342" lon="10.821916247124681"><ele>695.0</ele><time>2026-04-12T10:07:09Z</time></trkpt><trkpt lat="44.33946076937914" lon="10.82189232212906"><ele>696.0</ele><time>2026-04-12T10:07:10Z</time></trkpt><trkpt lat="44.339377982795085" lon="10.82186892370762"><ele>697.0</ele><time>2026-04-12T10:07:11Z</time></trkpt><trkpt lat="44.33929864867102" lon="10.821812566157446"><ele>698.0</ele><time>2026-04-12T10:07:12Z</time></trkpt><trkpt lat="44.33921353941891" lon="10.821772788110177"><ele>699.0</ele><time>2026-04-12T10:07:13Z</time></trkpt><trkpt lat="44.339135030724464" lon="10.821748547030527"><ele>700.0</ele><time>2026-04-12T10:07:14Z</time></trkpt><trkpt lat="44.339060080576985" lon="10.821746999807418"><ele>700.0</ele><time>2026-04-12T10:07:15Z</time></trkpt><trkpt lat="44.33897306737349" lon="10.821827182876586"><ele>700.0</ele><time>2026-04-12T10:07:16Z</time></trkpt><trkpt lat="44.33888863451614" lon="10.821882751002375"><ele>700.0</ele><time>2026-04-12T10:07:17Z</time></trkpt><trkpt lat="44.33882011793666" lon="10.821880590949325"><ele>700.0</ele><time>2026-04-12T10:07:18Z</time></trkpt><trkpt lat="44.33874784509457" lon="10.821891219391057"><ele>700.0</ele><time>2026-04-12T10:07:19Z</time></trkpt><trkpt lat="44.33866871991737" lon="10.821864943363368"><ele>700.0</ele><time>2026-04-12T10:07:20Z</time></trkpt><trkpt lat="44.33860382376717" lon="10.821863506841751"><ele>701.8</ele><time>2026-04-12T10:07:21Z</time></trkpt><trkpt lat="44.338483620269464" lon="10.821931417216273"><ele>703.6</ele><time>2026-04-12T10:07:23Z</time></trkpt><trkpt lat="44.33836698634357" lon="10.82201184605695"><ele>705.4000000000001</ele><time>2026-04-12T10:07:25Z</time></trkpt><trkpt lat="44.338278581839994" lon="10.822058444479389"><ele>707.2</ele><time>2026-04-12T10:07:26Z</time></trkpt><trkpt lat="44.33819413573296" lon="10.822100138055243"><ele>709.0</ele><time>2026-04-12T10:07:27Z</time></trkpt><trkpt lat="44.33811223168173" lon="10.822135365658651"><ele>709.4000000000001</ele><time>2026-04-12T10:07:28Z</time></trkpt><trkpt lat="44.33802801072988" lon="10.822168640123229"><ele>709.8</ele><time>2026-04-12T10:07:29Z</time></trkpt><trkpt lat="44.337932368678466" lon="10.82219955923926"><ele>710.2</ele><time>2026-04-12T10:07:30Z</time></trkpt><trkpt lat="44.33783872482523" lon="10.822219303011453"><ele>710.5999999999999</ele><time>2026-04-12T10:07:31Z</time></trkpt><trkpt lat="44.337718183645045" lon="10.822233704221214"><ele>711.0</ele><time>2026-04-12T10:07:32Z</time></trkpt><trkpt lat="44.337613068245446" lon="10.822241491078682"><ele>711.0</ele><time>2026-04-12T10:07:33Z</time></trkpt><trkpt lat="44.3375117720901" lon="10.822248588251165"><ele>711.0</ele><time>2026-04-12T10:07:34Z</time></trkpt><trkpt lat="44.33739866051269" lon="10.822250404780997"><ele>711.0</ele><time>2026-04-12T10:07:35Z</time></trkpt><trkpt lat="44.337321895592815" lon="10.822248310241141"><ele>711.0</ele><time>2026-04-12T10:07:36Z</time></trkpt><trkpt lat="44.33724195436357" lon="10.82224401679333"><ele>711.0</ele><time>2026-04-12T10:07:37Z</time></trkpt><trkpt lat="44.337167568981016" lon="10.822235404460326"><ele>711.0</ele><time>2026-04-12T10:07:38Z</time></trkpt><trkpt lat="44.33703588125367" lon="10.8221761976094"><ele>712.0</ele><time>2026-04-12T10:07:40Z</time></trkpt><trkpt lat="44.33692857538337" lon="10.822095817480703"><ele>713.0</ele><time>2026-04-12T10:07:41Z</time></trkpt><trkpt lat="44.33680231392462" lon="10.822000844155246"><ele>714.0</ele><time>2026-04-12T10:07:42Z</time></trkpt><trkpt lat="44.3366945691554" lon="10.821941953669457"><ele>715.0</ele><time>2026-04-12T10:07:43Z</time></trkpt><trkpt lat="44.336586846269874" lon="10.8218471642631"><ele>715.0</ele><time>2026-04-12T10:07:44Z</time></trkpt><trkpt lat="44.33648519337599" lon="10.821781393781865"><ele>715.0</ele><time>2026-04-12T10:07:45Z</time></trkpt><trkpt lat="44.3364116998055" lon="10.821737968341267"><ele>715.0</ele><time>2026-04-12T10:07:46Z</time></trkpt><trkpt lat="44.33634144042829" lon="10.821709898599787"><ele>715.0</ele><time>2026-04-12T10:07:47Z</time></trkpt><trkpt lat="44.33624533671936" lon="10.821694646883408"><ele>715.0</ele><time>2026-04-12T10:07:49Z</time></trkpt><trkpt lat="44.336239227114085" lon="10.821603060687528"><ele>715.0</ele><time>2026-04-12T10:07:50Z</time></trkpt><trkpt lat="44.336146296497986" lon="10.821446510816548"><ele>716.1666666666667</ele><time>2026-04-12T10:07:51.999Z</time></trkpt><trkpt lat="44.33605867429323" lon="10.8213525987125"><ele>717.3333333333334</ele><time>2026-04-12T10:07:52.999Z</time></trkpt><trkpt lat="44.335983831032834" lon="10.82124867203613"><ele>718.5</ele><time>2026-04-12T10:07:53.999Z</time></trkpt><trkpt lat="44.33591313374062" lon="10.821184049303323"><ele>719.6666666666666</ele><time>2026-04-12T10:07:54.999Z</time></trkpt><trkpt lat="44.33586286500705" lon="10.821116454782729"><ele>720.8333333333333</ele><time>2026-04-12T10:07:55.999Z</time></trkpt><trkpt lat="44.33581501802628" lon="10.82105305486126"><ele>722.0</ele><time>2026-04-12T10:07:56.999Z</time></trkpt><trkpt lat="44.33573149353116" lon="10.820975158985169"><ele>723.1666666666666</ele><time>2026-04-12T10:07:58.999Z</time></trkpt><trkpt lat="44.335664060576725" lon="10.820893128075419"><ele>724.3333333333333</ele><time>2026-04-12T10:07:59.999Z</time></trkpt><trkpt lat="44.335606120388746" lon="10.82082852954568"><ele>725.5</ele><time>2026-04-12T10:08:00.999Z</time></trkpt><trkpt lat="44.335516757932496" lon="10.820756076640402"><ele>726.6666666666666</ele><time>2026-04-12T10:08:01.999Z</time></trkpt><trkpt lat="44.33544009160439" lon="10.820691422473455"><ele>727.8333333333334</ele><time>2026-04-12T10:08:02.999Z</time></trkpt><trkpt lat="44.335371892876566" lon="10.820668125916965"><ele>729.0</ele><time>2026-04-12T10:08:03.999Z</time></trkpt><trkpt lat="44.335286431431435" lon="10.820667666982418"><ele>731.6</ele><time>2026-04-12T10:08:04.999Z</time></trkpt><trkpt lat="44.33519095327845" lon="10.820614010703903"><ele>734.2</ele><time>2026-04-12T10:08:05.999Z</time></trkpt><trkpt lat="44.33509865429632" lon="10.820559280257514"><ele>736.8000000000001</ele><time>2026-04-12T10:08:06.999Z</time></trkpt><trkpt lat="44.334965714142044" lon="10.82046193511222"><ele>739.4000000000001</ele><time>2026-04-12T10:08:09.999Z</time></trkpt><trkpt lat="44.3349061752548" lon="10.820413997694036"><ele>742.0</ele><time>2026-04-12T10:08:10.999Z</time></trkpt><trkpt lat="44.33483539837642" lon="10.820350550119391"><ele>742.0</ele><time>2026-04-12T10:08:11.999Z</time></trkpt><trkpt lat="44.3347568763009" lon="10.820273017775092"><ele>742.0</ele><time>2026-04-12T10:08:12.999Z</time></trkpt><trkpt lat="44.33470666084686" lon="10.820218974550777"><ele>742.0</ele><time>2026-04-12T10:08:13.999Z</time></trkpt><trkpt lat="44.33463555878608" lon="10.820137812570058"><ele>742.0</ele><time>2026-04-12T10:08:14.999Z</time></trkpt><trkpt lat="44.33454009337535" lon="10.820022442511553"><ele>742.0</ele><time>2026-04-12T10:08:15.999Z</time></trkpt><trkpt lat="44.33446479584279" lon="10.81992204458505"><ele>745.0</ele><time>2026-04-12T10:08:16.999Z</time></trkpt><trkpt lat="44.334376372352445" lon="10.819799836169704"><ele>748.0</ele><time>2026-04-12T10:08:18.999Z</time></trkpt><trkpt lat="44.33432219238163" lon="10.819722530215302"><ele>751.0</ele><time>2026-04-12T10:08:19.999Z</time></trkpt><trkpt lat="44.33427059251672" lon="10.819640888856163"><ele>754.0</ele><time>2026-04-12T10:08:20.999Z</time></trkpt><trkpt lat="44.33422582390912" lon="10.819562008825606"><ele>757.0</ele><time>2026-04-12T10:08:21.999Z</time></trkpt><trkpt lat="44.33414765670357" lon="10.819416950857295"><ele>757.0</ele><time>2026-04-12T10:08:23.999Z</time></trkpt><trkpt lat="44.33410494797592" lon="10.81934451159128"><ele>757.0</ele><time>2026-04-12T10:08:24.999Z</time></trkpt><trkpt lat="44.334054771534966" lon="10.81927512799116"><ele>757.0</ele><time>2026-04-12T10:08:25.999Z</time></trkpt><trkpt lat="44.333967989913305" lon="10.819188421015681"><ele>757.0</ele><time>2026-04-12T10:08:27.999Z</time></trkpt><trkpt lat="44.3338956673023" lon="10.819222929630653"><ele>757.0</ele><time>2026-04-12T10:08:28.999Z</time></trkpt><trkpt lat="44.333828302198434" lon="10.819278763595994"><ele>757.0</ele><time>2026-04-12T10:08:29.999Z</time></trkpt><trkpt lat="44.33375268490224" lon="10.819332253725138"><ele>757.8333333333334</ele><time>2026-04-12T10:08:30.999Z</time></trkpt><trkpt lat="44.333686070624324" lon="10.819366476137569"><ele>758.6666666666667</ele><time>2026-04-12T10:08:31.999Z</time></trkpt><trkpt lat="44.33360874380626" lon="10.81940012888073"><ele>759.5</ele><time>2026-04-12T10:08:32.999Z</time></trkpt><trkpt lat="44.33354273292327" lon="10.819425353719328"><ele>760.3333333333334</ele><time>2026-04-12T10:08:33.999Z</time></trkpt><trkpt lat="44.33342028992359" lon="10.819456264635576"><ele>761.1666666666666</ele><time>2026-04-12T10:08:35.999Z</time></trkpt><trkpt lat="44.33335318438189" lon="10.819461507446007"><ele>762.0</ele><time>2026-04-12T10:08:36.999Z</time></trkpt><trkpt lat="44.33322805260238" lon="10.819430014937323"><ele>762.0</ele><time>2026-04-12T10:08:38.999Z</time></trkpt><trkpt lat="44.33309366937078" lon="10.819370354710104"><ele>762.0</ele><time>2026-04-12T10:08:40.999Z</time></trkpt><trkpt lat="44.33303533838197" lon="10.819335038672126"><ele>762.0</ele><time>2026-04-12T10:08:41.999Z</time></trkpt><trkpt lat="44.33296547837039" lon="10.819239928269848"><ele>762.0</ele><time>2026-04-12T10:08:43.999Z</time></trkpt><trkpt lat="44.33283114317872" lon="10.819122098705652"><ele>767.0</ele><time>2026-04-12T10:08:45.999Z</time></trkpt><trkpt lat="44.33276894646835" lon="10.819066263766386"><ele>772.0</ele><time>2026-04-12T10:08:46.999Z</time></trkpt><trkpt lat="44.332643466443805" lon="10.818999956400958"><ele>777.0</ele><time>2026-04-12T10:08:48.999Z</time></trkpt><trkpt lat="44.332569820480096" lon="10.818961974436746"><ele>782.0</ele><time>2026-04-12T10:08:49.999Z</time></trkpt><trkpt lat="44.33250597653325" lon="10.818931472123849"><ele>787.0</ele><time>2026-04-12T10:08:50.999Z</time></trkpt><trkpt lat="44.3323650541851" lon="10.818889112548108"><ele>786.9999999999999</ele><time>2026-04-12T10:08:52.999Z</time></trkpt><trkpt lat="44.332274065034255" lon="10.818883395622464"><ele>787.0</ele><time>2026-04-12T10:08:53.999Z</time></trkpt><trkpt lat="44.33219356661303" lon="10.818890727817305"><ele>787.0</ele><time>2026-04-12T10:08:54.999Z</time></trkpt><trkpt lat="44.33207446564148" lon="10.818903879583118"><ele>787.0</ele><time>2026-04-12T10:08:56.998Z</time></trkpt><trkpt lat="44.33200512942679" lon="10.818904187255306"><ele>786.9999999999999</ele><time>2026-04-12T10:08:58.998Z</time></trkpt><trkpt lat="44.33193319252124" lon="10.818883696724674"><ele>787.0</ele><time>2026-04-12T10:09:00.998Z</time></trkpt><trkpt lat="44.331846059455536" lon="10.818818682824551"><ele>789.6</ele><time>2026-04-12T10:09:06.998Z</time></trkpt><trkpt lat="44.3317826004516" lon="10.81874864604571"><ele>792.2</ele><time>2026-04-12T10:09:07.998Z</time></trkpt><trkpt lat="44.3317146804285" lon="10.81868151687996"><ele>794.8</ele><time>2026-04-12T10:09:10Z</time></trkpt><trkpt lat="44.331781005358195" lon="10.818555577853038"><ele>797.4</ele><time>2026-04-12T10:09:12Z</time></trkpt><trkpt lat="44.331736425191465" lon="10.818436486511317"><ele>800.0</ele><time>2026-04-12T10:09:15Z</time></trkpt><trkpt lat="44.33161351493252" lon="10.81852978421086"><ele>802.3333333333334</ele><time>2026-04-12T10:09:16Z</time></trkpt><trkpt lat="44.331567537688834" lon="10.818466203354703"><ele>804.6666666666667</ele><time>2026-04-12T10:09:19Z</time></trkpt><trkpt lat="44.331514330457665" lon="10.818402945220736"><ele>807.0</ele><time>2026-04-12T10:09:28Z</time></trkpt><trkpt lat="44.33145397745096" lon="10.818354679293359"><ele>809.3333333333333</ele><time>2026-04-12T10:09:30Z</time></trkpt><trkpt lat="44.33135790898662" lon="10.818299080270512"><ele>811.6666666666666</ele><time>2026-04-12T10:09:32Z</time></trkpt><trkpt lat="44.33125067446795" lon="10.818267783780607"><ele>814.0</ele><time>2026-04-12T10:09:34Z</time></trkpt><trkpt lat="44.331165109563024" lon="10.818260679637987"><ele>817.4000000000001</ele><time>2026-04-12T10:09:36Z</time></trkpt><trkpt lat="44.331117525722625" lon="10.818047079811352"><ele>820.8</ele><time>2026-04-12T10:09:40Z</time></trkpt><trkpt lat="44.33111363196522" lon="10.81794904989411"><ele>824.2</ele><time>2026-04-12T10:09:41Z</time></trkpt><trkpt lat="44.33106501118574" lon="10.817855078428963"><ele>827.5999999999999</ele><time>2026-04-12T10:09:51Z</time></trkpt><trkpt lat="44.331060087518686" lon="10.817748025913179"><ele>831.0</ele><time>2026-04-12T10:09:55.999Z</time></trkpt><trkpt lat="44.33100995230982" lon="10.817686261905692"><ele>831.0</ele><time>2026-04-12T10:09:58.999Z</time></trkpt><trkpt lat="44.330937865485915" lon="10.817663006151053"><ele>831.0</ele><time>2026-04-12T10:10:00.999Z</time></trkpt><trkpt lat="44.330840467997184" lon="10.817638738703442"><ele>831.0</ele><time>2026-04-12T10:10:03.999Z</time></trkpt><trkpt lat="44.33077669187431" lon="10.817631874692298"><ele>831.0</ele><time>2026-04-12T10:10:05.999Z</time></trkpt><trkpt lat="44.33070984487634" lon="10.81759805219337"><ele>831.0</ele><time>2026-04-12T10:10:07.999Z</time></trkpt><trkpt lat="44.33062298546785" lon="10.817563362971338"><ele>831.0</ele><time>2026-04-12T10:10:09.999Z</time></trkpt><trkpt lat="44.33053770744214" lon="10.817535307195085"><ele>829.4</ele><time>2026-04-12T10:10:11.999Z</time></trkpt><trkpt lat="44.33045228132803" lon="10.81743412857201"><ele>827.8</ele><time>2026-04-12T10:10:14.999Z</time></trkpt><trkpt lat="44.33039016600985" lon="10.817306485698035"><ele>826.1999999999999</ele><time>2026-04-12T10:10:16.999Z</time></trkpt><trkpt lat="44.33033692028817" lon="10.81720454885696"><ele>824.5999999999999</ele><time>2026-04-12T10:10:19.999Z</time></trkpt><trkpt lat="44.33027252529679" lon="10.817118849003489"><ele>823.0</ele><time>2026-04-12T10:10:21.999Z</time></trkpt><trkpt lat="44.33021220161717" lon="10.817012146132416"><ele>823.0</ele><time>2026-04-12T10:10:23.999Z</time></trkpt><trkpt lat="44.330170547846805" lon="10.816929529044636"><ele>823.0</ele><time>2026-04-12T10:10:25.999Z</time></trkpt><trkpt lat="44.33011269408048" lon="10.816822518178869"><ele>823.0</ele><time>2026-04-12T10:10:27.999Z</time></trkpt><trkpt lat="44.33005280209318" lon="10.816737563254177"><ele>823.0</ele><time>2026-04-12T10:10:29.999Z</time></trkpt><trkpt lat="44.329962361551075" lon="10.81674031957095"><ele>823.0</ele><time>2026-04-12T10:10:31.999Z</time></trkpt><trkpt lat="44.32984941105402" lon="10.816760960291775"><ele>825.2</ele><time>2026-04-12T10:10:33.999Z</time></trkpt><trkpt lat="44.32971797519814" lon="10.816790091177015"><ele>827.4</ele><time>2026-04-12T10:10:35.999Z</time></trkpt><trkpt lat="44.329645075030015" lon="10.816811999830879"><ele>829.6</ele><time>2026-04-12T10:10:36.999Z</time></trkpt><trkpt lat="44.329544191898044" lon="10.816824960724913"><ele>831.8000000000001</ele><time>2026-04-12T10:10:38.999Z</time></trkpt><trkpt lat="44.329412440975126" lon="10.816858369757146"><ele>834.0</ele><time>2026-04-12T10:10:40.999Z</time></trkpt><trkpt lat="44.32926664475552" lon="10.816827200037222"><ele>834.0</ele><time>2026-04-12T10:10:42.999Z</time></trkpt><trkpt lat="44.329201163508486" lon="10.816809937474684"><ele>834.0</ele><time>2026-04-12T10:10:43.999Z</time></trkpt><trkpt lat="44.32905444041184" lon="10.816820060370723"><ele>834.0</ele><time>2026-04-12T10:10:45.999Z</time></trkpt><trkpt lat="44.32898576654008" lon="10.816819270224059"><ele>834.0</ele><time>2026-04-12T10:10:46.999Z</time></trkpt><trkpt lat="44.32892111843801" lon="10.81683041576089"><ele>834.0</ele><time>2026-04-12T10:10:47.999Z</time></trkpt><trkpt lat="44.32885142522322" lon="10.81682272798841"><ele>834.0</ele><time>2026-04-12T10:10:48.999Z</time></trkpt><trkpt lat="44.328771984301916" lon="10.816788651177655"><ele>834.1666666666666</ele><time>2026-04-12T10:10:49.999Z</time></trkpt><trkpt lat="44.32868978888092" lon="10.81676108706826"><ele>834.3333333333333</ele><time>2026-04-12T10:10:50.999Z</time></trkpt><trkpt lat="44.32860933873451" lon="10.816769167330875"><ele>834.5</ele><time>2026-04-12T10:10:52.999Z</time></trkpt><trkpt lat="44.328523285163136" lon="10.816768034333007"><ele>834.6666666666666</ele><time>2026-04-12T10:11:18Z</time></trkpt><trkpt lat="44.32843430514988" lon="10.816826873536568"><ele>834.8333333333333</ele><time>2026-04-12T10:11:20Z</time></trkpt><trkpt lat="44.328365600832434" lon="10.816887772007748"><ele>835.0</ele><time>2026-04-12T10:11:21Z</time></trkpt><trkpt lat="44.32823386525793" lon="10.816912565257757"><ele>834.9999999999999</ele><time>2026-04-12T10:11:23Z</time></trkpt><trkpt lat="44.3281596226876" lon="10.816913017408108"><ele>835.0</ele><time>2026-04-12T10:11:24Z</time></trkpt><trkpt lat="44.328078640906035" lon="10.81693581113091"><ele>835.0</ele><time>2026-04-12T10:11:25Z</time></trkpt><trkpt lat="44.32796741207446" lon="10.816951937863546"><ele>835.0</ele><time>2026-04-12T10:11:27Z</time></trkpt><trkpt lat="44.32789986621201" lon="10.816973921536224"><ele>834.9999999999999</ele><time>2026-04-12T10:11:28Z</time></trkpt><trkpt lat="44.327835162859046" lon="10.817014459519577"><ele>835.0</ele><time>2026-04-12T10:11:29Z</time></trkpt><trkpt lat="44.3277708840368" lon="10.817002011163396"><ele>835.3333333333333</ele><time>2026-04-12T10:11:30Z</time></trkpt><trkpt lat="44.327692733358866" lon="10.817020741711417"><ele>835.6666666666666</ele><time>2026-04-12T10:11:31Z</time></trkpt><trkpt lat="44.327620173668535" lon="10.817028871430349"><ele>836.0</ele><time>2026-04-12T10:11:32Z</time></trkpt><trkpt lat="44.327550499076615" lon="10.817029407372392"><ele>836.3333333333333</ele><time>2026-04-12T10:11:33Z</time></trkpt><trkpt lat="44.32748609560809" lon="10.817018659361723"><ele>836.6666666666666</ele><time>2026-04-12T10:11:34Z</time></trkpt><trkpt lat="44.327364113479184" lon="10.817016866058692"><ele>837.0</ele><time>2026-04-12T10:11:36Z</time></trkpt><trkpt lat="44.3272559052457" lon="10.817023429207199"><ele>839.6666666666666</ele><time>2026-04-12T10:11:38Z</time></trkpt><trkpt lat="44.32716090170599" lon="10.817021695782579"><ele>842.3333333333333</ele><time>2026-04-12T10:11:40Z</time></trkpt><trkpt lat="44.3270977099891" lon="10.81700300575253"><ele>845.0</ele><time>2026-04-12T10:11:42Z</time></trkpt><trkpt lat="44.32702178584076" lon="10.816969261587069"><ele>847.6666666666666</ele><time>2026-04-12T10:11:45Z</time></trkpt><trkpt lat="44.32693944589794" lon="10.816968067941572"><ele>850.3333333333333</ele><time>2026-04-12T10:11:52Z</time></trkpt><trkpt lat="44.32687927293539" lon="10.81691350757578"><ele>853.0</ele><time>2026-04-12T10:15:30Z</time></trkpt><trkpt lat="44.32675561352061" lon="10.816882762790845"><ele>853.0</ele><time>2026-04-12T10:15:32Z</time></trkpt><trkpt lat="44.32667859670982" lon="10.816884272646409"><ele>853.0</ele><time>2026-04-12T10:15:33Z</time></trkpt><trkpt lat="44.32655938720804" lon="10.81684957217668"><ele>853.0</ele><time>2026-04-12T10:15:35Z</time></trkpt><trkpt lat="44.32648693760645" lon="10.816817010765805"><ele>853.0</ele><time>2026-04-12T10:15:36Z</time></trkpt><trkpt lat="44.326404802631714" lon="10.816793129936634"><ele>853.0</ele><time>2026-04-12T10:15:37Z</time></trkpt><trkpt lat="44.32630200171444" lon="10.81678137373887"><ele>848.3333333333333</ele><time>2026-04-12T10:15:38Z</time></trkpt><trkpt lat="44.32622284455729" lon="10.81678083287586"><ele>843.6666666666666</ele><time>2026-04-12T10:15:39Z</time></trkpt><trkpt lat="44.32615615095186" lon="10.81675826180065"><ele>839.0</ele><time>2026-04-12T10:15:40Z</time></trkpt><trkpt lat="44.326045165939995" lon="10.81670268872989"><ele>834.3333333333333</ele><time>2026-04-12T10:15:42Z</time></trkpt><trkpt lat="44.325933547212564" lon="10.81669867664596"><ele>829.6666666666666</ele><time>2026-04-12T10:15:44Z</time></trkpt><trkpt lat="44.325868686586155" lon="10.816698913755237"><ele>825.0</ele><time>2026-04-12T10:15:45Z</time></trkpt><trkpt lat="44.325804214197596" lon="10.81669969768746"><ele>825.0</ele><time>2026-04-12T10:15:46Z</time></trkpt><trkpt lat="44.325739540920644" lon="10.816687874956342"><ele>825.0</ele><time>2026-04-12T10:15:47Z</time></trkpt><trkpt lat="44.325669940984746" lon="10.816669336131415"><ele>825.0</ele><time>2026-04-12T10:15:48Z</time></trkpt><trkpt lat="44.32560628464647" lon="10.816640777459007"><ele>825.0</ele><time>2026-04-12T10:15:49Z</time></trkpt><trkpt lat="44.325535346449435" lon="10.816622803370912"><ele>825.0</ele><time>2026-04-12T10:15:50Z</time></trkpt><trkpt lat="44.3254667886065" lon="10.81659731608602"><ele>825.0</ele><time>2026-04-12T10:15:51Z</time></trkpt><trkpt lat="44.325349976357316" lon="10.816549095534214"><ele>825.8</ele><time>2026-04-12T10:15:53Z</time></trkpt><trkpt lat="44.32525387494542" lon="10.816455128372096"><ele>826.6</ele><time>2026-04-12T10:15:55Z</time></trkpt><trkpt lat="44.325147551618684" lon="10.816387990398152"><ele>827.4000000000001</ele><time>2026-04-12T10:15:57Z</time></trkpt><trkpt lat="44.3250741637574" lon="10.81636508595962"><ele>828.2</ele><time>2026-04-12T10:15:59Z</time></trkpt><trkpt lat="44.325019354871735" lon="10.816294445690746"><ele>829.0</ele><time>2026-04-12T10:16:00Z</time></trkpt><trkpt lat="44.32493941526579" lon="10.816233414489556"><ele>828.9999999999999</ele><time>2026-04-12T10:16:02Z</time></trkpt><trkpt lat="44.32482525063334" lon="10.816219632576692"><ele>829.0</ele><time>2026-04-12T10:16:04Z</time></trkpt><trkpt lat="44.324756284197086" lon="10.816249545091313"><ele>829.0</ele><time>2026-04-12T10:16:05.999Z</time></trkpt><trkpt lat="44.32467442623749" lon="10.816277327592664"><ele>829.0</ele><time>2026-04-12T10:16:06.999Z</time></trkpt><trkpt lat="44.32460252707537" lon="10.81634760806423"><ele>828.9999999999999</ele><time>2026-04-12T10:16:07.999Z</time></trkpt><trkpt lat="44.32455761761315" lon="10.816422877825149"><ele>829.0</ele><time>2026-04-12T10:16:08.999Z</time></trkpt><trkpt lat="44.32451357764897" lon="10.81649866150363"><ele>827.6</ele><time>2026-04-12T10:16:09.999Z</time></trkpt><trkpt lat="44.32444597031497" lon="10.816592138160873"><ele>826.2</ele><time>2026-04-12T10:16:10.999Z</time></trkpt><trkpt lat="44.32437866253613" lon="10.81666980422533"><ele>824.8000000000001</ele><time>2026-04-12T10:16:11.999Z</time></trkpt><trkpt lat="44.32428615157191" lon="10.816720212567736"><ele>823.4000000000001</ele><time>2026-04-12T10:16:12.999Z</time></trkpt><trkpt lat="44.32419310326859" lon="10.816751525656375"><ele>822.0</ele><time>2026-04-12T10:16:13.999Z</time></trkpt><trkpt lat="44.32407776708436" lon="10.816796085255776"><ele>822.0</ele><time>2026-04-12T10:16:14.999Z</time></trkpt><trkpt lat="44.324000702633455" lon="10.816818868428243"><ele>822.0</ele><time>2026-04-12T10:16:15.999Z</time></trkpt><trkpt lat="44.32391287900119" lon="10.816855439953112"><ele>822.0</ele><time>2026-04-12T10:16:16.999Z</time></trkpt><trkpt lat="44.323854666225465" lon="10.816898627082722"><ele>822.0</ele><time>2026-04-12T10:16:17.999Z</time></trkpt><trkpt lat="44.32378551702066" lon="10.816921360268518"><ele>822.0</ele><time>2026-04-12T10:16:18.999Z</time></trkpt><trkpt lat="44.32371239042558" lon="10.816962218340105"><ele>822.0</ele><time>2026-04-12T10:16:19.999Z</time></trkpt><trkpt lat="44.32362876524454" lon="10.817022240878638"><ele>827.1666666666666</ele><time>2026-04-12T10:16:20.999Z</time></trkpt><trkpt lat="44.323562941568404" lon="10.817039042300996"><ele>832.3333333333333</ele><time>2026-04-12T10:16:21.999Z</time></trkpt><trkpt lat="44.3234821333664" lon="10.81704517557372"><ele>837.5</ele><time>2026-04-12T10:16:22.999Z</time></trkpt><trkpt lat="44.32339388038103" lon="10.81704322288174"><ele>842.6666666666666</ele><time>2026-04-12T10:16:23.999Z</time></trkpt><trkpt lat="44.32328748007855" lon="10.817041039651077"><ele>847.8333333333333</ele><time>2026-04-12T10:16:24.999Z</time></trkpt><trkpt lat="44.323187958290795" lon="10.817041651988477"><ele>853.0</ele><time>2026-04-12T10:16:25.999Z</time></trkpt><trkpt lat="44.323104579091094" lon="10.816977654485537"><ele>851.8</ele><time>2026-04-12T10:16:26.999Z</time></trkpt><trkpt lat="44.32301666614273" lon="10.816963721109659"><ele>850.5999999999999</ele><time>2026-04-12T10:16:27.999Z</time></trkpt><trkpt lat="44.32293588930212" lon="10.816954532718855"><ele>849.4000000000001</ele><time>2026-04-12T10:16:28.999Z</time></trkpt><trkpt lat="44.32280543296201" lon="10.81694855970779"><ele>848.2</ele><time>2026-04-12T10:16:30.999Z</time></trkpt><trkpt lat="44.32268958249839" lon="10.81694765985324"><ele>847.0</ele><time>2026-04-12T10:16:32.999Z</time></trkpt><trkpt lat="44.32256848026642" lon="10.81694619149991"><ele>846.9999999999999</ele><time>2026-04-12T10:16:34.999Z</time></trkpt><trkpt lat="44.32249742670781" lon="10.816943455602821"><ele>847.0</ele><time>2026-04-12T10:16:35.999Z</time></trkpt><trkpt lat="44.322434106219056" lon="10.816939117310582"><ele>847.0</ele><time>2026-04-12T10:16:36.999Z</time></trkpt><trkpt lat="44.322367301663824" lon="10.81693433950744"><ele>847.0</ele><time>2026-04-12T10:16:37.999Z</time></trkpt><trkpt lat="44.322294951873126" lon="10.816926966978489"><ele>846.9999999999999</ele><time>2026-04-12T10:16:38.999Z</time></trkpt><trkpt lat="44.32220292104446" lon="10.81691574306825"><ele>847.0</ele><time>2026-04-12T10:16:39.999Z</time></trkpt><trkpt lat="44.322117028127565" lon="10.816901819973324"><ele>845.8</ele><time>2026-04-12T10:16:40.999Z</time></trkpt><trkpt lat="44.32204225932508" lon="10.816898068482487"><ele>844.6</ele><time>2026-04-12T10:16:41.999Z</time></trkpt><trkpt lat="44.3219611275737" lon="10.816860975205575"><ele>843.4</ele><time>2026-04-12T10:16:42.999Z</time></trkpt><trkpt lat="44.32188130721184" lon="10.816827683679508"><ele>842.1999999999999</ele><time>2026-04-12T10:16:43.999Z</time></trkpt><trkpt lat="44.32179447055639" lon="10.816806809393503"><ele>841.0</ele><time>2026-04-12T10:16:44.999Z</time></trkpt><trkpt lat="44.32166841488136" lon="10.816804639703378"><ele>840.9999999999999</ele><time>2026-04-12T10:16:46.999Z</time></trkpt><trkpt lat="44.32160601583579" lon="10.816820881824288"><ele>841.0</ele><time>2026-04-12T10:16:47.999Z</time></trkpt><trkpt lat="44.32152508874736" lon="10.816848466627777"><ele>841.0</ele><time>2026-04-12T10:16:48.999Z</time></trkpt><trkpt lat="44.32143785726287" lon="10.816893640774902"><ele>841.0</ele><time>2026-04-12T10:16:49.999Z</time></trkpt><trkpt lat="44.32137483127472" lon="10.81692680305651"><ele>840.9999999999999</ele><time>2026-04-12T10:16:50.999Z</time></trkpt><trkpt lat="44.32128107446293" lon="10.816967855116678"><ele>841.0</ele><time>2026-04-12T10:16:51.999Z</time></trkpt><trkpt lat="44.32118653373582" lon="10.816993896410061"><ele>841.4999999999999</ele><time>2026-04-12T10:16:52.999Z</time></trkpt><trkpt lat="44.32109635299568" lon="10.817004939577664"><ele>842.0</ele><time>2026-04-12T10:16:53.999Z</time></trkpt><trkpt lat="44.32099999197853" lon="10.81701058218227"><ele>842.5</ele><time>2026-04-12T10:16:54.999Z</time></trkpt><trkpt lat="44.32091636774626" lon="10.817009455873428"><ele>843.0</ele><time>2026-04-12T10:16:55.999Z</time></trkpt><trkpt lat="44.320839763856505" lon="10.817001095339574"><ele>843.4999999999999</ele><time>2026-04-12T10:16:56.999Z</time></trkpt><trkpt lat="44.32075393646179" lon="10.816981465346995"><ele>844.0</ele><time>2026-04-12T10:16:57.999Z</time></trkpt><trkpt lat="44.32066917791252" lon="10.816947417705775"><ele>844.0</ele><time>2026-04-12T10:16:58.999Z</time></trkpt><trkpt lat="44.320583658665974" lon="10.816901514576573"><ele>844.0</ele><time>2026-04-12T10:16:59.999Z</time></trkpt><trkpt lat="44.32049418037366" lon="10.816838122932799"><ele>844.0</ele><time>2026-04-12T10:17:00.999Z</time></trkpt><trkpt lat="44.3204013784102" lon="10.816769961026377"><ele>844.0</ele><time>2026-04-12T10:17:01.999Z</time></trkpt><trkpt lat="44.32033327612739" lon="10.81672105951937"><ele>844.0</ele><time>2026-04-12T10:17:02.999Z</time></trkpt><trkpt lat="44.32026152295735" lon="10.81666953657343"><ele>842.25</ele><time>2026-04-12T10:17:03.999Z</time></trkpt><trkpt lat="44.32019429406894" lon="10.816619305363332"><ele>840.5</ele><time>2026-04-12T10:17:04.999Z</time></trkpt><trkpt lat="44.32009746457343" lon="10.81654395718306"><ele>838.75</ele><time>2026-04-12T10:17:05.999Z</time></trkpt><trkpt lat="44.31998162571788" lon="10.816453165626712"><ele>837.0</ele><time>2026-04-12T10:17:06.999Z</time></trkpt><trkpt lat="44.319856829047986" lon="10.816353930366228"><ele>834.5</ele><time>2026-04-12T10:17:07.999Z</time></trkpt><trkpt lat="44.319728273844376" lon="10.816249768461804"><ele>832.0</ele><time>2026-04-12T10:17:08.999Z</time></trkpt><trkpt lat="44.31959920659256" lon="10.81614602240397"><ele>829.5</ele><time>2026-04-12T10:17:09.999Z</time></trkpt><trkpt lat="44.319469999527605" lon="10.816051272759262"><ele>827.0</ele><time>2026-04-12T10:17:10.999Z</time></trkpt><trkpt lat="44.31931956577663" lon="10.815962661313087"><ele>827.0</ele><time>2026-04-12T10:17:11.998Z</time></trkpt><trkpt lat="44.31920254095125" lon="10.815910630916635"><ele>827.0</ele><time>2026-04-12T10:17:12.998Z</time></trkpt><trkpt lat="44.31910672946552" lon="10.815870021984601"><ele>827.0</ele><time>2026-04-12T10:17:13.998Z</time></trkpt><trkpt lat="44.31900689059296" lon="10.815853760431887"><ele>827.0</ele><time>2026-04-12T10:17:14.998Z</time></trkpt><trkpt lat="44.318922498429664" lon="10.815826683889899"><ele>827.0</ele><time>2026-04-12T10:17:15.998Z</time></trkpt><trkpt lat="44.318832596252626" lon="10.815793546858401"><ele>827.6</ele><time>2026-04-12T10:17:16.998Z</time></trkpt><trkpt lat="44.3187380132675" lon="10.81577175472103"><ele>828.2</ele><time>2026-04-12T10:17:17.998Z</time></trkpt><trkpt lat="44.318624443132904" lon="10.815771366429791"><ele>828.8</ele><time>2026-04-12T10:17:18.998Z</time></trkpt><trkpt lat="44.318518338602054" lon="10.815764090299723"><ele>829.4</ele><time>2026-04-12T10:17:19.998Z</time></trkpt><trkpt lat="44.31841564875436" lon="10.815730754715458"><ele>830.0</ele><time>2026-04-12T10:17:20.998Z</time></trkpt><trkpt lat="44.31830506837562" lon="10.815682562956649"><ele>830.0</ele><time>2026-04-12T10:17:21.998Z</time></trkpt><trkpt lat="44.318172944130275" lon="10.815617597011332"><ele>830.0</ele><time>2026-04-12T10:17:22.998Z</time></trkpt><trkpt lat="44.31805599203305" lon="10.815562340130255"><ele>830.0</ele><time>2026-04-12T10:17:23.998Z</time></trkpt><trkpt lat="44.31793988692363" lon="10.81552261414308"><ele>830.0</ele><time>2026-04-12T10:17:24.998Z</time></trkpt><trkpt lat="44.317841465757645" lon="10.815462084467573"><ele>831.4</ele><time>2026-04-12T10:17:25.998Z</time></trkpt><trkpt lat="44.31773880285029" lon="10.815408859633578"><ele>832.8</ele><time>2026-04-12T10:17:26.998Z</time></trkpt><trkpt lat="44.317630568171076" lon="10.815353186285117"><ele>834.2</ele><time>2026-04-12T10:17:27.998Z</time></trkpt><trkpt lat="44.317534454678125" lon="10.815308419880829"><ele>835.6</ele><time>2026-04-12T10:17:28.998Z</time></trkpt><trkpt lat="44.31745012513198" lon="10.815274263120097"><ele>837.0</ele><time>2026-04-12T10:17:29.998Z</time></trkpt><trkpt lat="44.317352611990756" lon="10.815253738738154"><ele>837.0</ele><time>2026-04-12T10:17:30.998Z</time></trkpt><trkpt lat="44.31724538584249" lon="10.815253836509001"><ele>837.0</ele><time>2026-04-12T10:17:31.998Z</time></trkpt><trkpt lat="44.31711619503536" lon="10.815257229937052"><ele>837.0</ele><time>2026-04-12T10:17:32.998Z</time></trkpt><trkpt lat="44.31699732920512" lon="10.815260291902572"><ele>837.0</ele><time>2026-04-12T10:17:34Z</time></trkpt><trkpt lat="44.31689143841052" lon="10.815271896741297"><ele>838.5</ele><time>2026-04-12T10:17:35Z</time></trkpt><trkpt lat="44.31679829960141" lon="10.815314427958224"><ele>840.0</ele><time>2026-04-12T10:17:36Z</time></trkpt><trkpt lat="44.316674116221826" lon="10.81532641526091"><ele>841.5</ele><time>2026-04-12T10:17:37Z</time></trkpt><trkpt lat="44.316543008733014" lon="10.815357980664375"><ele>843.0</ele><time>2026-04-12T10:17:38Z</time></trkpt><trkpt lat="44.316427036110326" lon="10.815380964214166"><ele>843.4</ele><time>2026-04-12T10:17:39Z</time></trkpt><trkpt lat="44.31632331137631" lon="10.815414695073438"><ele>843.8</ele><time>2026-04-12T10:17:40Z</time></trkpt><trkpt lat="44.3162175020531" lon="10.81539521269061"><ele>844.2</ele><time>2026-04-12T10:17:41Z</time></trkpt><trkpt lat="44.31611180520158" lon="10.81536932689558"><ele>844.6</ele><time>2026-04-12T10:17:42Z</time></trkpt><trkpt lat="44.316011070538906" lon="10.815335860181394"><ele>845.0</ele><time>2026-04-12T10:17:43Z</time></trkpt><trkpt lat="44.31591213222529" lon="10.815294382700234"><ele>845.0</ele><time>2026-04-12T10:17:44Z</time></trkpt><trkpt lat="44.31583580616049" lon="10.815234918125533"><ele>845.0</ele><time>2026-04-12T10:17:45Z</time></trkpt><trkpt lat="44.315751850594154" lon="10.815138615760755"><ele>845.0</ele><time>2026-04-12T10:17:46Z</time></trkpt><trkpt lat="44.31566985403418" lon="10.815071199736307"><ele>845.0</ele><time>2026-04-12T10:17:47Z</time></trkpt><trkpt lat="44.31560450050396" lon="10.814985669851625"><ele>845.0</ele><time>2026-04-12T10:17:48Z</time></trkpt><trkpt lat="44.31554013586816" lon="10.814917317138114"><ele>841.4</ele><time>2026-04-12T10:17:49Z</time></trkpt><trkpt lat="44.31547937895272" lon="10.814863631617714"><ele>837.8</ele><time>2026-04-12T10:17:50Z</time></trkpt><trkpt lat="44.31540557532113" lon="10.814749047332706"><ele>834.2</ele><time>2026-04-12T10:17:52Z</time></trkpt><trkpt lat="44.315274172800336" lon="10.814747344451016"><ele>830.6</ele><time>2026-04-12T10:17:55Z</time></trkpt><trkpt lat="44.31519399889876" lon="10.814790828285245"><ele>827.0</ele><time>2026-04-12T10:17:56Z</time></trkpt><trkpt lat="44.315087097116475" lon="10.814807177656201"><ele>827.0</ele><time>2026-04-12T10:17:57Z</time></trkpt><trkpt lat="44.31496859195565" lon="10.814836769466554"><ele>827.0</ele><time>2026-04-12T10:17:58Z</time></trkpt><trkpt lat="44.31487425540368" lon="10.814877885274958"><ele>827.0</ele><time>2026-04-12T10:17:59Z</time></trkpt><trkpt lat="44.314787283699815" lon="10.814928999514335"><ele>827.0</ele><time>2026-04-12T10:18:00Z</time></trkpt><trkpt lat="44.31471340134938" lon="10.81498745605415"><ele>827.0</ele><time>2026-04-12T10:18:01Z</time></trkpt><trkpt lat="44.31464646567998" lon="10.815060805410464"><ele>828.0000000000001</ele><time>2026-04-12T10:18:02Z</time></trkpt><trkpt lat="44.31458639901876" lon="10.81511005764991"><ele>829.0</ele><time>2026-04-12T10:18:03Z</time></trkpt><trkpt lat="44.3145073172133" lon="10.81510601184922"><ele>830.0</ele><time>2026-04-12T10:18:04Z</time></trkpt><trkpt lat="44.31442461721537" lon="10.815096291514658"><ele>831.0</ele><time>2026-04-12T10:18:05Z</time></trkpt><trkpt lat="44.314356322027" lon="10.815111691128662"><ele>832.0000000000001</ele><time>2026-04-12T10:18:05.999Z</time></trkpt><trkpt lat="44.314246029626425" lon="10.815074200712724"><ele>833.0</ele><time>2026-04-12T10:18:07.999Z</time></trkpt><trkpt lat="44.31414030329271" lon="10.815011827237068"><ele>833.0</ele><time>2026-04-12T10:18:09.999Z</time></trkpt><trkpt lat="44.314024839136174" lon="10.814994220847996"><ele>833.0</ele><time>2026-04-12T10:18:11.999Z</time></trkpt><trkpt lat="44.31393587986196" lon="10.814967445840226"><ele>833.0</ele><time>2026-04-12T10:18:13.999Z</time></trkpt><trkpt lat="44.31375772799957" lon="10.814515767724032"><ele>835.4</ele><time>2026-04-12T10:18:31.999Z</time></trkpt><trkpt lat="44.313700084433506" lon="10.814412467591092"><ele>837.8</ele><time>2026-04-12T10:18:33.999Z</time></trkpt><trkpt lat="44.3136243508167" lon="10.814325822019857"><ele>840.2</ele><time>2026-04-12T10:18:35.999Z</time></trkpt><trkpt lat="44.31353745416606" lon="10.814279126383804"><ele>842.6</ele><time>2026-04-12T10:18:37.999Z</time></trkpt><trkpt lat="44.31345889587945" lon="10.814218769913822"><ele>845.0</ele><time>2026-04-12T10:18:39.999Z</time></trkpt><trkpt lat="44.31338193751576" lon="10.814131224472517"><ele>841.2</ele><time>2026-04-12T10:18:41.999Z</time></trkpt><trkpt lat="44.31334208528298" lon="10.814062036925854"><ele>837.4</ele><time>2026-04-12T10:18:42.999Z</time></trkpt><trkpt lat="44.31326714105747" lon="10.813948912747557"><ele>833.5999999999999</ele><time>2026-04-12T10:18:44.999Z</time></trkpt><trkpt lat="44.313168273292895" lon="10.813899258088087"><ele>829.8</ele><time>2026-04-12T10:18:46.999Z</time></trkpt><trkpt lat="44.31309230111286" lon="10.813835558903953"><ele>826.0</ele><time>2026-04-12T10:18:48.999Z</time></trkpt><trkpt lat="44.31300619746081" lon="10.813770084575339"><ele>825.9999999999999</ele><time>2026-04-12T10:18:50.999Z</time></trkpt><trkpt lat="44.31291314206309" lon="10.813702231492401"><ele>826.0</ele><time>2026-04-12T10:18:52.999Z</time></trkpt><trkpt lat="44.31285511682034" lon="10.813649489540197"><ele>826.0</ele><time>2026-04-12T10:18:53.999Z</time></trkpt><trkpt lat="44.312794451587166" lon="10.813593286181883"><ele>826.0</ele><time>2026-04-12T10:18:54.999Z</time></trkpt><trkpt lat="44.312725062033635" lon="10.81357172014443"><ele>825.9999999999999</ele><time>2026-04-12T10:18:56.999Z</time></trkpt><trkpt lat="44.312648489037365" lon="10.813521189047448"><ele>826.0</ele><time>2026-04-12T10:18:58.999Z</time></trkpt><trkpt lat="44.31258961833665" lon="10.813456134713372"><ele>822.1999999999999</ele><time>2026-04-12T10:18:59.999Z</time></trkpt><trkpt lat="44.31251749441578" lon="10.81335322887854"><ele>818.4</ele><time>2026-04-12T10:19:01.999Z</time></trkpt><trkpt lat="44.31244999452253" lon="10.813245082547141"><ele>814.6</ele><time>2026-04-12T10:19:03.999Z</time></trkpt><trkpt lat="44.31233237735872" lon="10.813240289678502"><ele>810.8</ele><time>2026-04-12T10:19:05.999Z</time></trkpt><trkpt lat="44.31224011150498" lon="10.81320493371286"><ele>807.0</ele><time>2026-04-12T10:19:07.999Z</time></trkpt><trkpt lat="44.31214451806058" lon="10.813180029923176"><ele>807.0</ele><time>2026-04-12T10:19:09.999Z</time></trkpt><trkpt lat="44.312083099756364" lon="10.81310447838724"><ele>807.0</ele><time>2026-04-12T10:19:11.998Z</time></trkpt><trkpt lat="44.31203130852837" lon="10.812992056155927"><ele>807.0</ele><time>2026-04-12T10:19:13.998Z</time></trkpt><trkpt lat="44.311988065642716" lon="10.812924439892637"><ele>807.0</ele><time>2026-04-12T10:19:14.998Z</time></trkpt><trkpt lat="44.31189743675285" lon="10.812807636292673"><ele>807.0</ele><time>2026-04-12T10:19:16.998Z</time></trkpt><trkpt lat="44.31180519902853" lon="10.812768228144646"><ele>807.0</ele><time>2026-04-12T10:19:18.998Z</time></trkpt><trkpt lat="44.31173839313474" lon="10.812681491191116"><ele>807.0</ele><time>2026-04-12T10:19:20.998Z</time></trkpt><trkpt lat="44.31168521957772" lon="10.812559186623217"><ele>807.0</ele><time>2026-04-12T10:19:22.998Z</time></trkpt><trkpt lat="44.311626872572944" lon="10.812458926032276"><ele>807.0</ele><time>2026-04-12T10:19:24.998Z</time></trkpt><trkpt lat="44.31156437788449" lon="10.812366035524683"><ele>807.0</ele><time>2026-04-12T10:19:26.998Z</time></trkpt><trkpt lat="44.31163585439725" lon="10.812021799428797"><ele>801.0</ele><time>2026-04-12T10:19:27.998Z</time></trkpt><trkpt lat="44.31151869378775" lon="10.811915856685436"><ele>795.0</ele><time>2026-04-12T10:19:29.998Z</time></trkpt><trkpt lat="44.31144922957018" lon="10.811845987600758"><ele>789.0</ele><time>2026-04-12T10:19:31.998Z</time></trkpt><trkpt lat="44.31138677336873" lon="10.811783167482334"><ele>783.0</ele><time>2026-04-12T10:19:32.998Z</time></trkpt><trkpt lat="44.3113074991622" lon="10.811712166283002"><ele>777.0</ele><time>2026-04-12T10:19:33.998Z</time></trkpt><trkpt lat="44.31124354869593" lon="10.811663066759696"><ele>774.0</ele><time>2026-04-12T10:19:34.998Z</time></trkpt><trkpt lat="44.3111507669403" lon="10.81161597498979"><ele>771.0</ele><time>2026-04-12T10:19:35.998Z</time></trkpt><trkpt lat="44.311055254835544" lon="10.811583902822536"><ele>768.0</ele><time>2026-04-12T10:19:36.998Z</time></trkpt><trkpt lat="44.31097650468899" lon="10.81156965578632"><ele>765.0</ele><time>2026-04-12T10:19:37.998Z</time></trkpt><trkpt lat="44.310897120216225" lon="10.811563451001817"><ele>762.0</ele><time>2026-04-12T10:19:38.998Z</time></trkpt><trkpt lat="44.31082387914247" lon="10.811565621209052"><ele>759.0</ele><time>2026-04-12T10:19:40Z</time></trkpt><trkpt lat="44.31069660480571" lon="10.811585917846976"><ele>759.0</ele><time>2026-04-12T10:19:42Z</time></trkpt><trkpt lat="44.31059628306334" lon="10.811636417194855"><ele>759.0</ele><time>2026-04-12T10:19:44Z</time></trkpt><trkpt lat="44.31052856668258" lon="10.811687247968651"><ele>759.0</ele><time>2026-04-12T10:19:46Z</time></trkpt><trkpt lat="44.3104353600026" lon="10.81177362211534"><ele>759.0</ele><time>2026-04-12T10:19:50Z</time></trkpt><trkpt lat="44.31035781285197" lon="10.811845123288332"><ele>759.0</ele><time>2026-04-12T10:19:51Z</time></trkpt><trkpt lat="44.31025000812158" lon="10.811934478814628"><ele>765.3333333333333</ele><time>2026-04-12T10:19:52Z</time></trkpt><trkpt lat="44.310116878604056" lon="10.812019530885477"><ele>771.6666666666666</ele><time>2026-04-12T10:19:53Z</time></trkpt><trkpt lat="44.30996797845669" lon="10.812082574095866"><ele>778.0</ele><time>2026-04-12T10:19:54Z</time></trkpt><trkpt lat="44.30981329064457" lon="10.812099714388447"><ele>777.5</ele><time>2026-04-12T10:19:55Z</time></trkpt><trkpt lat="44.309680912236495" lon="10.812075717357477"><ele>777.0</ele><time>2026-04-12T10:19:56Z</time></trkpt><trkpt lat="44.3095547115805" lon="10.812013848164469"><ele>776.5</ele><time>2026-04-12T10:19:57Z</time></trkpt><trkpt lat="44.309410677090234" lon="10.811919014191263"><ele>776.0</ele><time>2026-04-12T10:19:58Z</time></trkpt><trkpt lat="44.3092550075677" lon="10.811830179870336"><ele>771.5</ele><time>2026-04-12T10:19:59Z</time></trkpt><trkpt lat="44.30913044103398" lon="10.811724895016733"><ele>767.0</ele><time>2026-04-12T10:20:00Z</time></trkpt><trkpt lat="44.309022313275435" lon="10.811638045669497"><ele>762.5</ele><time>2026-04-12T10:20:01Z</time></trkpt><trkpt lat="44.30892184816325" lon="10.811566842079062"><ele>758.0</ele><time>2026-04-12T10:20:02Z</time></trkpt><trkpt lat="44.30883520851759" lon="10.811513620992057"><ele>758.0</ele><time>2026-04-12T10:20:03Z</time></trkpt><trkpt lat="44.30876311483998" lon="10.811472112833483"><ele>758.0</ele><time>2026-04-12T10:20:04Z</time></trkpt><trkpt lat="44.308662259576565" lon="10.811419541879927"><ele>758.0</ele><time>2026-04-12T10:20:06Z</time></trkpt><trkpt lat="44.30859108491129" lon="10.81125891509453"><ele>758.0</ele><time>2026-04-12T10:20:08Z</time></trkpt><trkpt lat="44.308507860217" lon="10.811115801115081"><ele>758.0</ele><time>2026-04-12T10:20:10Z</time></trkpt><trkpt lat="44.3084723778487" lon="10.811041640835025"><ele>758.0</ele><time>2026-04-12T10:20:11Z</time></trkpt><trkpt lat="44.308428002370505" lon="10.810975347180328"><ele>758.0</ele><time>2026-04-12T10:20:11.999Z</time></trkpt><trkpt lat="44.30838027162197" lon="10.810891649202356"><ele>758.0</ele><time>2026-04-12T10:20:13.999Z</time></trkpt><trkpt lat="44.3084312791335" lon="10.810826973507595"><ele>758.0</ele><time>2026-04-12T10:20:14.999Z</time></trkpt><trkpt lat="44.30847465770687" lon="10.810683615587212"><ele>758.0</ele><time>2026-04-12T10:20:16.999Z</time></trkpt><trkpt lat="44.30850665955434" lon="10.810536620066218"><ele>757.4</ele><time>2026-04-12T10:20:18.999Z</time></trkpt><trkpt lat="44.308471128121106" lon="10.8103903776056"><ele>756.8</ele><time>2026-04-12T10:20:20.999Z</time></trkpt><trkpt lat="44.30841758556365" lon="10.810320922049199"><ele>756.2</ele><time>2026-04-12T10:20:21.999Z</time></trkpt><trkpt lat="44.308328671455854" lon="10.810221960465105"><ele>755.6</ele><time>2026-04-12T10:20:23.999Z</time></trkpt><trkpt lat="44.3082080279396" lon="10.810143052728575"><ele>755.0</ele><time>2026-04-12T10:20:25.999Z</time></trkpt><trkpt lat="44.30812563458948" lon="10.810119160696773"><ele>751.8</ele><time>2026-04-12T10:20:26.999Z</time></trkpt><trkpt lat="44.308032690225126" lon="10.810083229291488"><ele>748.6</ele><time>2026-04-12T10:20:27.999Z</time></trkpt><trkpt lat="44.30794766789449" lon="10.810048892190341"><ele>745.4000000000001</ele><time>2026-04-12T10:20:28.999Z</time></trkpt><trkpt lat="44.30785695863687" lon="10.810004824230178"><ele>742.2</ele><time>2026-04-12T10:20:29.999Z</time></trkpt><trkpt lat="44.30776464350723" lon="10.809954255136793"><ele>739.0</ele><time>2026-04-12T10:20:30.999Z</time></trkpt><trkpt lat="44.30768097146635" lon="10.809904067439227"><ele>739.0</ele><time>2026-04-12T10:20:31.999Z</time></trkpt><trkpt lat="44.30759361711255" lon="10.809851334618656"><ele>739.0</ele><time>2026-04-12T10:20:32.999Z</time></trkpt><trkpt lat="44.30751295616473" lon="10.809799735612074"><ele>739.0</ele><time>2026-04-12T10:20:33.999Z</time></trkpt><trkpt lat="44.30745119298196" lon="10.8097589599749"><ele>739.0</ele><time>2026-04-12T10:20:34.999Z</time></trkpt><trkpt lat="44.30732219948741" lon="10.809681407860353"><ele>739.0</ele><time>2026-04-12T10:20:36.999Z</time></trkpt><trkpt lat="44.30725071061258" lon="10.809656971568192"><ele>740.3333333333334</ele><time>2026-04-12T10:20:37.999Z</time></trkpt><trkpt lat="44.30716135256899" lon="10.809651102996842"><ele>741.6666666666667</ele><time>2026-04-12T10:20:38.999Z</time></trkpt><trkpt lat="44.30709170326298" lon="10.809647500822585"><ele>743.0</ele><time>2026-04-12T10:20:39.999Z</time></trkpt><trkpt lat="44.30700754208633" lon="10.809641408047584"><ele>744.3333333333334</ele><time>2026-04-12T10:20:40.999Z</time></trkpt><trkpt lat="44.30694165695686" lon="10.809637843109165"><ele>745.6666666666666</ele><time>2026-04-12T10:20:41.999Z</time></trkpt><trkpt lat="44.306821524043436" lon="10.809618800636764"><ele>747.0</ele><time>2026-04-12T10:20:43.999Z</time></trkpt><trkpt lat="44.306749764251265" lon="10.809614044282883"><ele>747.0</ele><time>2026-04-12T10:20:44.999Z</time></trkpt><trkpt lat="44.306666830530624" lon="10.809571820832366"><ele>747.0</ele><time>2026-04-12T10:20:45.999Z</time></trkpt><trkpt lat="44.30660441047728" lon="10.809526690776156"><ele>747.0</ele><time>2026-04-12T10:20:46.999Z</time></trkpt><trkpt lat="44.30652862182721" lon="10.809490770978982"><ele>747.0</ele><time>2026-04-12T10:20:47.999Z</time></trkpt><trkpt lat="44.306452870917546" lon="10.80945651897781"><ele>747.0</ele><time>2026-04-12T10:20:48.999Z</time></trkpt><trkpt lat="44.306367358622495" lon="10.809423346775889"><ele>747.0</ele><time>2026-04-12T10:20:49.999Z</time></trkpt><trkpt lat="44.30627673527651" lon="10.809389639297567"><ele>748.8333333333334</ele><time>2026-04-12T10:20:50.999Z</time></trkpt><trkpt lat="44.30618400977266" lon="10.809355149764338"><ele>750.6666666666666</ele><time>2026-04-12T10:20:51.999Z</time></trkpt><trkpt lat="44.30609616321645" lon="10.809316430042632"><ele>752.5</ele><time>2026-04-12T10:20:52.999Z</time></trkpt><trkpt lat="44.30601349231728" lon="10.809274598461656"><ele>754.3333333333333</ele><time>2026-04-12T10:20:53.999Z</time></trkpt><trkpt lat="44.30594256887016" lon="10.809236036418898"><ele>756.1666666666666</ele><time>2026-04-12T10:20:54.999Z</time></trkpt><trkpt lat="44.305876154569546" lon="10.809197756009969"><ele>758.0</ele><time>2026-04-12T10:20:55.999Z</time></trkpt><trkpt lat="44.30580423498625" lon="10.809155320471934"><ele>751.8333333333333</ele><time>2026-04-12T10:20:56.999Z</time></trkpt><trkpt lat="44.30568701968357" lon="10.80908615859283"><ele>745.6666666666666</ele><time>2026-04-12T10:20:58.999Z</time></trkpt><trkpt lat="44.30562387064738" lon="10.809044377944284"><ele>739.5</ele><time>2026-04-12T10:20:59.999Z</time></trkpt><trkpt lat="44.305554996447334" lon="10.809018693913464"><ele>733.3333333333334</ele><time>2026-04-12T10:21:00.999Z</time></trkpt><trkpt lat="44.30546733663702" lon="10.808930560352495"><ele>727.1666666666667</ele><time>2026-04-12T10:21:02.999Z</time></trkpt><trkpt lat="44.30540615681765" lon="10.808895606208354"><ele>721.0</ele><time>2026-04-12T10:21:03.999Z</time></trkpt><trkpt lat="44.305313902467574" lon="10.8088372437571"><ele>721.0</ele><time>2026-04-12T10:21:05.999Z</time></trkpt><trkpt lat="44.30520687579082" lon="10.808792226015534"><ele>721.0</ele><time>2026-04-12T10:21:07.999Z</time></trkpt><trkpt lat="44.30509987021109" lon="10.808772657657762"><ele>721.0</ele><time>2026-04-12T10:21:09.999Z</time></trkpt><trkpt lat="44.30498967102492" lon="10.808770332304555"><ele>721.0</ele><time>2026-04-12T10:21:11.999Z</time></trkpt><trkpt lat="44.304921745693896" lon="10.808772550243805"><ele>721.0</ele><time>2026-04-12T10:21:12.999Z</time></trkpt><trkpt lat="44.30485464071966" lon="10.808786976545852"><ele>721.0</ele><time>2026-04-12T10:21:13.999Z</time></trkpt><trkpt lat="44.30479326215824" lon="10.808760431909887"><ele>721.0</ele><time>2026-04-12T10:21:14.999Z</time></trkpt><trkpt lat="44.30473080304191" lon="10.80873709582551"><ele>721.0</ele><time>2026-04-12T10:21:15.999Z</time></trkpt><trkpt lat="44.30466286381965" lon="10.8087310743188"><ele>721.0</ele><time>2026-04-12T10:21:16.999Z</time></trkpt><trkpt lat="44.30454094526237" lon="10.808716269164384"><ele>721.0</ele><time>2026-04-12T10:21:18.999Z</time></trkpt><trkpt lat="44.30443558265614" lon="10.808685571659232"><ele>721.0</ele><time>2026-04-12T10:21:19.999Z</time></trkpt><trkpt lat="44.304346888242904" lon="10.808656977038908"><ele>719.0</ele><time>2026-04-12T10:21:20.998Z</time></trkpt><trkpt lat="44.30422935065533" lon="10.808610026565923"><ele>717.0</ele><time>2026-04-12T10:21:24.998Z</time></trkpt><trkpt lat="44.30414944762996" lon="10.808544443645303"><ele>715.0</ele><time>2026-04-12T10:21:25.998Z</time></trkpt><trkpt lat="44.30405072750021" lon="10.808423861572765"><ele>713.0</ele><time>2026-04-12T10:21:27.998Z</time></trkpt><trkpt lat="44.30392605088179" lon="10.80831116769247"><ele>707.5</ele><time>2026-04-12T10:21:29.998Z</time></trkpt><trkpt lat="44.30384991621576" lon="10.808246049778932"><ele>702.0</ele><time>2026-04-12T10:21:30.998Z</time></trkpt><trkpt lat="44.303772910443506" lon="10.808181631267052"><ele>696.5</ele><time>2026-04-12T10:21:31.998Z</time></trkpt><trkpt lat="44.30367249616314" lon="10.808102921829432"><ele>691.0</ele><time>2026-04-12T10:21:33.998Z</time></trkpt><trkpt lat="44.303610759599366" lon="10.80805659791385"><ele>685.5</ele><time>2026-04-12T10:21:34.998Z</time></trkpt><trkpt lat="44.30354834793559" lon="10.80801390579035"><ele>680.0</ele><time>2026-04-12T10:21:35.998Z</time></trkpt><trkpt lat="44.303462889088834" lon="10.80796203536535"><ele>680.0</ele><time>2026-04-12T10:21:36.998Z</time></trkpt><trkpt lat="44.303381305281135" lon="10.807921673551325"><ele>680.0</ele><time>2026-04-12T10:21:37.998Z</time></trkpt><trkpt lat="44.3033046037024" lon="10.807891635488797"><ele>680.0</ele><time>2026-04-12T10:21:38.998Z</time></trkpt><trkpt lat="44.303236227382925" lon="10.80786712497292"><ele>680.0</ele><time>2026-04-12T10:21:39.998Z</time></trkpt><trkpt lat="44.30317362785834" lon="10.807844685308341"><ele>680.0</ele><time>2026-04-12T10:21:40.998Z</time></trkpt><trkpt lat="44.303098072291824" lon="10.807835405072298"><ele>680.0</ele><time>2026-04-12T10:21:41.998Z</time></trkpt><trkpt lat="44.30303914442184" lon="10.80779648014817"><ele>680.0</ele><time>2026-04-12T10:21:42.998Z</time></trkpt><trkpt lat="44.30297263560025" lon="10.80780975325303"><ele>678.2857142857143</ele><time>2026-04-12T10:21:43.998Z</time></trkpt><trkpt lat="44.30289733024993" lon="10.807871098257941"><ele>676.5714285714286</ele><time>2026-04-12T10:21:44.998Z</time></trkpt><trkpt lat="44.30281994500743" lon="10.807881569060122"><ele>674.8571428571429</ele><time>2026-04-12T10:21:46Z</time></trkpt><trkpt lat="44.302753549755906" lon="10.807868888883512"><ele>673.1428571428571</ele><time>2026-04-12T10:21:47Z</time></trkpt><trkpt lat="44.30269267995541" lon="10.80784278449464"><ele>671.4285714285714</ele><time>2026-04-12T10:21:48Z</time></trkpt><trkpt lat="44.30263287974995" lon="10.807779411238593"><ele>669.7142857142857</ele><time>2026-04-12T10:21:49Z</time></trkpt><trkpt lat="44.30256227832638" lon="10.807769902782223"><ele>668.0</ele><time>2026-04-12T10:21:50Z</time></trkpt><trkpt lat="44.302487760507255" lon="10.807745387655523"><ele>668.0</ele><time>2026-04-12T10:21:51Z</time></trkpt><trkpt lat="44.30242291449761" lon="10.80772657974274"><ele>668.0</ele><time>2026-04-12T10:21:52Z</time></trkpt><trkpt lat="44.30235108843651" lon="10.807708138997306"><ele>668.0</ele><time>2026-04-12T10:21:53Z</time></trkpt><trkpt lat="44.302292573973176" lon="10.807673988609025"><ele>668.0</ele><time>2026-04-12T10:21:54Z</time></trkpt><trkpt lat="44.302191016283324" lon="10.807683093252061"><ele>668.0</ele><time>2026-04-12T10:21:56Z</time></trkpt><trkpt lat="44.30211814204093" lon="10.807682293638784"><ele>668.0</ele><time>2026-04-12T10:22:00Z</time></trkpt><trkpt lat="44.30205997481259" lon="10.807716854548454"><ele>668.0</ele><time>2026-04-12T10:22:05Z</time></trkpt><trkpt lat="44.30196919394474" lon="10.807773375636188"><ele>663.0</ele><time>2026-04-12T10:22:08Z</time></trkpt><trkpt lat="44.30193370289866" lon="10.807937808617913"><ele>658.0</ele><time>2026-04-12T10:22:09Z</time></trkpt><trkpt lat="44.30191290938007" lon="10.808101365442306"><ele>653.0</ele><time>2026-04-12T10:22:10Z</time></trkpt><trkpt lat="44.301882583952896" lon="10.808305527966823"><ele>648.0</ele><time>2026-04-12T10:22:11Z</time></trkpt><trkpt lat="44.301852662811555" lon="10.808522360183197"><ele>648.0</ele><time>2026-04-12T10:22:12Z</time></trkpt><trkpt lat="44.301824431723375" lon="10.808692233001448"><ele>648.0</ele><time>2026-04-12T10:22:13Z</time></trkpt><trkpt lat="44.30181823832175" lon="10.808829250933007"><ele>648.0</ele><time>2026-04-12T10:22:14Z</time></trkpt><trkpt lat="44.301861809375026" lon="10.808971261180067"><ele>648.0</ele><time>2026-04-12T10:22:15Z</time></trkpt><trkpt lat="44.301944699534666" lon="10.809113530516878"><ele>648.0</ele><time>2026-04-12T10:22:16Z</time></trkpt><trkpt lat="44.30205578385816" lon="10.809235038217608"><ele>648.0</ele><time>2026-04-12T10:22:16.999Z</time></trkpt><trkpt lat="44.30218239768788" lon="10.809326148771852"><ele>648.0</ele><time>2026-04-12T10:22:17.999Z</time></trkpt><trkpt lat="44.302285266997224" lon="10.80938374964507"><ele>648.0</ele><time>2026-04-12T10:22:18.999Z</time></trkpt><trkpt lat="44.3023630747456" lon="10.809485388224104"><ele>654.0</ele><time>2026-04-12T10:22:19.999Z</time></trkpt><trkpt lat="44.302428804800456" lon="10.80958745981661"><ele>660.0</ele><time>2026-04-12T10:22:20.999Z</time></trkpt><trkpt lat="44.302433870526194" lon="10.809742212079344"><ele>666.0</ele><time>2026-04-12T10:22:21.999Z</time></trkpt><trkpt lat="44.30242398138093" lon="10.809912049472915"><ele>672.0</ele><time>2026-04-12T10:22:22.999Z</time></trkpt><trkpt lat="44.30242889365842" lon="10.810122946868137"><ele>673.5</ele><time>2026-04-12T10:22:23.999Z</time></trkpt><trkpt lat="44.30242284262224" lon="10.810341867151207"><ele>675.0</ele><time>2026-04-12T10:22:24.999Z</time></trkpt><trkpt lat="44.302420683081785" lon="10.810528589941137"><ele>676.5</ele><time>2026-04-12T10:22:25.999Z</time></trkpt><trkpt lat="44.30241911299626" lon="10.81072594117495"><ele>678.0</ele><time>2026-04-12T10:22:26.999Z</time></trkpt><trkpt lat="44.30241547947324" lon="10.810963054829445"><ele>677.6666666666666</ele><time>2026-04-12T10:22:27.999Z</time></trkpt><trkpt lat="44.30240386020662" lon="10.811179675458465"><ele>677.3333333333333</ele><time>2026-04-12T10:22:28.999Z</time></trkpt><trkpt lat="44.302417454182155" lon="10.81141099886461"><ele>677.0</ele><time>2026-04-12T10:22:29.999Z</time></trkpt><trkpt lat="44.302410568469696" lon="10.811675229693387"><ele>678.3333333333333</ele><time>2026-04-12T10:22:30.999Z</time></trkpt><trkpt lat="44.30241013230992" lon="10.811917330648978"><ele>679.6666666666666</ele><time>2026-04-12T10:22:31.999Z</time></trkpt><trkpt lat="44.30240086620711" lon="10.812153376631944"><ele>681.0</ele><time>2026-04-12T10:22:32.999Z</time></trkpt><trkpt lat="44.3023814651979" lon="10.8123329168735"><ele>681.0</ele><time>2026-04-12T10:22:33.999Z</time></trkpt><trkpt lat="44.30235429354532" lon="10.812508022990523"><ele>681.0</ele><time>2026-04-12T10:22:34.999Z</time></trkpt><trkpt lat="44.30232740004048" lon="10.81266782391235"><ele>681.0</ele><time>2026-04-12T10:22:35.999Z</time></trkpt><trkpt lat="44.30231628765243" lon="10.81280456872873"><ele>681.0</ele><time>2026-04-12T10:22:36.999Z</time></trkpt><trkpt lat="44.30230491803627" lon="10.812934824310203"><ele>681.0</ele><time>2026-04-12T10:22:37.999Z</time></trkpt><trkpt lat="44.302293685649474" lon="10.813032354855812"><ele>681.1428571428572</ele><time>2026-04-12T10:22:38.999Z</time></trkpt><trkpt lat="44.30228402071949" lon="10.813125122958082"><ele>681.2857142857143</ele><time>2026-04-12T10:22:40.999Z</time></trkpt><trkpt lat="44.30229656637372" lon="10.813212615633342"><ele>681.4285714285714</ele><time>2026-04-12T10:22:50.999Z</time></trkpt><trkpt lat="44.302329514917666" lon="10.813305439878432"><ele>681.5714285714287</ele><time>2026-04-12T10:22:52.999Z</time></trkpt><trkpt lat="44.30235295941351" lon="10.813406839754268"><ele>681.7142857142858</ele><time>2026-04-12T10:22:54.999Z</time></trkpt><trkpt lat="44.302386414694595" lon="10.813535790585702"><ele>681.8571428571429</ele><time>2026-04-12T10:22:56.999Z</time></trkpt><trkpt lat="44.302409578831906" lon="10.813626071546109"><ele>682.0</ele><time>2026-04-12T10:22:58.999Z</time></trkpt><trkpt lat="44.302448353141756" lon="10.813775474093633"><ele>681.2</ele><time>2026-04-12T10:23:00.999Z</time></trkpt><trkpt lat="44.30248987455328" lon="10.813935461457378"><ele>680.4000000000001</ele><time>2026-04-12T10:23:03.999Z</time></trkpt><trkpt lat="44.30252625845405" lon="10.81407565348037"><ele>679.5999999999999</ele><time>2026-04-12T10:23:05.999Z</time></trkpt><trkpt lat="44.30256310898324" lon="10.814217643325643"><ele>678.8</ele><time>2026-04-12T10:23:07.999Z</time></trkpt><trkpt lat="44.30259756201082" lon="10.814346609111457"><ele>678.0</ele><time>2026-04-12T10:23:09.999Z</time></trkpt><trkpt lat="44.302630013931875" lon="10.81446012526241"><ele>675.8</ele><time>2026-04-12T10:23:11.999Z</time></trkpt><trkpt lat="44.302668370006636" lon="10.8145813925388"><ele>673.5999999999999</ele><time>2026-04-12T10:23:13.999Z</time></trkpt><trkpt lat="44.30269962545701" lon="10.814663471950157"><ele>671.4000000000001</ele><time>2026-04-12T10:23:15.999Z</time></trkpt><trkpt lat="44.30277524076031" lon="10.814822212174718"><ele>669.2</ele><time>2026-04-12T10:23:17.999Z</time></trkpt><trkpt lat="44.30283767496412" lon="10.81494028733774"><ele>667.0</ele><time>2026-04-12T10:23:18.999Z</time></trkpt><trkpt lat="44.30291718944052" lon="10.815103214266292"><ele>664.8</ele><time>2026-04-12T10:23:20.999Z</time></trkpt><trkpt lat="44.302963177421326" lon="10.815214680434137"><ele>662.6</ele><time>2026-04-12T10:23:21.999Z</time></trkpt><trkpt lat="44.3029935826663" lon="10.815294523743097"><ele>660.4</ele><time>2026-04-12T10:23:22.998Z</time></trkpt><trkpt lat="44.30303974796486" lon="10.81542302327487"><ele>658.1999999999999</ele><time>2026-04-12T10:23:24.998Z</time></trkpt><trkpt lat="44.30308872248512" lon="10.81555934202883"><ele>656.0</ele><time>2026-04-12T10:23:26.998Z</time></trkpt><trkpt lat="44.30314365956878" lon="10.815695621697191"><ele>660.0</ele><time>2026-04-12T10:23:28.998Z</time></trkpt><trkpt lat="44.303210212440796" lon="10.815839300163631"><ele>664.0</ele><time>2026-04-12T10:23:30.998Z</time></trkpt><trkpt lat="44.30328594248641" lon="10.815987425149732"><ele>668.0</ele><time>2026-04-12T10:23:32.998Z</time></trkpt><trkpt lat="44.30332777895967" lon="10.81606786307418"><ele>672.0</ele><time>2026-04-12T10:23:33.998Z</time></trkpt><trkpt lat="44.303367527042816" lon="10.816147121126425"><ele>676.0</ele><time>2026-04-12T10:23:34.998Z</time></trkpt><trkpt lat="44.30340770347578" lon="10.816239204287047"><ele>676.0</ele><time>2026-04-12T10:23:35.998Z</time></trkpt><trkpt lat="44.30346568187984" lon="10.816374152029768"><ele>676.0</ele><time>2026-04-12T10:23:37.998Z</time></trkpt><trkpt lat="44.303513068160775" lon="10.816473471038766"><ele>676.0</ele><time>2026-04-12T10:23:39.998Z</time></trkpt><trkpt lat="44.30356033599662" lon="10.816562499459748"><ele>676.0</ele><time>2026-04-12T10:23:41.998Z</time></trkpt><trkpt lat="44.30324733405907" lon="10.8168286873575"><ele>676.0</ele><time>2026-04-12T10:24:14Z</time></trkpt><trkpt lat="44.30320031136979" lon="10.816734525620197"><ele>676.0</ele><time>2026-04-12T10:24:15Z</time></trkpt><trkpt lat="44.30316059140704" lon="10.816635992858938"><ele>676.0</ele><time>2026-04-12T10:24:16Z</time></trkpt><trkpt lat="44.30312041977298" lon="10.816533509563332"><ele>676.0</ele><time>2026-04-12T10:24:17Z</time></trkpt><trkpt lat="44.303079559365834" lon="10.81641387305938"><ele>676.0</ele><time>2026-04-12T10:24:17.999Z</time></trkpt><trkpt lat="44.303043121031166" lon="10.816311152394851"><ele>676.0</ele><time>2026-04-12T10:24:18.999Z</time></trkpt><trkpt lat="44.30298663348245" lon="10.816192843931265"><ele>672.6666666666667</ele><time>2026-04-12T10:24:19.999Z</time></trkpt><trkpt lat="44.30293436802936" lon="10.816109956477126"><ele>669.3333333333334</ele><time>2026-04-12T10:24:20.999Z</time></trkpt><trkpt lat="44.30287945620399" lon="10.816027597679946"><ele>666.0</ele><time>2026-04-12T10:24:21.999Z</time></trkpt><trkpt lat="44.30282229491785" lon="10.815939891145149"><ele>662.6666666666666</ele><time>2026-04-12T10:24:22.999Z</time></trkpt><trkpt lat="44.30277904231051" lon="10.815847732035158"><ele>659.3333333333333</ele><time>2026-04-12T10:24:23.999Z</time></trkpt><trkpt lat="44.30273678058001" lon="10.815751721934763"><ele>656.0</ele><time>2026-04-12T10:24:24.999Z</time></trkpt><trkpt lat="44.30270054356815" lon="10.815662870425344"><ele>656.0</ele><time>2026-04-12T10:24:25.999Z</time></trkpt><trkpt lat="44.302671740081195" lon="10.815572722524134"><ele>656.0</ele><time>2026-04-12T10:24:26.999Z</time></trkpt><trkpt lat="44.302636136017" lon="10.815458087654717"><ele>656.0</ele><time>2026-04-12T10:24:27.999Z</time></trkpt><trkpt lat="44.30258938942056" lon="10.815310765299413"><ele>656.0</ele><time>2026-04-12T10:24:29.999Z</time></trkpt><trkpt lat="44.30255745903916" lon="10.815232429078463"><ele>656.0</ele><time>2026-04-12T10:24:30.999Z</time></trkpt><trkpt lat="44.302493635073816" lon="10.815096668958187"><ele>658.1999999999999</ele><time>2026-04-12T10:24:32.999Z</time></trkpt><trkpt lat="44.30245620557993" lon="10.814997937475448"><ele>660.4</ele><time>2026-04-12T10:24:33.999Z</time></trkpt><trkpt lat="44.3024219616165" lon="10.814921244627111"><ele>662.6</ele><time>2026-04-12T10:24:34.999Z</time></trkpt><trkpt lat="44.302389197346336" lon="10.81483096183558"><ele>664.8</ele><time>2026-04-12T10:24:35.999Z</time></trkpt><trkpt lat="44.302333759714" lon="10.814690870491347"><ele>667.0</ele><time>2026-04-12T10:24:37.999Z</time></trkpt><trkpt lat="44.30227403885172" lon="10.814540549413268"><ele>667.0</ele><time>2026-04-12T10:24:39.999Z</time></trkpt><trkpt lat="44.302254651713156" lon="10.814444675090806"><ele>667.0</ele><time>2026-04-12T10:24:40.999Z</time></trkpt><trkpt lat="44.30223477936245" lon="10.814296727801255"><ele>667.0</ele><time>2026-04-12T10:24:41.999Z</time></trkpt><trkpt lat="44.30221567468549" lon="10.814157230000989"><ele>667.0</ele><time>2026-04-12T10:24:42.999Z</time></trkpt><trkpt lat="44.30218388417816" lon="10.814013365925426"><ele>667.0</ele><time>2026-04-12T10:24:44.999Z</time></trkpt><trkpt lat="44.302191854476504" lon="10.813903359081026"><ele>662.3333333333334</ele><time>2026-04-12T10:24:46.999Z</time></trkpt><trkpt lat="44.30214355303725" lon="10.813843535505438"><ele>657.6666666666667</ele><time>2026-04-12T10:24:49.999Z</time></trkpt><trkpt lat="44.30209714270195" lon="10.813744370610578"><ele>653.0</ele><time>2026-04-12T10:24:51.999Z</time></trkpt><trkpt lat="44.30204698280803" lon="10.81365811179104"><ele>648.3333333333334</ele><time>2026-04-12T10:24:53.999Z</time></trkpt><trkpt lat="44.302003126379326" lon="10.813555693377225"><ele>643.6666666666666</ele><time>2026-04-12T10:24:55.999Z</time></trkpt><trkpt lat="44.30194417092535" lon="10.813487220337398"><ele>639.0</ele><time>2026-04-12T10:24:57.999Z</time></trkpt><trkpt lat="44.30187451406603" lon="10.8134162724931"><ele>639.0</ele><time>2026-04-12T10:24:59.999Z</time></trkpt><trkpt lat="44.30181554038664" lon="10.813335678391304"><ele>639.0</ele><time>2026-04-12T10:25:01.999Z</time></trkpt><trkpt lat="44.30176444051234" lon="10.81327427154305"><ele>639.0</ele><time>2026-04-12T10:25:03.999Z</time></trkpt><trkpt lat="44.30170142545153" lon="10.813218252011938"><ele>639.0</ele><time>2026-04-12T10:25:05.999Z</time></trkpt><trkpt lat="44.30163941820309" lon="10.813178882034107"><ele>639.0</ele><time>2026-04-12T10:25:07.999Z</time></trkpt><trkpt lat="44.30153966591287" lon="10.813190489427912"><ele>639.0</ele><time>2026-04-12T10:25:10.999Z</time></trkpt><trkpt lat="44.30147401758197" lon="10.813195849253658"><ele>639.0</ele><time>2026-04-12T10:25:12.999Z</time></trkpt><trkpt lat="44.30147987392465" lon="10.813318708809351"><ele>639.0</ele><time>2026-04-12T10:25:15.999Z</time></trkpt><trkpt lat="44.301513783836135" lon="10.813405481357053"><ele>639.0</ele><time>2026-04-12T10:25:16.999Z</time></trkpt><trkpt lat="44.30153931247882" lon="10.813507310028555"><ele>639.0</ele><time>2026-04-12T10:25:17.999Z</time></trkpt><trkpt lat="44.30154966627954" lon="10.813602769538848"><ele>639.0</ele><time>2026-04-12T10:25:18.999Z</time></trkpt><trkpt lat="44.30155020902829" lon="10.813772292223822"><ele>639.0</ele><time>2026-04-12T10:25:20.999Z</time></trkpt><trkpt lat="44.301554724482635" lon="10.81386340924393"><ele>638.8333333333334</ele><time>2026-04-12T10:25:21.999Z</time></trkpt><trkpt lat="44.30151799537121" lon="10.81404530302303"><ele>638.6666666666666</ele><time>2026-04-12T10:25:23.999Z</time></trkpt><trkpt lat="44.301498976891864" lon="10.814147605730698"><ele>638.5</ele><time>2026-04-12T10:25:24.998Z</time></trkpt><trkpt lat="44.301495266712536" lon="10.814257965660222"><ele>638.3333333333333</ele><time>2026-04-12T10:25:25.998Z</time></trkpt><trkpt lat="44.30147967332903" lon="10.81435908896531"><ele>638.1666666666666</ele><time>2026-04-12T10:25:26.998Z</time></trkpt><trkpt lat="44.301474371739" lon="10.814452969929064"><ele>638.0</ele><time>2026-04-12T10:25:27.998Z</time></trkpt><trkpt lat="44.30147784226833" lon="10.814626529951125"><ele>636.8333333333333</ele><time>2026-04-12T10:25:29.998Z</time></trkpt><trkpt lat="44.301489061806365" lon="10.81473324238822"><ele>635.6666666666666</ele><time>2026-04-12T10:25:30.998Z</time></trkpt><trkpt lat="44.301501120386554" lon="10.814838125575209"><ele>634.5</ele><time>2026-04-12T10:25:31.998Z</time></trkpt><trkpt lat="44.301504465747385" lon="10.814932432965751"><ele>633.3333333333334</ele><time>2026-04-12T10:25:32.998Z</time></trkpt><trkpt lat="44.30150525269545" lon="10.815022257066344"><ele>632.1666666666667</ele><time>2026-04-12T10:25:33.998Z</time></trkpt><trkpt lat="44.30150089253562" lon="10.815111191359788"><ele>631.0</ele><time>2026-04-12T10:25:34.998Z</time></trkpt><trkpt lat="44.30146428524666" lon="10.815249562653502"><ele>629.6666666666667</ele><time>2026-04-12T10:25:36.998Z</time></trkpt><trkpt lat="44.30143886270478" lon="10.81533880656392"><ele>628.3333333333334</ele><time>2026-04-12T10:25:37.998Z</time></trkpt><trkpt lat="44.301414459794515" lon="10.81542447096318"><ele>627.0</ele><time>2026-04-12T10:25:38.998Z</time></trkpt><trkpt lat="44.30139599711297" lon="10.81552038178151"><ele>625.6666666666666</ele><time>2026-04-12T10:25:39.998Z</time></trkpt><trkpt lat="44.30138477419386" lon="10.815661973270878"><ele>624.3333333333333</ele><time>2026-04-12T10:25:40.998Z</time></trkpt><trkpt lat="44.3013773665719" lon="10.815768165106265"><ele>623.0</ele><time>2026-04-12T10:25:41.998Z</time></trkpt><trkpt lat="44.30137493945485" lon="10.815872921487571"><ele>618.8</ele><time>2026-04-12T10:25:42.998Z</time></trkpt><trkpt lat="44.301349931977086" lon="10.816002563144282"><ele>614.5999999999999</ele><time>2026-04-12T10:25:43.998Z</time></trkpt><trkpt lat="44.301358415067845" lon="10.816117443333017"><ele>610.4000000000001</ele><time>2026-04-12T10:25:44.998Z</time></trkpt><trkpt lat="44.30134740526457" lon="10.816235783457142"><ele>606.2</ele><time>2026-04-12T10:25:45.998Z</time></trkpt><trkpt lat="44.30134491390858" lon="10.81634047181586"><ele>602.0</ele><time>2026-04-12T10:25:46.998Z</time></trkpt><trkpt lat="44.30136907777751" lon="10.816503653593456"><ele>604.6</ele><time>2026-04-12T10:25:48.998Z</time></trkpt><trkpt lat="44.30147191625168" lon="10.816623071379686"><ele>607.2</ele><time>2026-04-12T10:25:50.998Z</time></trkpt><trkpt lat="44.301541387943246" lon="10.816689364430426"><ele>609.8</ele><time>2026-04-12T10:25:51.998Z</time></trkpt><trkpt lat="44.30162254621162" lon="10.816780485070687"><ele>612.4</ele><time>2026-04-12T10:25:52.998Z</time></trkpt><trkpt lat="44.30170052991073" lon="10.816881567284813"><ele>615.0</ele><time>2026-04-12T10:25:53.998Z</time></trkpt><trkpt lat="44.30176359128165" lon="10.81696971817936"><ele>615.0</ele><time>2026-04-12T10:25:54.998Z</time></trkpt><trkpt lat="44.30183353236938" lon="10.81706059199297"><ele>615.0</ele><time>2026-04-12T10:25:55.998Z</time></trkpt><trkpt lat="44.301878086094895" lon="10.817148353195016"><ele>615.0</ele><time>2026-04-12T10:25:57Z</time></trkpt><trkpt lat="44.30191979757427" lon="10.81724736636008"><ele>615.0</ele><time>2026-04-12T10:25:58Z</time></trkpt><trkpt lat="44.3019843819576" lon="10.817316091639984"><ele>615.0</ele><time>2026-04-12T10:25:59Z</time></trkpt><trkpt lat="44.302067068649414" lon="10.817421455102906"><ele>615.0</ele><time>2026-04-12T10:26:00Z</time></trkpt><trkpt lat="44.302141766304" lon="10.817476354629234"><ele>615.0</ele><time>2026-04-12T10:26:01Z</time></trkpt><trkpt lat="44.30222789404673" lon="10.817498341075193"><ele>615.0</ele><time>2026-04-12T10:26:02Z</time></trkpt><trkpt lat="44.302294875119976" lon="10.817538877575366"><ele>615.0</ele><time>2026-04-12T10:26:03Z</time></trkpt><trkpt lat="44.302331729437356" lon="10.817662495011383"><ele>615.0</ele><time>2026-04-12T10:26:05Z</time></trkpt><trkpt lat="44.30227439244241" lon="10.817721274251065"><ele>615.0</ele><time>2026-04-12T10:26:06Z</time></trkpt><trkpt lat="44.302183336368984" lon="10.81786060207773"><ele>617.0</ele><time>2026-04-12T10:26:08Z</time></trkpt><trkpt lat="44.30212796406156" lon="10.817942189100213"><ele>619.0</ele><time>2026-04-12T10:26:09Z</time></trkpt><trkpt lat="44.30206417669637" lon="10.818058945729513"><ele>621.0</ele><time>2026-04-12T10:26:10Z</time></trkpt><trkpt lat="44.30202878145341" lon="10.818179760023387"><ele>623.0</ele><time>2026-04-12T10:26:11Z</time></trkpt><trkpt lat="44.30197022360097" lon="10.818336346411119"><ele>625.0</ele><time>2026-04-12T10:26:13Z</time></trkpt><trkpt lat="44.301951500838484" lon="10.81842618124916"><ele>627.8</ele><time>2026-04-12T10:26:14Z</time></trkpt><trkpt lat="44.30192732127388" lon="10.81854790251793"><ele>630.6</ele><time>2026-04-12T10:26:15Z</time></trkpt><trkpt lat="44.3019050684403" lon="10.818668998136047"><ele>633.4</ele><time>2026-04-12T10:26:16Z</time></trkpt><trkpt lat="44.301861832709896" lon="10.818783888518897"><ele>636.2</ele><time>2026-04-12T10:26:17Z</time></trkpt><trkpt lat="44.301818870197806" lon="10.818870327293247"><ele>639.0</ele><time>2026-04-12T10:26:17.999Z</time></trkpt><trkpt lat="44.30173755655903" lon="10.81903126432486"><ele>639.0</ele><time>2026-04-12T10:26:19.999Z</time></trkpt><trkpt lat="44.30169406314985" lon="10.819136452240414"><ele>639.0</ele><time>2026-04-12T10:26:20.999Z</time></trkpt><trkpt lat="44.301656387082275" lon="10.819266739641332"><ele>639.0</ele><time>2026-04-12T10:26:21.999Z</time></trkpt><trkpt lat="44.30161517613872" lon="10.819412980073109"><ele>639.0</ele><time>2026-04-12T10:26:22.999Z</time></trkpt><trkpt lat="44.30156445681461" lon="10.819549884088866"><ele>639.0</ele><time>2026-04-12T10:26:23.999Z</time></trkpt><trkpt lat="44.30151132098873" lon="10.819696930819815"><ele>639.8</ele><time>2026-04-12T10:26:24.999Z</time></trkpt><trkpt lat="44.301459679821576" lon="10.819820889520576"><ele>640.5999999999999</ele><time>2026-04-12T10:26:25.999Z</time></trkpt><trkpt lat="44.30140881152302" lon="10.819908952897368"><ele>641.4</ele><time>2026-04-12T10:26:26.999Z</time></trkpt><trkpt lat="44.30134083485123" lon="10.820002272224258"><ele>642.1999999999999</ele><time>2026-04-12T10:26:27.999Z</time></trkpt><trkpt lat="44.30127674598497" lon="10.820084515320255"><ele>643.0</ele><time>2026-04-12T10:26:28.999Z</time></trkpt><trkpt lat="44.301223451796794" lon="10.82019705860501"><ele>645.5999999999999</ele><time>2026-04-12T10:26:29.999Z</time></trkpt><trkpt lat="44.30117664728396" lon="10.820301562756374"><ele>648.1999999999999</ele><time>2026-04-12T10:26:30.999Z</time></trkpt><trkpt lat="44.30113249893401" lon="10.820419507809737"><ele>650.8</ele><time>2026-04-12T10:26:31.999Z</time></trkpt><trkpt lat="44.30108401356195" lon="10.820545902898639"><ele>653.4</ele><time>2026-04-12T10:26:32.999Z</time></trkpt><trkpt lat="44.30103074576624" lon="10.820651629828996"><ele>656.0</ele><time>2026-04-12T10:26:33.999Z</time></trkpt><trkpt lat="44.30098109373175" lon="10.820752261947236"><ele>656.0</ele><time>2026-04-12T10:26:34.999Z</time></trkpt><trkpt lat="44.30091691913894" lon="10.820841651357675"><ele>656.0</ele><time>2026-04-12T10:26:35.999Z</time></trkpt><trkpt lat="44.30087268320793" lon="10.820962363635278"><ele>656.0</ele><time>2026-04-12T10:26:36.999Z</time></trkpt><trkpt lat="44.300830250540145" lon="10.821065493464706"><ele>656.0</ele><time>2026-04-12T10:26:37.999Z</time></trkpt><trkpt lat="44.3007986286639" lon="10.821173760220306"><ele>656.0</ele><time>2026-04-12T10:26:38.999Z</time></trkpt><trkpt lat="44.3007520310076" lon="10.82125911129423"><ele>656.0</ele><time>2026-04-12T10:26:39.999Z</time></trkpt><trkpt lat="44.30073540748165" lon="10.821379358093248"><ele>658.8</ele><time>2026-04-12T10:26:40.999Z</time></trkpt><trkpt lat="44.30071682423809" lon="10.821470100328275"><ele>661.5999999999999</ele><time>2026-04-12T10:26:41.999Z</time></trkpt><trkpt lat="44.30068944056565" lon="10.821641755366002"><ele>664.4</ele><time>2026-04-12T10:26:43.999Z</time></trkpt><trkpt lat="44.3006974762021" lon="10.821804466401353"><ele>667.2</ele><time>2026-04-12T10:26:45.999Z</time></trkpt><trkpt lat="44.30069344885259" lon="10.821956936580182"><ele>670.0</ele><time>2026-04-12T10:26:47.999Z</time></trkpt><trkpt lat="44.3005085023416" lon="10.822038891627765"><ele>670.1666666666667</ele><time>2026-04-12T10:26:48.999Z</time></trkpt><trkpt lat="44.3004927721124" lon="10.822142805477819"><ele>670.3333333333334</ele><time>2026-04-12T10:26:49.999Z</time></trkpt><trkpt lat="44.300480998466924" lon="10.822235889621517"><ele>670.5</ele><time>2026-04-12T10:26:50.999Z</time></trkpt><trkpt lat="44.300461574666606" lon="10.822350454956918"><ele>670.6666666666666</ele><time>2026-04-12T10:26:51.999Z</time></trkpt><trkpt lat="44.30039588141525" lon="10.822480580657345"><ele>670.8333333333333</ele><time>2026-04-12T10:26:53.999Z</time></trkpt><trkpt lat="44.30035005074455" lon="10.822605779691795"><ele>671.0</ele><time>2026-04-12T10:26:55.999Z</time></trkpt><trkpt lat="44.300284592507005" lon="10.822748037724173"><ele>674.8</ele><time>2026-04-12T10:26:57.999Z</time></trkpt><trkpt lat="44.30021412587179" lon="10.8228757149568"><ele>678.5999999999999</ele><time>2026-04-12T10:27:00.999Z</time></trkpt><trkpt lat="44.30012908778441" lon="10.822993090580733"><ele>682.4</ele><time>2026-04-12T10:27:02.999Z</time></trkpt><trkpt lat="44.30007639152761" lon="10.823067118033082"><ele>686.2</ele><time>2026-04-12T10:27:03.999Z</time></trkpt><trkpt lat="44.30002414507358" lon="10.82315188102269"><ele>690.0</ele><time>2026-04-12T10:27:04.999Z</time></trkpt><trkpt lat="44.29998318489942" lon="10.823236572990364"><ele>690.0</ele><time>2026-04-12T10:27:05.999Z</time></trkpt><trkpt lat="44.29995486490854" lon="10.823328578186505"><ele>690.0</ele><time>2026-04-12T10:27:06.999Z</time></trkpt><trkpt lat="44.29993777885316" lon="10.823486915431445"><ele>690.0</ele><time>2026-04-12T10:27:08.999Z</time></trkpt><trkpt lat="44.29998527038786" lon="10.823605853080752"><ele>690.0</ele><time>2026-04-12T10:27:10.999Z</time></trkpt><trkpt lat="44.30002461210021" lon="10.82373854976577"><ele>690.0</ele><time>2026-04-12T10:27:12.999Z</time></trkpt><trkpt lat="44.29999863652229" lon="10.823882752817068"><ele>694.3333333333334</ele><time>2026-04-12T10:27:14.999Z</time></trkpt><trkpt lat="44.299981635451516" lon="10.823978508028599"><ele>698.6666666666666</ele><time>2026-04-12T10:27:15.999Z</time></trkpt><trkpt lat="44.2999661972432" lon="10.824070385972357"><ele>703.0</ele><time>2026-04-12T10:27:16.999Z</time></trkpt><trkpt lat="44.299970270683005" lon="10.82419971775582"><ele>707.3333333333333</ele><time>2026-04-12T10:27:19.999Z</time></trkpt><trkpt lat="44.29996647729367" lon="10.824362091801696"><ele>711.6666666666666</ele><time>2026-04-12T10:27:21.999Z</time></trkpt><trkpt lat="44.29993675086623" lon="10.824489783649648"><ele>716.0</ele><time>2026-04-12T10:27:23.998Z</time></trkpt><trkpt lat="44.29989377908132" lon="10.82459994749387"><ele>720.0</ele><time>2026-04-12T10:27:25.998Z</time></trkpt><trkpt lat="44.299874090494434" lon="10.824700399556495"><ele>724.0</ele><time>2026-04-12T10:27:27.998Z</time></trkpt><trkpt lat="44.29986852285991" lon="10.824816845123955"><ele>728.0</ele><time>2026-04-12T10:27:29.998Z</time></trkpt><trkpt lat="44.299858769222226" lon="10.824937214823933"><ele>732.0</ele><time>2026-04-12T10:27:31.998Z</time></trkpt><trkpt lat="44.2998914169596" lon="10.825045627691114"><ele>736.0</ele><time>2026-04-12T10:27:33.998Z</time></trkpt><trkpt lat="44.29992578772105" lon="10.825119976692605"><ele>740.0</ele><time>2026-04-12T10:27:34.998Z</time></trkpt><trkpt lat="44.299960449216464" lon="10.825250738118616"><ele>742.6</ele><time>2026-04-12T10:27:36.998Z</time></trkpt><trkpt lat="44.29996456352154" lon="10.825412204192668"><ele>745.2</ele><time>2026-04-12T10:27:39.998Z</time></trkpt><trkpt lat="44.299994893219704" lon="10.82554904645547"><ele>747.8</ele><time>2026-04-12T10:27:41.998Z</time></trkpt><trkpt lat="44.30005725338819" lon="10.825634909492086"><ele>750.4</ele><time>2026-04-12T10:27:44.998Z</time></trkpt><trkpt lat="44.300129536336605" lon="10.82573805237013"><ele>753.0</ele><time>2026-04-12T10:27:47.998Z</time></trkpt><trkpt lat="44.300171223559374" lon="10.825864827520775"><ele>753.0</ele><time>2026-04-12T10:27:49.998Z</time></trkpt><trkpt lat="44.30023989172828" lon="10.825965722873683"><ele>753.0</ele><time>2026-04-12T10:27:51.998Z</time></trkpt><trkpt lat="44.30017989493055" lon="10.826077737346536"><ele>753.0</ele><time>2026-04-12T10:27:54.998Z</time></trkpt><trkpt lat="44.30009869659195" lon="10.826078456613544"><ele>753.0</ele><time>2026-04-12T10:27:57.998Z</time></trkpt><trkpt lat="44.300037501138014" lon="10.826130517439216"><ele>753.0</ele><time>2026-04-12T10:27:59.998Z</time></trkpt><trkpt lat="44.30003044591295" lon="10.82625676215994"><ele>753.0</ele><time>2026-04-12T10:28:01.998Z</time></trkpt><trkpt lat="44.29998892909047" lon="10.826402615975109"><ele>755.5999999999999</ele><time>2026-04-12T10:28:05Z</time></trkpt><trkpt lat="44.299914269387656" lon="10.82648476447028"><ele>758.1999999999999</ele><time>2026-04-12T10:28:07Z</time></trkpt><trkpt lat="44.29984595838819" lon="10.826515113722294"><ele>760.8</ele><time>2026-04-12T10:28:09Z</time></trkpt><trkpt lat="44.299754186249245" lon="10.826516987731688"><ele>763.4</ele><time>2026-04-12T10:28:12Z</time></trkpt><trkpt lat="44.29964371552718" lon="10.826560151137645"><ele>766.0</ele><time>2026-04-12T10:28:14Z</time></trkpt><trkpt lat="44.299545733081885" lon="10.826648791666367"><ele>768.6666666666667</ele><time>2026-04-12T10:28:16Z</time></trkpt><trkpt lat="44.29947156093496" lon="10.826658951038864"><ele>771.3333333333334</ele><time>2026-04-12T10:28:18Z</time></trkpt><trkpt lat="44.29940796926332" lon="10.826645329285295"><ele>774.0</ele><time>2026-04-12T10:28:20.999Z</time></trkpt><trkpt lat="44.299333401157654" lon="10.82667833930373"><ele>776.6666666666667</ele><time>2026-04-12T10:28:32.999Z</time></trkpt><trkpt lat="44.299294814343" lon="10.826567709960951"><ele>779.3333333333334</ele><time>2026-04-12T10:28:36.999Z</time></trkpt><trkpt lat="44.29927084754875" lon="10.826426298683646"><ele>782.0</ele><time>2026-04-12T10:28:38.999Z</time></trkpt><trkpt lat="44.299302724585225" lon="10.826331234606593"><ele>782.0</ele><time>2026-04-12T10:28:40.999Z</time></trkpt><trkpt lat="44.29932099609207" lon="10.826195730611987"><ele>782.0</ele><time>2026-04-12T10:28:42.999Z</time></trkpt><trkpt lat="44.299343302227214" lon="10.826069879061594"><ele>782.0</ele><time>2026-04-12T10:28:44.999Z</time></trkpt><trkpt lat="44.2992925975424" lon="10.82597739046423"><ele>782.0</ele><time>2026-04-12T10:28:46.999Z</time></trkpt><trkpt lat="44.29921093637408" lon="10.82592859490231"><ele>782.0</ele><time>2026-04-12T10:28:48.999Z</time></trkpt><trkpt lat="44.29909876595844" lon="10.825847384110343"><ele>781.6</ele><time>2026-04-12T10:28:50.999Z</time></trkpt><trkpt lat="44.298991685134" lon="10.825739093863152"><ele>781.2</ele><time>2026-04-12T10:28:52.999Z</time></trkpt><trkpt lat="44.29890923929568" lon="10.825679863719394"><ele>780.8</ele><time>2026-04-12T10:28:54.999Z</time></trkpt><trkpt lat="44.29885586852893" lon="10.825633206699736"><ele>780.4</ele><time>2026-04-12T10:28:55.999Z</time></trkpt><trkpt lat="44.29877126591156" lon="10.825550862006374"><ele>780.0</ele><time>2026-04-12T10:28:58.999Z</time></trkpt><trkpt lat="44.298714229108306" lon="10.825500446241211"><ele>780.0</ele><time>2026-04-12T10:29:00.999Z</time></trkpt><trkpt lat="44.29863293779412" lon="10.825439894908438"><ele>780.0</ele><time>2026-04-12T10:29:02.999Z</time></trkpt><trkpt lat="44.29853729581226" lon="10.825393686158366"><ele>780.0</ele><time>2026-04-12T10:29:04.999Z</time></trkpt><trkpt lat="44.29844130782644" lon="10.825376077700623"><ele>780.0</ele><time>2026-04-12T10:29:07.999Z</time></trkpt><trkpt lat="44.29833918813249" lon="10.825342972977964"><ele>780.0</ele><time>2026-04-12T10:29:09.999Z</time></trkpt><trkpt lat="44.298276122421505" lon="10.825325036121994"><ele>780.0</ele><time>2026-04-12T10:29:10.999Z</time></trkpt><trkpt lat="44.29815666265683" lon="10.825312770736465"><ele>780.0</ele><time>2026-04-12T10:29:12.999Z</time></trkpt><trkpt lat="44.29805414076683" lon="10.825362519763507"><ele>780.0</ele><time>2026-04-12T10:29:14.999Z</time></trkpt><trkpt lat="44.29793201495651" lon="10.825385262596235"><ele>780.0</ele><time>2026-04-12T10:29:16.999Z</time></trkpt><trkpt lat="44.297838483366256" lon="10.825459554918092"><ele>779.5</ele><time>2026-04-12T10:29:18.999Z</time></trkpt><trkpt lat="44.29777843676327" lon="10.82556062186484"><ele>779.0</ele><time>2026-04-12T10:29:20.999Z</time></trkpt><trkpt lat="44.29772705274099" lon="10.825620403039109"><ele>778.5</ele><time>2026-04-12T10:29:22.999Z</time></trkpt><trkpt lat="44.29764563038757" lon="10.825546417313742"><ele>778.0</ele><time>2026-04-12T10:29:25.998Z</time></trkpt><trkpt lat="44.2975919435571" lon="10.825468666370424"><ele>777.5</ele><time>2026-04-12T10:29:27.998Z</time></trkpt><trkpt lat="44.2975055109239" lon="10.825431930579736"><ele>777.0</ele><time>2026-04-12T10:29:29.998Z</time></trkpt><trkpt lat="44.29738182265882" lon="10.825364067266893"><ele>777.0</ele><time>2026-04-12T10:29:31.998Z</time></trkpt><trkpt lat="44.2973008628249" lon="10.825329413539938"><ele>777.0</ele><time>2026-04-12T10:29:32.998Z</time></trkpt><trkpt lat="44.297226482725385" lon="10.82529195447415"><ele>777.0</ele><time>2026-04-12T10:29:33.998Z</time></trkpt><trkpt lat="44.297162530276324" lon="10.825258708963386"><ele>777.0</ele><time>2026-04-12T10:29:34.998Z</time></trkpt><trkpt lat="44.29703716365116" lon="10.825202759586519"><ele>777.0</ele><time>2026-04-12T10:29:36.998Z</time></trkpt><trkpt lat="44.296929132527865" lon="10.825215504432002"><ele>777.4000000000001</ele><time>2026-04-12T10:29:38.998Z</time></trkpt><trkpt lat="44.29682632153317" lon="10.825302219729451"><ele>777.8000000000001</ele><time>2026-04-12T10:29:40.998Z</time></trkpt><trkpt lat="44.29674520433862" lon="10.825407022176753"><ele>778.2</ele><time>2026-04-12T10:29:42.998Z</time></trkpt><trkpt lat="44.29665520075039" lon="10.825467666686725"><ele>778.6</ele><time>2026-04-12T10:29:44.998Z</time></trkpt><trkpt lat="44.29658295250509" lon="10.825478928522811"><ele>779.0</ele><time>2026-04-12T10:29:45.998Z</time></trkpt><trkpt lat="44.296505095431854" lon="10.825480886898655"><ele>779.0000000000001</ele><time>2026-04-12T10:29:46.998Z</time></trkpt><trkpt lat="44.29642182127901" lon="10.825517496413458"><ele>779.0</ele><time>2026-04-12T10:29:47.998Z</time></trkpt><trkpt lat="44.29634933864692" lon="10.825583142042094"><ele>779.0</ele><time>2026-04-12T10:29:48.998Z</time></trkpt><trkpt lat="44.29628653771988" lon="10.825649141395877"><ele>779.0</ele><time>2026-04-12T10:29:49.998Z</time></trkpt><trkpt lat="44.29621200940746" lon="10.825703188925766"><ele>779.0000000000001</ele><time>2026-04-12T10:29:50.998Z</time></trkpt><trkpt lat="44.29614392481929" lon="10.825724413542769"><ele>779.0</ele><time>2026-04-12T10:29:51.998Z</time></trkpt><trkpt lat="44.2960691906467" lon="10.825731483657968"><ele>778.2</ele><time>2026-04-12T10:29:52.998Z</time></trkpt><trkpt lat="44.295966073534125" lon="10.82573809758417"><ele>777.4000000000001</ele><time>2026-04-12T10:29:53.998Z</time></trkpt><trkpt lat="44.29587071183058" lon="10.825761073311845"><ele>776.6</ele><time>2026-04-12T10:29:54.998Z</time></trkpt><trkpt lat="44.295781471844734" lon="10.82578989483785"><ele>775.8</ele><time>2026-04-12T10:29:55.998Z</time></trkpt><trkpt lat="44.295707341080444" lon="10.82581756589758"><ele>775.0</ele><time>2026-04-12T10:29:56.998Z</time></trkpt><trkpt lat="44.295622906332575" lon="10.825835899793706"><ele>775.1666666666666</ele><time>2026-04-12T10:29:57.998Z</time></trkpt><trkpt lat="44.29554246302558" lon="10.825833901956926"><ele>775.3333333333333</ele><time>2026-04-12T10:29:58.998Z</time></trkpt><trkpt lat="44.29544736185836" lon="10.825806578167313"><ele>775.5</ele><time>2026-04-12T10:29:59.998Z</time></trkpt><trkpt lat="44.2953607431416" lon="10.825755011381439"><ele>775.6666666666667</ele><time>2026-04-12T10:30:00.998Z</time></trkpt><trkpt lat="44.29528430823761" lon="10.825691859573348"><ele>775.8333333333334</ele><time>2026-04-12T10:30:01.998Z</time></trkpt><trkpt lat="44.29520858260453" lon="10.825642579227717"><ele>776.0</ele><time>2026-04-12T10:30:02.998Z</time></trkpt><trkpt lat="44.29510232369615" lon="10.825709375101177"><ele>776.0</ele><time>2026-04-12T10:30:03.998Z</time></trkpt><trkpt lat="44.295041253547204" lon="10.825676010526362"><ele>776.0</ele><time>2026-04-12T10:30:05.998Z</time></trkpt><trkpt lat="44.29497742591944" lon="10.825708418858303"><ele>776.0</ele><time>2026-04-12T10:30:07.998Z</time></trkpt><trkpt lat="44.29504513275891" lon="10.825725760925843"><ele>776.0</ele><time>2026-04-12T10:30:10.999Z</time></trkpt><trkpt lat="44.29515933099399" lon="10.825945138863295"><ele>776.0</ele><time>2026-04-12T10:30:12.999Z</time></trkpt><trkpt lat="44.2951803069704" lon="10.826045665747182"><ele>779.1428571428571</ele><time>2026-04-12T10:30:13.999Z</time></trkpt><trkpt lat="44.29519584147977" lon="10.826146773686707"><ele>782.2857142857143</ele><time>2026-04-12T10:30:15Z</time></trkpt><trkpt lat="44.29520051204138" lon="10.826244285363666"><ele>785.4285714285714</ele><time>2026-04-12T10:30:16Z</time></trkpt><trkpt lat="44.295153679610365" lon="10.826325527886977"><ele>788.5714285714286</ele><time>2026-04-12T10:30:17Z</time></trkpt><trkpt lat="44.295079248233215" lon="10.826359489617401"><ele>791.7142857142858</ele><time>2026-04-12T10:30:18Z</time></trkpt><trkpt lat="44.2950059652359" lon="10.826389032602728"><ele>794.8571428571429</ele><time>2026-04-12T10:30:19Z</time></trkpt><trkpt lat="44.29493515831626" lon="10.82642792522785"><ele>798.0</ele><time>2026-04-12T10:30:20Z</time></trkpt><trkpt lat="44.29484363503961" lon="10.82649407823743"><ele>795.5</ele><time>2026-04-12T10:30:21Z</time></trkpt><trkpt lat="44.2947438531541" lon="10.826566036500926"><ele>793.0</ele><time>2026-04-12T10:30:22Z</time></trkpt><trkpt lat="44.29463810031448" lon="10.82663741375974"><ele>790.5</ele><time>2026-04-12T10:30:23Z</time></trkpt><trkpt lat="44.294518790399586" lon="10.826712485303558"><ele>788.0</ele><time>2026-04-12T10:30:24Z</time></trkpt><trkpt lat="44.29440103322397" lon="10.826768576949789"><ele>788.0000000000001</ele><time>2026-04-12T10:30:25Z</time></trkpt><trkpt lat="44.29430008219854" lon="10.826763763615379"><ele>788.0</ele><time>2026-04-12T10:30:25.999Z</time></trkpt><trkpt lat="44.294217916936596" lon="10.826762986579437"><ele>788.0</ele><time>2026-04-12T10:30:26.999Z</time></trkpt><trkpt lat="44.29415826490515" lon="10.826800902073966"><ele>788.0</ele><time>2026-04-12T10:30:27.999Z</time></trkpt><trkpt lat="44.29416072913677" lon="10.826891420872803"><ele>788.0000000000001</ele><time>2026-04-12T10:30:28.999Z</time></trkpt><trkpt lat="44.294200918536035" lon="10.826976667630865"><ele>788.0</ele><time>2026-04-12T10:30:29.999Z</time></trkpt><trkpt lat="44.294275620827506" lon="10.827014445285867"><ele>791.2</ele><time>2026-04-12T10:30:30.999Z</time></trkpt><trkpt lat="44.29436419051794" lon="10.826992400982034"><ele>794.4</ele><time>2026-04-12T10:30:31.999Z</time></trkpt><trkpt lat="44.294444632074274" lon="10.826963764540775"><ele>797.6</ele><time>2026-04-12T10:30:32.999Z</time></trkpt><trkpt lat="44.294513872656864" lon="10.826955448464995"><ele>800.8000000000001</ele><time>2026-04-12T10:30:33.999Z</time></trkpt><trkpt lat="44.29462340260548" lon="10.826940990536517"><ele>804.0</ele><time>2026-04-12T10:30:34.999Z</time></trkpt><trkpt lat="44.29473897125975" lon="10.82692666035894"><ele>809.25</ele><time>2026-04-12T10:30:35.999Z</time></trkpt><trkpt lat="44.29486556742305" lon="10.826918469848072"><ele>814.5</ele><time>2026-04-12T10:30:36.999Z</time></trkpt><trkpt lat="44.295008713331185" lon="10.826921439496319"><ele>819.75</ele><time>2026-04-12T10:30:37.999Z</time></trkpt><trkpt lat="44.29515417726471" lon="10.826954039489761"><ele>825.0</ele><time>2026-04-12T10:30:38.999Z</time></trkpt><trkpt lat="44.29530979422381" lon="10.826988033701062"><ele>825.0</ele><time>2026-04-12T10:30:39.999Z</time></trkpt><trkpt lat="44.29546979795447" lon="10.826981699695107"><ele>825.0</ele><time>2026-04-12T10:30:40.999Z</time></trkpt><trkpt lat="44.295602974403366" lon="10.826928274596261"><ele>825.0</ele><time>2026-04-12T10:30:41.999Z</time></trkpt><trkpt lat="44.29572564816745" lon="10.826869279508552"><ele>825.0</ele><time>2026-04-12T10:30:42.999Z</time></trkpt><trkpt lat="44.29583918569671" lon="10.826849096232069"><ele>826.0</ele><time>2026-04-12T10:30:43.999Z</time></trkpt><trkpt lat="44.29595894801353" lon="10.826858591152542"><ele>827.0</ele><time>2026-04-12T10:30:44.999Z</time></trkpt><trkpt lat="44.29608671853073" lon="10.826871902302203"><ele>828.0</ele><time>2026-04-12T10:30:45.999Z</time></trkpt><trkpt lat="44.296195644966524" lon="10.82688513677543"><ele>829.0</ele><time>2026-04-12T10:30:46.999Z</time></trkpt><trkpt lat="44.296308560307466" lon="10.82693327138284"><ele>829.0</ele><time>2026-04-12T10:30:47.999Z</time></trkpt><trkpt lat="44.29640951378557" lon="10.826993289667111"><ele>829.0</ele><time>2026-04-12T10:30:48.999Z</time></trkpt><trkpt lat="44.29651981026312" lon="10.827050804717002"><ele>829.0</ele><time>2026-04-12T10:30:49.999Z</time></trkpt><trkpt lat="44.296628075904735" lon="10.827104294821819"><ele>829.0</ele><time>2026-04-12T10:30:50.999Z</time></trkpt><trkpt lat="44.296734405786644" lon="10.827157471398479"><ele>829.2</ele><time>2026-04-12T10:30:51.999Z</time></trkpt><trkpt lat="44.29684574567437" lon="10.827226421958644"><ele>829.4000000000001</ele><time>2026-04-12T10:30:52.999Z</time></trkpt><trkpt lat="44.29694374417781" lon="10.827298457052898"><ele>829.6</ele><time>2026-04-12T10:30:53.999Z</time></trkpt><trkpt lat="44.29703588629111" lon="10.827375184892915"><ele>829.8</ele><time>2026-04-12T10:30:54.999Z</time></trkpt><trkpt lat="44.29712556863756" lon="10.827443755752887"><ele>830.0</ele><time>2026-04-12T10:30:55.999Z</time></trkpt><trkpt lat="44.297229239802526" lon="10.827478970438056"><ele>830.8</ele><time>2026-04-12T10:30:56.999Z</time></trkpt><trkpt lat="44.29733583457981" lon="10.827483377756343"><ele>831.6</ele><time>2026-04-12T10:30:57.999Z</time></trkpt><trkpt lat="44.2974139262035" lon="10.827476910914816"><ele>832.4000000000001</ele><time>2026-04-12T10:30:58.999Z</time></trkpt><trkpt lat="44.29753475277781" lon="10.827525375172552"><ele>833.2</ele><time>2026-04-12T10:31:00.999Z</time></trkpt><trkpt lat="44.297576991559936" lon="10.827636900884839"><ele>834.0</ele><time>2026-04-12T10:31:01.999Z</time></trkpt><trkpt lat="44.29762106400671" lon="10.82774906723808"><ele>834.0</ele><time>2026-04-12T10:31:02.999Z</time></trkpt><trkpt lat="44.29768227767228" lon="10.827850319921549"><ele>834.0</ele><time>2026-04-12T10:31:03.999Z</time></trkpt><trkpt lat="44.2977354784612" lon="10.82791230441842"><ele>834.0</ele><time>2026-04-12T10:31:04.999Z</time></trkpt><trkpt lat="44.29782895288596" lon="10.827938563909209"><ele>834.0</ele><time>2026-04-12T10:31:05.999Z</time></trkpt><trkpt lat="44.29792364734393" lon="10.827909514865272"><ele>834.0</ele><time>2026-04-12T10:31:06.999Z</time></trkpt><trkpt lat="44.29801952361008" lon="10.827874986324936"><ele>834.0</ele><time>2026-04-12T10:31:07.999Z</time></trkpt><trkpt lat="44.29810705660814" lon="10.827852532633997"><ele>834.0</ele><time>2026-04-12T10:31:08.999Z</time></trkpt><trkpt lat="44.29817621461074" lon="10.827842277186946"><ele>834.0</ele><time>2026-04-12T10:31:09.999Z</time></trkpt><trkpt lat="44.29825664112408" lon="10.827859475872904"><ele>834.0</ele><time>2026-04-12T10:31:11.999Z</time></trkpt><trkpt lat="44.29828391577839" lon="10.82794375498163"><ele>834.0</ele><time>2026-04-12T10:31:13.999Z</time></trkpt><trkpt lat="44.29820506112598" lon="10.828032220659413"><ele>834.0</ele><time>2026-04-12T10:31:14.999Z</time></trkpt><trkpt lat="44.29818077670407" lon="10.828141810346638"><ele>834.0</ele><time>2026-04-12T10:31:15.999Z</time></trkpt><trkpt lat="44.29813895041927" lon="10.82825669112547"><ele>834.0</ele><time>2026-04-12T10:31:16.999Z</time></trkpt><trkpt lat="44.29810022599626" lon="10.828389087504096"><ele>834.0</ele><time>2026-04-12T10:31:17.999Z</time></trkpt><trkpt lat="44.29806775337611" lon="10.828484495492237"><ele>834.0</ele><time>2026-04-12T10:31:18.999Z</time></trkpt><trkpt lat="44.2980328855298" lon="10.828566853279249"><ele>834.0</ele><time>2026-04-12T10:31:19.999Z</time></trkpt><trkpt lat="44.2979964338864" lon="10.828641690802694"><ele>834.0</ele><time>2026-04-12T10:31:20.999Z</time></trkpt><trkpt lat="44.297938890205124" lon="10.828710636220235"><ele>835.5</ele><time>2026-04-12T10:31:21.999Z</time></trkpt><trkpt lat="44.29788571320237" lon="10.828789889057129"><ele>837.0</ele><time>2026-04-12T10:31:22.999Z</time></trkpt><trkpt lat="44.2978253930586" lon="10.82887063884602"><ele>838.5</ele><time>2026-04-12T10:31:23.999Z</time></trkpt><trkpt lat="44.297774635223874" lon="10.828964817746114"><ele>840.0</ele><time>2026-04-12T10:31:24.999Z</time></trkpt><trkpt lat="44.29770831958708" lon="10.829050456015349"><ele>841.5</ele><time>2026-04-12T10:31:25.999Z</time></trkpt><trkpt lat="44.29763765663639" lon="10.829104015420485"><ele>843.0</ele><time>2026-04-12T10:31:26.999Z</time></trkpt><trkpt lat="44.297576493997056" lon="10.829151313937421"><ele>843.0</ele><time>2026-04-12T10:31:27.999Z</time></trkpt><trkpt lat="44.297495455267224" lon="10.829204947207145"><ele>843.0</ele><time>2026-04-12T10:31:29.999Z</time></trkpt><trkpt lat="44.29741644186531" lon="10.829276341977804"><ele>843.0</ele><time>2026-04-12T10:31:31.999Z</time></trkpt><trkpt lat="44.29734127396645" lon="10.829143340195566"><ele>843.0</ele><time>2026-04-12T10:31:33.999Z</time></trkpt><trkpt lat="44.29728240912126" lon="10.829086076807588"><ele>843.0</ele><time>2026-04-12T10:31:34.999Z</time></trkpt><trkpt lat="44.29722269467313" lon="10.82902886163656"><ele>843.0</ele><time>2026-04-12T10:31:35.998Z</time></trkpt><trkpt lat="44.29716585492384" lon="10.828946930477247"><ele>844.0</ele><time>2026-04-12T10:31:36.998Z</time></trkpt><trkpt lat="44.29710915819514" lon="10.828871915979525"><ele>845.0</ele><time>2026-04-12T10:31:37.998Z</time></trkpt><trkpt lat="44.29703826219539" lon="10.828801616605375"><ele>846.0</ele><time>2026-04-12T10:31:38.998Z</time></trkpt><trkpt lat="44.296967052732704" lon="10.828740464713574"><ele>847.0</ele><time>2026-04-12T10:31:39.998Z</time></trkpt><trkpt lat="44.29690577369774" lon="10.828712313031392"><ele>848.0</ele><time>2026-04-12T10:31:40.998Z</time></trkpt><trkpt lat="44.29685566523631" lon="10.828648407480427"><ele>849.0</ele><time>2026-04-12T10:31:42.998Z</time></trkpt><trkpt lat="44.29692002549272" lon="10.828543832227954"><ele>849.0</ele><time>2026-04-12T10:31:45.998Z</time></trkpt><trkpt lat="44.29695544664126" lon="10.828463024668201"><ele>841.0</ele><time>2026-04-12T10:31:48.998Z</time></trkpt><trkpt lat="44.29692870363071" lon="10.82837116153457"><ele>841.0</ele><time>2026-04-12T10:31:51.998Z</time></trkpt></trkseg></trk></gpx>